<?xml version="1.0" encoding="UTF-8" standalone="no" ?>
<gpx xmlns="http://www.topografix.com/GPX/1/1" xmlns:xsi="http://www.w3.org/2001/XMLSchema-instance" xsi:schemaLocation="http://www.topografix.com/GPX/1/1 http://www.topografix.com/GPX/1/1/gpx.xsd" version="1.1" creator="VisuGPX - https://www.visugpx.com">
  <metadata>
    <name>Château du Loir Marigné Laillé</name>
    <desc><![CDATA[5ème étape du circuit Tours Mont St Michel]]></desc>
  </metadata>
  <trk>
    <name><![CDATA[2016-06-17-01]]></name>
    <trkseg>
      <trkpt lat="47.68367" lon="0.41483">
        <ele>26.4</ele>
        <time>2016-06-17T05:26:45Z</time>
      </trkpt>
      <trkpt lat="47.68364" lon="0.41489">
        <ele>31.1</ele>
        <time>2016-06-17T05:26:46Z</time>
      </trkpt>
      <trkpt lat="47.68373" lon="0.41494">
        <ele>48.7</ele>
        <time>2016-06-17T05:26:54Z</time>
      </trkpt>
      <trkpt lat="47.68383" lon="0.41496">
        <ele>51.6</ele>
        <time>2016-06-17T05:27:03Z</time>
      </trkpt>
      <trkpt lat="47.68389" lon="0.41483">
        <ele>51.3</ele>
        <time>2016-06-17T05:27:08Z</time>
      </trkpt>
      <trkpt lat="47.68395" lon="0.41494">
        <ele>51.4</ele>
        <time>2016-06-17T05:27:14Z</time>
      </trkpt>
      <trkpt lat="47.68405" lon="0.415">
        <ele>51.2</ele>
        <time>2016-06-17T05:27:21Z</time>
      </trkpt>
      <trkpt lat="47.68414" lon="0.41501">
        <ele>50.7</ele>
        <time>2016-06-17T05:27:30Z</time>
      </trkpt>
      <trkpt lat="47.68424" lon="0.41505">
        <ele>50.2</ele>
        <time>2016-06-17T05:27:39Z</time>
      </trkpt>
      <trkpt lat="47.68434" lon="0.41505">
        <ele>51.4</ele>
        <time>2016-06-17T05:27:48Z</time>
      </trkpt>
      <trkpt lat="47.68443" lon="0.41506">
        <ele>50.4</ele>
        <time>2016-06-17T05:27:56Z</time>
      </trkpt>
      <trkpt lat="47.68452" lon="0.415">
        <ele>50.8</ele>
        <time>2016-06-17T05:28:03Z</time>
      </trkpt>
      <trkpt lat="47.68462" lon="0.41499">
        <ele>51.3</ele>
        <time>2016-06-17T05:28:11Z</time>
      </trkpt>
      <trkpt lat="47.68471" lon="0.41501">
        <ele>51.2</ele>
        <time>2016-06-17T05:28:24Z</time>
      </trkpt>
      <trkpt lat="47.6848" lon="0.41508">
        <ele>50.7</ele>
        <time>2016-06-17T05:28:31Z</time>
      </trkpt>
      <trkpt lat="47.6849" lon="0.41509">
        <ele>50.5</ele>
        <time>2016-06-17T05:28:38Z</time>
      </trkpt>
      <trkpt lat="47.68499" lon="0.41505">
        <ele>50.3</ele>
        <time>2016-06-17T05:28:46Z</time>
      </trkpt>
      <trkpt lat="47.68508" lon="0.41504">
        <ele>49.8</ele>
        <time>2016-06-17T05:28:54Z</time>
      </trkpt>
      <trkpt lat="47.68517" lon="0.41502">
        <ele>50</ele>
        <time>2016-06-17T05:29:02Z</time>
      </trkpt>
      <trkpt lat="47.68526" lon="0.41503">
        <ele>50</ele>
        <time>2016-06-17T05:29:10Z</time>
      </trkpt>
      <trkpt lat="47.68536" lon="0.41502">
        <ele>49.8</ele>
        <time>2016-06-17T05:29:18Z</time>
      </trkpt>
      <trkpt lat="47.68545" lon="0.415">
        <ele>50</ele>
        <time>2016-06-17T05:29:25Z</time>
      </trkpt>
      <trkpt lat="47.68555" lon="0.415">
        <ele>49.6</ele>
        <time>2016-06-17T05:29:32Z</time>
      </trkpt>
      <trkpt lat="47.68564" lon="0.41499">
        <ele>49.3</ele>
        <time>2016-06-17T05:29:40Z</time>
      </trkpt>
      <trkpt lat="47.68574" lon="0.41501">
        <ele>49.8</ele>
        <time>2016-06-17T05:29:54Z</time>
      </trkpt>
      <trkpt lat="47.68583" lon="0.41506">
        <ele>49.1</ele>
        <time>2016-06-17T05:30:02Z</time>
      </trkpt>
      <trkpt lat="47.68593" lon="0.4151">
        <ele>49.5</ele>
        <time>2016-06-17T05:30:09Z</time>
      </trkpt>
      <trkpt lat="47.68602" lon="0.41509">
        <ele>49.3</ele>
        <time>2016-06-17T05:30:18Z</time>
      </trkpt>
      <trkpt lat="47.68612" lon="0.41509">
        <ele>49.7</ele>
        <time>2016-06-17T05:30:26Z</time>
      </trkpt>
      <trkpt lat="47.68621" lon="0.41508">
        <ele>50</ele>
        <time>2016-06-17T05:30:33Z</time>
      </trkpt>
      <trkpt lat="47.6863" lon="0.41511">
        <ele>50.6</ele>
        <time>2016-06-17T05:30:41Z</time>
      </trkpt>
      <trkpt lat="47.6864" lon="0.41512">
        <ele>50.3</ele>
        <time>2016-06-17T05:30:48Z</time>
      </trkpt>
      <trkpt lat="47.68649" lon="0.41513">
        <ele>50.9</ele>
        <time>2016-06-17T05:30:56Z</time>
      </trkpt>
      <trkpt lat="47.68659" lon="0.4151">
        <ele>50.4</ele>
        <time>2016-06-17T05:31:02Z</time>
      </trkpt>
      <trkpt lat="47.68668" lon="0.41509">
        <ele>50.1</ele>
        <time>2016-06-17T05:31:10Z</time>
      </trkpt>
      <trkpt lat="47.68677" lon="0.41514">
        <ele>50.4</ele>
        <time>2016-06-17T05:31:19Z</time>
      </trkpt>
      <trkpt lat="47.68687" lon="0.41515">
        <ele>50.7</ele>
        <time>2016-06-17T05:31:28Z</time>
      </trkpt>
      <trkpt lat="47.68696" lon="0.41516">
        <ele>50.1</ele>
        <time>2016-06-17T05:31:35Z</time>
      </trkpt>
      <trkpt lat="47.68705" lon="0.41514">
        <ele>50.3</ele>
        <time>2016-06-17T05:31:42Z</time>
      </trkpt>
      <trkpt lat="47.68715" lon="0.41511">
        <ele>50.3</ele>
        <time>2016-06-17T05:31:50Z</time>
      </trkpt>
      <trkpt lat="47.68725" lon="0.41513">
        <ele>50.4</ele>
        <time>2016-06-17T05:31:59Z</time>
      </trkpt>
      <trkpt lat="47.68734" lon="0.41515">
        <ele>50.4</ele>
        <time>2016-06-17T05:32:05Z</time>
      </trkpt>
      <trkpt lat="47.68743" lon="0.41519">
        <ele>50.2</ele>
        <time>2016-06-17T05:32:13Z</time>
      </trkpt>
      <trkpt lat="47.6875" lon="0.41526">
        <ele>51.1</ele>
        <time>2016-06-17T05:32:21Z</time>
      </trkpt>
      <trkpt lat="47.6876" lon="0.41525">
        <ele>50.6</ele>
        <time>2016-06-17T05:32:29Z</time>
      </trkpt>
      <trkpt lat="47.68769" lon="0.41525">
        <ele>50.2</ele>
        <time>2016-06-17T05:32:35Z</time>
      </trkpt>
      <trkpt lat="47.68778" lon="0.41521">
        <ele>49.9</ele>
        <time>2016-06-17T05:32:42Z</time>
      </trkpt>
      <trkpt lat="47.68788" lon="0.41518">
        <ele>49.2</ele>
        <time>2016-06-17T05:32:50Z</time>
      </trkpt>
      <trkpt lat="47.68797" lon="0.41519">
        <ele>49.2</ele>
        <time>2016-06-17T05:32:59Z</time>
      </trkpt>
      <trkpt lat="47.68807" lon="0.41521">
        <ele>49.6</ele>
        <time>2016-06-17T05:33:09Z</time>
      </trkpt>
      <trkpt lat="47.68816" lon="0.41517">
        <ele>49.5</ele>
        <time>2016-06-17T05:33:16Z</time>
      </trkpt>
      <trkpt lat="47.68825" lon="0.4152">
        <ele>49.9</ele>
        <time>2016-06-17T05:33:23Z</time>
      </trkpt>
      <trkpt lat="47.68834" lon="0.41521">
        <ele>49.8</ele>
        <time>2016-06-17T05:33:30Z</time>
      </trkpt>
      <trkpt lat="47.68844" lon="0.41524">
        <ele>49.3</ele>
        <time>2016-06-17T05:33:38Z</time>
      </trkpt>
      <trkpt lat="47.68853" lon="0.41521">
        <ele>49.7</ele>
        <time>2016-06-17T05:33:45Z</time>
      </trkpt>
      <trkpt lat="47.68862" lon="0.41523">
        <ele>49.7</ele>
        <time>2016-06-17T05:33:52Z</time>
      </trkpt>
      <trkpt lat="47.68872" lon="0.41524">
        <ele>49.1</ele>
        <time>2016-06-17T05:34:01Z</time>
      </trkpt>
      <trkpt lat="47.68881" lon="0.41526">
        <ele>49.3</ele>
        <time>2016-06-17T05:34:08Z</time>
      </trkpt>
      <trkpt lat="47.68891" lon="0.4153">
        <ele>49.5</ele>
        <time>2016-06-17T05:34:17Z</time>
      </trkpt>
      <trkpt lat="47.689" lon="0.41532">
        <ele>49.8</ele>
        <time>2016-06-17T05:34:25Z</time>
      </trkpt>
      <trkpt lat="47.68911" lon="0.41529">
        <ele>49.4</ele>
        <time>2016-06-17T05:34:33Z</time>
      </trkpt>
      <trkpt lat="47.68921" lon="0.4153">
        <ele>49.7</ele>
        <time>2016-06-17T05:34:42Z</time>
      </trkpt>
      <trkpt lat="47.68931" lon="0.41529">
        <ele>50.5</ele>
        <time>2016-06-17T05:34:51Z</time>
      </trkpt>
      <trkpt lat="47.6894" lon="0.41528">
        <ele>50.6</ele>
        <time>2016-06-17T05:34:57Z</time>
      </trkpt>
      <trkpt lat="47.68949" lon="0.41529">
        <ele>49.8</ele>
        <time>2016-06-17T05:35:05Z</time>
      </trkpt>
      <trkpt lat="47.68959" lon="0.41531">
        <ele>49.8</ele>
        <time>2016-06-17T05:35:12Z</time>
      </trkpt>
      <trkpt lat="47.68968" lon="0.41532">
        <ele>49.8</ele>
        <time>2016-06-17T05:35:20Z</time>
      </trkpt>
      <trkpt lat="47.68978" lon="0.41536">
        <ele>50.7</ele>
        <time>2016-06-17T05:35:29Z</time>
      </trkpt>
      <trkpt lat="47.68987" lon="0.41534">
        <ele>50.5</ele>
        <time>2016-06-17T05:35:37Z</time>
      </trkpt>
      <trkpt lat="47.68997" lon="0.41531">
        <ele>50.7</ele>
        <time>2016-06-17T05:35:44Z</time>
      </trkpt>
      <trkpt lat="47.69007" lon="0.41529">
        <ele>50.5</ele>
        <time>2016-06-17T05:35:52Z</time>
      </trkpt>
      <trkpt lat="47.69016" lon="0.4153">
        <ele>50.3</ele>
        <time>2016-06-17T05:36:00Z</time>
      </trkpt>
      <trkpt lat="47.69026" lon="0.41534">
        <ele>50.6</ele>
        <time>2016-06-17T05:36:09Z</time>
      </trkpt>
      <trkpt lat="47.69036" lon="0.41536">
        <ele>51.1</ele>
        <time>2016-06-17T05:36:18Z</time>
      </trkpt>
      <trkpt lat="47.69045" lon="0.41535">
        <ele>50.9</ele>
        <time>2016-06-17T05:36:25Z</time>
      </trkpt>
      <trkpt lat="47.69054" lon="0.41538">
        <ele>50.4</ele>
        <time>2016-06-17T05:36:33Z</time>
      </trkpt>
      <trkpt lat="47.69064" lon="0.41538">
        <ele>50.9</ele>
        <time>2016-06-17T05:36:40Z</time>
      </trkpt>
      <trkpt lat="47.69074" lon="0.4154">
        <ele>51</ele>
        <time>2016-06-17T05:36:49Z</time>
      </trkpt>
      <trkpt lat="47.69083" lon="0.41539">
        <ele>51</ele>
        <time>2016-06-17T05:36:56Z</time>
      </trkpt>
      <trkpt lat="47.69093" lon="0.41539">
        <ele>51.1</ele>
        <time>2016-06-17T05:37:04Z</time>
      </trkpt>
      <trkpt lat="47.69101" lon="0.41543">
        <ele>50.5</ele>
        <time>2016-06-17T05:37:12Z</time>
      </trkpt>
      <trkpt lat="47.69111" lon="0.41546">
        <ele>51</ele>
        <time>2016-06-17T05:37:19Z</time>
      </trkpt>
      <trkpt lat="47.6912" lon="0.41549">
        <ele>51.5</ele>
        <time>2016-06-17T05:37:28Z</time>
      </trkpt>
      <trkpt lat="47.6913" lon="0.41554">
        <ele>51.7</ele>
        <time>2016-06-17T05:37:36Z</time>
      </trkpt>
      <trkpt lat="47.69138" lon="0.4156">
        <ele>50.9</ele>
        <time>2016-06-17T05:37:44Z</time>
      </trkpt>
      <trkpt lat="47.69147" lon="0.41564">
        <ele>52</ele>
        <time>2016-06-17T05:37:51Z</time>
      </trkpt>
      <trkpt lat="47.69156" lon="0.41567">
        <ele>51.5</ele>
        <time>2016-06-17T05:37:59Z</time>
      </trkpt>
      <trkpt lat="47.69164" lon="0.41575">
        <ele>51.4</ele>
        <time>2016-06-17T05:38:07Z</time>
      </trkpt>
      <trkpt lat="47.69172" lon="0.41581">
        <ele>51.7</ele>
        <time>2016-06-17T05:38:14Z</time>
      </trkpt>
      <trkpt lat="47.69181" lon="0.41586">
        <ele>52.1</ele>
        <time>2016-06-17T05:38:21Z</time>
      </trkpt>
      <trkpt lat="47.69188" lon="0.41595">
        <ele>52.3</ele>
        <time>2016-06-17T05:38:29Z</time>
      </trkpt>
      <trkpt lat="47.69197" lon="0.41599">
        <ele>52.2</ele>
        <time>2016-06-17T05:38:36Z</time>
      </trkpt>
      <trkpt lat="47.69205" lon="0.41605">
        <ele>52.5</ele>
        <time>2016-06-17T05:38:53Z</time>
      </trkpt>
      <trkpt lat="47.69215" lon="0.41606">
        <ele>51.5</ele>
        <time>2016-06-17T05:39:00Z</time>
      </trkpt>
      <trkpt lat="47.69224" lon="0.41607">
        <ele>51.8</ele>
        <time>2016-06-17T05:39:07Z</time>
      </trkpt>
      <trkpt lat="47.69232" lon="0.41616">
        <ele>51.8</ele>
        <time>2016-06-17T05:39:15Z</time>
      </trkpt>
      <trkpt lat="47.69238" lon="0.41626">
        <ele>52.2</ele>
        <time>2016-06-17T05:39:24Z</time>
      </trkpt>
      <trkpt lat="47.69248" lon="0.41632">
        <ele>51.2</ele>
        <time>2016-06-17T05:39:35Z</time>
      </trkpt>
      <trkpt lat="47.69256" lon="0.41639">
        <ele>51.9</ele>
        <time>2016-06-17T05:39:42Z</time>
      </trkpt>
      <trkpt lat="47.69264" lon="0.41645">
        <ele>52</ele>
        <time>2016-06-17T05:39:50Z</time>
      </trkpt>
      <trkpt lat="47.69273" lon="0.41653">
        <ele>51.4</ele>
        <time>2016-06-17T05:39:59Z</time>
      </trkpt>
      <trkpt lat="47.69281" lon="0.41662">
        <ele>51.6</ele>
        <time>2016-06-17T05:40:08Z</time>
      </trkpt>
      <trkpt lat="47.69288" lon="0.4167">
        <ele>51.5</ele>
        <time>2016-06-17T05:40:15Z</time>
      </trkpt>
      <trkpt lat="47.69296" lon="0.41676">
        <ele>51.2</ele>
        <time>2016-06-17T05:40:22Z</time>
      </trkpt>
      <trkpt lat="47.69305" lon="0.41684">
        <ele>51.7</ele>
        <time>2016-06-17T05:40:30Z</time>
      </trkpt>
      <trkpt lat="47.69313" lon="0.41688">
        <ele>51.6</ele>
        <time>2016-06-17T05:40:37Z</time>
      </trkpt>
      <trkpt lat="47.69322" lon="0.41695">
        <ele>51.8</ele>
        <time>2016-06-17T05:40:45Z</time>
      </trkpt>
      <trkpt lat="47.69331" lon="0.41697">
        <ele>52.2</ele>
        <time>2016-06-17T05:40:52Z</time>
      </trkpt>
      <trkpt lat="47.6934" lon="0.41705">
        <ele>51.3</ele>
        <time>2016-06-17T05:41:01Z</time>
      </trkpt>
      <trkpt lat="47.69349" lon="0.41711">
        <ele>51</ele>
        <time>2016-06-17T05:41:08Z</time>
      </trkpt>
      <trkpt lat="47.69357" lon="0.41719">
        <ele>51.2</ele>
        <time>2016-06-17T05:41:16Z</time>
      </trkpt>
      <trkpt lat="47.69367" lon="0.41718">
        <ele>51.1</ele>
        <time>2016-06-17T05:41:24Z</time>
      </trkpt>
      <trkpt lat="47.69371" lon="0.41706">
        <ele>50.8</ele>
        <time>2016-06-17T05:41:28Z</time>
      </trkpt>
      <trkpt lat="47.69375" lon="0.41692">
        <ele>50.8</ele>
        <time>2016-06-17T05:41:35Z</time>
      </trkpt>
      <trkpt lat="47.69379" lon="0.4168">
        <ele>51.9</ele>
        <time>2016-06-17T05:41:44Z</time>
      </trkpt>
      <trkpt lat="47.69388" lon="0.41675">
        <ele>51.3</ele>
        <time>2016-06-17T05:41:57Z</time>
      </trkpt>
      <trkpt lat="47.69397" lon="0.41673">
        <ele>51.4</ele>
        <time>2016-06-17T05:42:04Z</time>
      </trkpt>
      <trkpt lat="47.69404" lon="0.41664">
        <ele>51.2</ele>
        <time>2016-06-17T05:42:11Z</time>
      </trkpt>
      <trkpt lat="47.69412" lon="0.41656">
        <ele>51.2</ele>
        <time>2016-06-17T05:42:18Z</time>
      </trkpt>
      <trkpt lat="47.69419" lon="0.41648">
        <ele>50.7</ele>
        <time>2016-06-17T05:42:26Z</time>
      </trkpt>
      <trkpt lat="47.69426" lon="0.41639">
        <ele>51</ele>
        <time>2016-06-17T05:42:35Z</time>
      </trkpt>
      <trkpt lat="47.69434" lon="0.4163">
        <ele>51</ele>
        <time>2016-06-17T05:42:50Z</time>
      </trkpt>
      <trkpt lat="47.69434" lon="0.41616">
        <ele>50.9</ele>
        <time>2016-06-17T05:42:57Z</time>
      </trkpt>
      <trkpt lat="47.69442" lon="0.41608">
        <ele>51.6</ele>
        <time>2016-06-17T05:43:16Z</time>
      </trkpt>
      <trkpt lat="47.69448" lon="0.41597">
        <ele>51.4</ele>
        <time>2016-06-17T05:43:30Z</time>
      </trkpt>
      <trkpt lat="47.69454" lon="0.41587">
        <ele>51.4</ele>
        <time>2016-06-17T05:43:42Z</time>
      </trkpt>
      <trkpt lat="47.69459" lon="0.41575">
        <ele>51.1</ele>
        <time>2016-06-17T05:43:58Z</time>
      </trkpt>
      <trkpt lat="47.69462" lon="0.41561">
        <ele>51.1</ele>
        <time>2016-06-17T05:44:32Z</time>
      </trkpt>
      <trkpt lat="47.69462" lon="0.41548">
        <ele>51</ele>
        <time>2016-06-17T05:44:40Z</time>
      </trkpt>
      <trkpt lat="47.69461" lon="0.41535">
        <ele>50.8</ele>
        <time>2016-06-17T05:44:47Z</time>
      </trkpt>
      <trkpt lat="47.69463" lon="0.4152">
        <ele>51.5</ele>
        <time>2016-06-17T05:44:56Z</time>
      </trkpt>
      <trkpt lat="47.69467" lon="0.41509">
        <ele>51.8</ele>
        <time>2016-06-17T05:45:05Z</time>
      </trkpt>
      <trkpt lat="47.69473" lon="0.41497">
        <ele>51.8</ele>
        <time>2016-06-17T05:45:14Z</time>
      </trkpt>
      <trkpt lat="47.6948" lon="0.41488">
        <ele>52.3</ele>
        <time>2016-06-17T05:45:28Z</time>
      </trkpt>
      <trkpt lat="47.69485" lon="0.41476">
        <ele>52.5</ele>
        <time>2016-06-17T05:45:38Z</time>
      </trkpt>
      <trkpt lat="47.69486" lon="0.41462">
        <ele>52.4</ele>
        <time>2016-06-17T05:45:46Z</time>
      </trkpt>
      <trkpt lat="47.69486" lon="0.41447">
        <ele>52</ele>
        <time>2016-06-17T05:45:55Z</time>
      </trkpt>
      <trkpt lat="47.69486" lon="0.41432">
        <ele>52.3</ele>
        <time>2016-06-17T05:46:05Z</time>
      </trkpt>
      <trkpt lat="47.69486" lon="0.41418">
        <ele>52.1</ele>
        <time>2016-06-17T05:46:14Z</time>
      </trkpt>
      <trkpt lat="47.69483" lon="0.41404">
        <ele>52.2</ele>
        <time>2016-06-17T05:46:23Z</time>
      </trkpt>
      <trkpt lat="47.69481" lon="0.4139">
        <ele>52.2</ele>
        <time>2016-06-17T05:46:31Z</time>
      </trkpt>
      <trkpt lat="47.69478" lon="0.41377">
        <ele>52.1</ele>
        <time>2016-06-17T05:46:38Z</time>
      </trkpt>
      <trkpt lat="47.69477" lon="0.41363">
        <ele>52.2</ele>
        <time>2016-06-17T05:46:47Z</time>
      </trkpt>
      <trkpt lat="47.69474" lon="0.4135">
        <ele>53.1</ele>
        <time>2016-06-17T05:46:54Z</time>
      </trkpt>
      <trkpt lat="47.69473" lon="0.41336">
        <ele>52.2</ele>
        <time>2016-06-17T05:47:02Z</time>
      </trkpt>
      <trkpt lat="47.69472" lon="0.41321">
        <ele>53</ele>
        <time>2016-06-17T05:47:10Z</time>
      </trkpt>
      <trkpt lat="47.69469" lon="0.41308">
        <ele>53.4</ele>
        <time>2016-06-17T05:47:18Z</time>
      </trkpt>
      <trkpt lat="47.69465" lon="0.41296">
        <ele>53.3</ele>
        <time>2016-06-17T05:47:25Z</time>
      </trkpt>
      <trkpt lat="47.6946" lon="0.41284">
        <ele>53.2</ele>
        <time>2016-06-17T05:47:32Z</time>
      </trkpt>
      <trkpt lat="47.69456" lon="0.41272">
        <ele>54.6</ele>
        <time>2016-06-17T05:47:40Z</time>
      </trkpt>
      <trkpt lat="47.69458" lon="0.41258">
        <ele>54.1</ele>
        <time>2016-06-17T05:47:47Z</time>
      </trkpt>
      <trkpt lat="47.69453" lon="0.41245">
        <ele>55</ele>
        <time>2016-06-17T05:47:55Z</time>
      </trkpt>
      <trkpt lat="47.6945" lon="0.41231">
        <ele>55.1</ele>
        <time>2016-06-17T05:48:03Z</time>
      </trkpt>
      <trkpt lat="47.69448" lon="0.41218">
        <ele>55.7</ele>
        <time>2016-06-17T05:48:11Z</time>
      </trkpt>
      <trkpt lat="47.69446" lon="0.41204">
        <ele>55.6</ele>
        <time>2016-06-17T05:48:19Z</time>
      </trkpt>
      <trkpt lat="47.6944" lon="0.41194">
        <ele>56.4</ele>
        <time>2016-06-17T05:48:25Z</time>
      </trkpt>
      <trkpt lat="47.69442" lon="0.41181">
        <ele>55.4</ele>
        <time>2016-06-17T05:48:35Z</time>
      </trkpt>
      <trkpt lat="47.6945" lon="0.41174">
        <ele>54.6</ele>
        <time>2016-06-17T05:48:44Z</time>
      </trkpt>
      <trkpt lat="47.69458" lon="0.41165">
        <ele>54.5</ele>
        <time>2016-06-17T05:48:51Z</time>
      </trkpt>
      <trkpt lat="47.69465" lon="0.41154">
        <ele>52.4</ele>
        <time>2016-06-17T05:49:01Z</time>
      </trkpt>
      <trkpt lat="47.69468" lon="0.41141">
        <ele>52.6</ele>
        <time>2016-06-17T05:49:09Z</time>
      </trkpt>
      <trkpt lat="47.6947" lon="0.41127">
        <ele>52.4</ele>
        <time>2016-06-17T05:49:16Z</time>
      </trkpt>
      <trkpt lat="47.69468" lon="0.41112">
        <ele>52.7</ele>
        <time>2016-06-17T05:49:24Z</time>
      </trkpt>
      <trkpt lat="47.6947" lon="0.41098">
        <ele>52.8</ele>
        <time>2016-06-17T05:49:31Z</time>
      </trkpt>
      <trkpt lat="47.69469" lon="0.41082">
        <ele>52.4</ele>
        <time>2016-06-17T05:49:38Z</time>
      </trkpt>
      <trkpt lat="47.69471" lon="0.41067">
        <ele>53</ele>
        <time>2016-06-17T05:49:46Z</time>
      </trkpt>
      <trkpt lat="47.69475" lon="0.41054">
        <ele>52</ele>
        <time>2016-06-17T05:49:53Z</time>
      </trkpt>
      <trkpt lat="47.69478" lon="0.41041">
        <ele>52.5</ele>
        <time>2016-06-17T05:50:01Z</time>
      </trkpt>
      <trkpt lat="47.69482" lon="0.41029">
        <ele>52.2</ele>
        <time>2016-06-17T05:50:09Z</time>
      </trkpt>
      <trkpt lat="47.69485" lon="0.41014">
        <ele>52.1</ele>
        <time>2016-06-17T05:50:17Z</time>
      </trkpt>
      <trkpt lat="47.69482" lon="0.41001">
        <ele>52.5</ele>
        <time>2016-06-17T05:50:26Z</time>
      </trkpt>
      <trkpt lat="47.69481" lon="0.40986">
        <ele>52.4</ele>
        <time>2016-06-17T05:50:35Z</time>
      </trkpt>
      <trkpt lat="47.69483" lon="0.40972">
        <ele>52.1</ele>
        <time>2016-06-17T05:50:45Z</time>
      </trkpt>
      <trkpt lat="47.69483" lon="0.40959">
        <ele>52</ele>
        <time>2016-06-17T05:50:54Z</time>
      </trkpt>
      <trkpt lat="47.69485" lon="0.40945">
        <ele>52.1</ele>
        <time>2016-06-17T05:51:00Z</time>
      </trkpt>
      <trkpt lat="47.69488" lon="0.40932">
        <ele>52.3</ele>
        <time>2016-06-17T05:51:07Z</time>
      </trkpt>
      <trkpt lat="47.69494" lon="0.40922">
        <ele>52.6</ele>
        <time>2016-06-17T05:51:49Z</time>
      </trkpt>
      <trkpt lat="47.69503" lon="0.40922">
        <ele>51.7</ele>
        <time>2016-06-17T05:51:59Z</time>
      </trkpt>
      <trkpt lat="47.69513" lon="0.40923">
        <ele>51.9</ele>
        <time>2016-06-17T05:52:10Z</time>
      </trkpt>
      <trkpt lat="47.69522" lon="0.40922">
        <ele>52.1</ele>
        <time>2016-06-17T05:52:19Z</time>
      </trkpt>
      <trkpt lat="47.69532" lon="0.40925">
        <ele>51.3</ele>
        <time>2016-06-17T05:52:27Z</time>
      </trkpt>
      <trkpt lat="47.6954" lon="0.4093">
        <ele>52</ele>
        <time>2016-06-17T05:52:34Z</time>
      </trkpt>
      <trkpt lat="47.69548" lon="0.40936">
        <ele>52.4</ele>
        <time>2016-06-17T05:52:41Z</time>
      </trkpt>
      <trkpt lat="47.69558" lon="0.40942">
        <ele>52.5</ele>
        <time>2016-06-17T05:52:48Z</time>
      </trkpt>
      <trkpt lat="47.69567" lon="0.40946">
        <ele>52.5</ele>
        <time>2016-06-17T05:52:56Z</time>
      </trkpt>
      <trkpt lat="47.69575" lon="0.40954">
        <ele>53.4</ele>
        <time>2016-06-17T05:53:04Z</time>
      </trkpt>
      <trkpt lat="47.69585" lon="0.40955">
        <ele>53.8</ele>
        <time>2016-06-17T05:53:12Z</time>
      </trkpt>
      <trkpt lat="47.69594" lon="0.40959">
        <ele>54</ele>
        <time>2016-06-17T05:53:20Z</time>
      </trkpt>
      <trkpt lat="47.69603" lon="0.40962">
        <ele>55.5</ele>
        <time>2016-06-17T05:53:27Z</time>
      </trkpt>
      <trkpt lat="47.69612" lon="0.40961">
        <ele>55.7</ele>
        <time>2016-06-17T05:53:33Z</time>
      </trkpt>
      <trkpt lat="47.69621" lon="0.40964">
        <ele>55.3</ele>
        <time>2016-06-17T05:53:41Z</time>
      </trkpt>
      <trkpt lat="47.69631" lon="0.40965">
        <ele>55.7</ele>
        <time>2016-06-17T05:53:57Z</time>
      </trkpt>
      <trkpt lat="47.6964" lon="0.40969">
        <ele>56.8</ele>
        <time>2016-06-17T05:54:05Z</time>
      </trkpt>
      <trkpt lat="47.69649" lon="0.40973">
        <ele>57.3</ele>
        <time>2016-06-17T05:54:12Z</time>
      </trkpt>
      <trkpt lat="47.69659" lon="0.40976">
        <ele>57.7</ele>
        <time>2016-06-17T05:54:20Z</time>
      </trkpt>
      <trkpt lat="47.69668" lon="0.40979">
        <ele>58.2</ele>
        <time>2016-06-17T05:54:28Z</time>
      </trkpt>
      <trkpt lat="47.69677" lon="0.40981">
        <ele>58.2</ele>
        <time>2016-06-17T05:54:36Z</time>
      </trkpt>
      <trkpt lat="47.69686" lon="0.40986">
        <ele>59.9</ele>
        <time>2016-06-17T05:54:47Z</time>
      </trkpt>
      <trkpt lat="47.69695" lon="0.40985">
        <ele>61.9</ele>
        <time>2016-06-17T05:54:55Z</time>
      </trkpt>
      <trkpt lat="47.69705" lon="0.40986">
        <ele>61.5</ele>
        <time>2016-06-17T05:55:16Z</time>
      </trkpt>
      <trkpt lat="47.69715" lon="0.40987">
        <ele>62</ele>
        <time>2016-06-17T05:55:25Z</time>
      </trkpt>
      <trkpt lat="47.69725" lon="0.40984">
        <ele>61.9</ele>
        <time>2016-06-17T05:55:36Z</time>
      </trkpt>
      <trkpt lat="47.69734" lon="0.40986">
        <ele>61.9</ele>
        <time>2016-06-17T05:55:43Z</time>
      </trkpt>
      <trkpt lat="47.69742" lon="0.40993">
        <ele>61.9</ele>
        <time>2016-06-17T05:55:49Z</time>
      </trkpt>
      <trkpt lat="47.6975" lon="0.41">
        <ele>62.3</ele>
        <time>2016-06-17T05:55:58Z</time>
      </trkpt>
      <trkpt lat="47.69759" lon="0.40996">
        <ele>63.2</ele>
        <time>2016-06-17T05:56:03Z</time>
      </trkpt>
      <trkpt lat="47.69766" lon="0.40986">
        <ele>64.7</ele>
        <time>2016-06-17T05:56:10Z</time>
      </trkpt>
      <trkpt lat="47.69775" lon="0.40986">
        <ele>64.5</ele>
        <time>2016-06-17T05:56:20Z</time>
      </trkpt>
      <trkpt lat="47.6978" lon="0.40972">
        <ele>64.5</ele>
        <time>2016-06-17T05:57:21Z</time>
      </trkpt>
      <trkpt lat="47.69782" lon="0.40958">
        <ele>64.8</ele>
        <time>2016-06-17T05:57:28Z</time>
      </trkpt>
      <trkpt lat="47.69784" lon="0.40946">
        <ele>65</ele>
        <time>2016-06-17T05:57:34Z</time>
      </trkpt>
      <trkpt lat="47.69787" lon="0.40931">
        <ele>65.6</ele>
        <time>2016-06-17T05:57:42Z</time>
      </trkpt>
      <trkpt lat="47.69787" lon="0.40916">
        <ele>66.1</ele>
        <time>2016-06-17T05:57:51Z</time>
      </trkpt>
      <trkpt lat="47.69789" lon="0.40903">
        <ele>66</ele>
        <time>2016-06-17T05:57:58Z</time>
      </trkpt>
      <trkpt lat="47.6979" lon="0.40888">
        <ele>66.6</ele>
        <time>2016-06-17T05:58:06Z</time>
      </trkpt>
      <trkpt lat="47.69792" lon="0.40874">
        <ele>66.2</ele>
        <time>2016-06-17T05:58:14Z</time>
      </trkpt>
      <trkpt lat="47.69792" lon="0.4086">
        <ele>66.9</ele>
        <time>2016-06-17T05:58:22Z</time>
      </trkpt>
      <trkpt lat="47.69791" lon="0.40846">
        <ele>66.5</ele>
        <time>2016-06-17T05:58:30Z</time>
      </trkpt>
      <trkpt lat="47.69792" lon="0.40832">
        <ele>66.8</ele>
        <time>2016-06-17T05:58:38Z</time>
      </trkpt>
      <trkpt lat="47.69791" lon="0.40818">
        <ele>67.1</ele>
        <time>2016-06-17T05:58:45Z</time>
      </trkpt>
      <trkpt lat="47.69793" lon="0.40803">
        <ele>67.7</ele>
        <time>2016-06-17T05:58:54Z</time>
      </trkpt>
      <trkpt lat="47.69791" lon="0.4079">
        <ele>68.4</ele>
        <time>2016-06-17T05:59:03Z</time>
      </trkpt>
      <trkpt lat="47.69793" lon="0.40777">
        <ele>68.2</ele>
        <time>2016-06-17T05:59:10Z</time>
      </trkpt>
      <trkpt lat="47.69792" lon="0.40762">
        <ele>68.2</ele>
        <time>2016-06-17T05:59:18Z</time>
      </trkpt>
      <trkpt lat="47.69796" lon="0.40748">
        <ele>68.7</ele>
        <time>2016-06-17T05:59:26Z</time>
      </trkpt>
      <trkpt lat="47.69794" lon="0.40735">
        <ele>68.5</ele>
        <time>2016-06-17T05:59:33Z</time>
      </trkpt>
      <trkpt lat="47.69796" lon="0.40719">
        <ele>69.3</ele>
        <time>2016-06-17T05:59:42Z</time>
      </trkpt>
      <trkpt lat="47.69794" lon="0.40706">
        <ele>69.1</ele>
        <time>2016-06-17T05:59:50Z</time>
      </trkpt>
      <trkpt lat="47.69795" lon="0.40691">
        <ele>69.7</ele>
        <time>2016-06-17T05:59:59Z</time>
      </trkpt>
      <trkpt lat="47.69794" lon="0.40677">
        <ele>69.2</ele>
        <time>2016-06-17T06:00:07Z</time>
      </trkpt>
      <trkpt lat="47.69796" lon="0.40662">
        <ele>70</ele>
        <time>2016-06-17T06:00:15Z</time>
      </trkpt>
      <trkpt lat="47.69796" lon="0.40647">
        <ele>69.7</ele>
        <time>2016-06-17T06:01:31Z</time>
      </trkpt>
      <trkpt lat="47.69797" lon="0.40633">
        <ele>69.4</ele>
        <time>2016-06-17T06:01:38Z</time>
      </trkpt>
      <trkpt lat="47.69798" lon="0.40619">
        <ele>68.8</ele>
        <time>2016-06-17T06:01:45Z</time>
      </trkpt>
      <trkpt lat="47.69799" lon="0.40604">
        <ele>69</ele>
        <time>2016-06-17T06:01:53Z</time>
      </trkpt>
      <trkpt lat="47.69799" lon="0.4059">
        <ele>68.9</ele>
        <time>2016-06-17T06:02:00Z</time>
      </trkpt>
      <trkpt lat="47.69802" lon="0.40576">
        <ele>68.4</ele>
        <time>2016-06-17T06:02:08Z</time>
      </trkpt>
      <trkpt lat="47.69805" lon="0.40563">
        <ele>67.9</ele>
        <time>2016-06-17T06:02:16Z</time>
      </trkpt>
      <trkpt lat="47.69808" lon="0.40549">
        <ele>67.5</ele>
        <time>2016-06-17T06:02:23Z</time>
      </trkpt>
      <trkpt lat="47.69809" lon="0.40535">
        <ele>66.8</ele>
        <time>2016-06-17T06:02:30Z</time>
      </trkpt>
      <trkpt lat="47.69809" lon="0.4052">
        <ele>67</ele>
        <time>2016-06-17T06:02:38Z</time>
      </trkpt>
      <trkpt lat="47.69808" lon="0.40505">
        <ele>66.3</ele>
        <time>2016-06-17T06:02:47Z</time>
      </trkpt>
      <trkpt lat="47.69811" lon="0.40491">
        <ele>65.6</ele>
        <time>2016-06-17T06:02:55Z</time>
      </trkpt>
      <trkpt lat="47.69812" lon="0.40477">
        <ele>65.3</ele>
        <time>2016-06-17T06:03:03Z</time>
      </trkpt>
      <trkpt lat="47.69814" lon="0.40464">
        <ele>65.3</ele>
        <time>2016-06-17T06:03:10Z</time>
      </trkpt>
      <trkpt lat="47.69815" lon="0.4045">
        <ele>65.2</ele>
        <time>2016-06-17T06:03:17Z</time>
      </trkpt>
      <trkpt lat="47.69819" lon="0.40437">
        <ele>65.7</ele>
        <time>2016-06-17T06:03:25Z</time>
      </trkpt>
      <trkpt lat="47.69823" lon="0.40424">
        <ele>64.9</ele>
        <time>2016-06-17T06:03:33Z</time>
      </trkpt>
      <trkpt lat="47.69828" lon="0.40411">
        <ele>64.4</ele>
        <time>2016-06-17T06:03:41Z</time>
      </trkpt>
      <trkpt lat="47.69834" lon="0.404">
        <ele>64</ele>
        <time>2016-06-17T06:03:49Z</time>
      </trkpt>
      <trkpt lat="47.6984" lon="0.4039">
        <ele>63.7</ele>
        <time>2016-06-17T06:03:56Z</time>
      </trkpt>
      <trkpt lat="47.69847" lon="0.4038">
        <ele>63.6</ele>
        <time>2016-06-17T06:04:04Z</time>
      </trkpt>
      <trkpt lat="47.69856" lon="0.40372">
        <ele>63.1</ele>
        <time>2016-06-17T06:04:12Z</time>
      </trkpt>
      <trkpt lat="47.69864" lon="0.40366">
        <ele>61.8</ele>
        <time>2016-06-17T06:04:20Z</time>
      </trkpt>
      <trkpt lat="47.69874" lon="0.40363">
        <ele>61.4</ele>
        <time>2016-06-17T06:04:29Z</time>
      </trkpt>
      <trkpt lat="47.69884" lon="0.4036">
        <ele>62.1</ele>
        <time>2016-06-17T06:04:36Z</time>
      </trkpt>
      <trkpt lat="47.69894" lon="0.40357">
        <ele>63</ele>
        <time>2016-06-17T06:04:47Z</time>
      </trkpt>
      <trkpt lat="47.69902" lon="0.4035">
        <ele>63.9</ele>
        <time>2016-06-17T06:04:53Z</time>
      </trkpt>
      <trkpt lat="47.6991" lon="0.40343">
        <ele>64.8</ele>
        <time>2016-06-17T06:04:59Z</time>
      </trkpt>
      <trkpt lat="47.69918" lon="0.40335">
        <ele>64.9</ele>
        <time>2016-06-17T06:05:07Z</time>
      </trkpt>
      <trkpt lat="47.69927" lon="0.40329">
        <ele>64.7</ele>
        <time>2016-06-17T06:05:15Z</time>
      </trkpt>
      <trkpt lat="47.69935" lon="0.40322">
        <ele>66.1</ele>
        <time>2016-06-17T06:05:24Z</time>
      </trkpt>
      <trkpt lat="47.69944" lon="0.40314">
        <ele>66.4</ele>
        <time>2016-06-17T06:05:32Z</time>
      </trkpt>
      <trkpt lat="47.69951" lon="0.40305">
        <ele>66.9</ele>
        <time>2016-06-17T06:05:40Z</time>
      </trkpt>
      <trkpt lat="47.69958" lon="0.40293">
        <ele>66.4</ele>
        <time>2016-06-17T06:05:47Z</time>
      </trkpt>
      <trkpt lat="47.69965" lon="0.40284">
        <ele>66.8</ele>
        <time>2016-06-17T06:05:55Z</time>
      </trkpt>
      <trkpt lat="47.69972" lon="0.40273">
        <ele>67</ele>
        <time>2016-06-17T06:06:04Z</time>
      </trkpt>
      <trkpt lat="47.6998" lon="0.40264">
        <ele>66.8</ele>
        <time>2016-06-17T06:06:11Z</time>
      </trkpt>
      <trkpt lat="47.69988" lon="0.40256">
        <ele>66.7</ele>
        <time>2016-06-17T06:06:18Z</time>
      </trkpt>
      <trkpt lat="47.69995" lon="0.40246">
        <ele>66.6</ele>
        <time>2016-06-17T06:06:25Z</time>
      </trkpt>
      <trkpt lat="47.70003" lon="0.40237">
        <ele>67.3</ele>
        <time>2016-06-17T06:06:33Z</time>
      </trkpt>
      <trkpt lat="47.70012" lon="0.4023">
        <ele>66.9</ele>
        <time>2016-06-17T06:06:39Z</time>
      </trkpt>
      <trkpt lat="47.7002" lon="0.40223">
        <ele>66.7</ele>
        <time>2016-06-17T06:06:47Z</time>
      </trkpt>
      <trkpt lat="47.70028" lon="0.40216">
        <ele>66.8</ele>
        <time>2016-06-17T06:06:54Z</time>
      </trkpt>
      <trkpt lat="47.70036" lon="0.40209">
        <ele>66.4</ele>
        <time>2016-06-17T06:07:01Z</time>
      </trkpt>
      <trkpt lat="47.70046" lon="0.40202">
        <ele>66.1</ele>
        <time>2016-06-17T06:07:09Z</time>
      </trkpt>
      <trkpt lat="47.70055" lon="0.40196">
        <ele>66.1</ele>
        <time>2016-06-17T06:07:17Z</time>
      </trkpt>
      <trkpt lat="47.70064" lon="0.40192">
        <ele>66.2</ele>
        <time>2016-06-17T06:07:25Z</time>
      </trkpt>
      <trkpt lat="47.70073" lon="0.40186">
        <ele>66.2</ele>
        <time>2016-06-17T06:07:33Z</time>
      </trkpt>
      <trkpt lat="47.70082" lon="0.4018">
        <ele>67.1</ele>
        <time>2016-06-17T06:07:40Z</time>
      </trkpt>
      <trkpt lat="47.70091" lon="0.40176">
        <ele>66.4</ele>
        <time>2016-06-17T06:07:47Z</time>
      </trkpt>
      <trkpt lat="47.70101" lon="0.40171">
        <ele>66.2</ele>
        <time>2016-06-17T06:07:55Z</time>
      </trkpt>
      <trkpt lat="47.7011" lon="0.40167">
        <ele>66.1</ele>
        <time>2016-06-17T06:08:03Z</time>
      </trkpt>
      <trkpt lat="47.7012" lon="0.40169">
        <ele>66.8</ele>
        <time>2016-06-17T06:08:12Z</time>
      </trkpt>
      <trkpt lat="47.70123" lon="0.40156">
        <ele>67.1</ele>
        <time>2016-06-17T06:09:36Z</time>
      </trkpt>
      <trkpt lat="47.70128" lon="0.40144">
        <ele>66.7</ele>
        <time>2016-06-17T06:09:44Z</time>
      </trkpt>
      <trkpt lat="47.70136" lon="0.40136">
        <ele>66.3</ele>
        <time>2016-06-17T06:09:53Z</time>
      </trkpt>
      <trkpt lat="47.70145" lon="0.4013">
        <ele>65.8</ele>
        <time>2016-06-17T06:10:01Z</time>
      </trkpt>
      <trkpt lat="47.70153" lon="0.40125">
        <ele>65.8</ele>
        <time>2016-06-17T06:10:07Z</time>
      </trkpt>
      <trkpt lat="47.70163" lon="0.4012">
        <ele>65</ele>
        <time>2016-06-17T06:10:15Z</time>
      </trkpt>
      <trkpt lat="47.70172" lon="0.40115">
        <ele>65.5</ele>
        <time>2016-06-17T06:10:24Z</time>
      </trkpt>
      <trkpt lat="47.70181" lon="0.40109">
        <ele>65.4</ele>
        <time>2016-06-17T06:10:31Z</time>
      </trkpt>
      <trkpt lat="47.7019" lon="0.40103">
        <ele>64.6</ele>
        <time>2016-06-17T06:10:40Z</time>
      </trkpt>
      <trkpt lat="47.70199" lon="0.40097">
        <ele>64.9</ele>
        <time>2016-06-17T06:10:48Z</time>
      </trkpt>
      <trkpt lat="47.70207" lon="0.40091">
        <ele>64.6</ele>
        <time>2016-06-17T06:10:55Z</time>
      </trkpt>
      <trkpt lat="47.70216" lon="0.40085">
        <ele>63.8</ele>
        <time>2016-06-17T06:11:03Z</time>
      </trkpt>
      <trkpt lat="47.70225" lon="0.40079">
        <ele>63.9</ele>
        <time>2016-06-17T06:11:11Z</time>
      </trkpt>
      <trkpt lat="47.70234" lon="0.40075">
        <ele>63.7</ele>
        <time>2016-06-17T06:11:18Z</time>
      </trkpt>
      <trkpt lat="47.70244" lon="0.40071">
        <ele>62.5</ele>
        <time>2016-06-17T06:11:25Z</time>
      </trkpt>
      <trkpt lat="47.70254" lon="0.4007">
        <ele>63.5</ele>
        <time>2016-06-17T06:11:34Z</time>
      </trkpt>
      <trkpt lat="47.70263" lon="0.40069">
        <ele>63.9</ele>
        <time>2016-06-17T06:11:41Z</time>
      </trkpt>
      <trkpt lat="47.70272" lon="0.40065">
        <ele>63.3</ele>
        <time>2016-06-17T06:11:49Z</time>
      </trkpt>
      <trkpt lat="47.70281" lon="0.40067">
        <ele>62.7</ele>
        <time>2016-06-17T06:11:59Z</time>
      </trkpt>
      <trkpt lat="47.70291" lon="0.40065">
        <ele>63.3</ele>
        <time>2016-06-17T06:12:07Z</time>
      </trkpt>
      <trkpt lat="47.703" lon="0.4006">
        <ele>63.4</ele>
        <time>2016-06-17T06:12:17Z</time>
      </trkpt>
      <trkpt lat="47.7031" lon="0.40058">
        <ele>63.4</ele>
        <time>2016-06-17T06:12:27Z</time>
      </trkpt>
      <trkpt lat="47.7032" lon="0.40052">
        <ele>63.7</ele>
        <time>2016-06-17T06:12:36Z</time>
      </trkpt>
      <trkpt lat="47.70329" lon="0.40051">
        <ele>63.9</ele>
        <time>2016-06-17T06:12:45Z</time>
      </trkpt>
      <trkpt lat="47.70339" lon="0.40051">
        <ele>63.9</ele>
        <time>2016-06-17T06:12:55Z</time>
      </trkpt>
      <trkpt lat="47.70348" lon="0.40051">
        <ele>64.7</ele>
        <time>2016-06-17T06:13:58Z</time>
      </trkpt>
      <trkpt lat="47.70358" lon="0.40053">
        <ele>64.9</ele>
        <time>2016-06-17T06:14:07Z</time>
      </trkpt>
      <trkpt lat="47.70367" lon="0.40054">
        <ele>65.6</ele>
        <time>2016-06-17T06:14:16Z</time>
      </trkpt>
      <trkpt lat="47.70376" lon="0.40059">
        <ele>66.9</ele>
        <time>2016-06-17T06:14:27Z</time>
      </trkpt>
      <trkpt lat="47.70386" lon="0.40062">
        <ele>67.5</ele>
        <time>2016-06-17T06:14:40Z</time>
      </trkpt>
      <trkpt lat="47.70398" lon="0.40062">
        <ele>68.6</ele>
        <time>2016-06-17T06:14:48Z</time>
      </trkpt>
      <trkpt lat="47.70407" lon="0.40063">
        <ele>69.5</ele>
        <time>2016-06-17T06:14:57Z</time>
      </trkpt>
      <trkpt lat="47.70417" lon="0.40063">
        <ele>70.1</ele>
        <time>2016-06-17T06:15:06Z</time>
      </trkpt>
      <trkpt lat="47.70426" lon="0.40064">
        <ele>70.1</ele>
        <time>2016-06-17T06:15:13Z</time>
      </trkpt>
      <trkpt lat="47.70435" lon="0.40067">
        <ele>70.7</ele>
        <time>2016-06-17T06:15:22Z</time>
      </trkpt>
      <trkpt lat="47.70444" lon="0.40072">
        <ele>73</ele>
        <time>2016-06-17T06:15:57Z</time>
      </trkpt>
      <trkpt lat="47.70454" lon="0.4007">
        <ele>73.6</ele>
        <time>2016-06-17T06:16:04Z</time>
      </trkpt>
      <trkpt lat="47.70463" lon="0.40071">
        <ele>74.1</ele>
        <time>2016-06-17T06:16:13Z</time>
      </trkpt>
      <trkpt lat="47.70472" lon="0.40077">
        <ele>75</ele>
        <time>2016-06-17T06:16:30Z</time>
      </trkpt>
      <trkpt lat="47.70481" lon="0.4008">
        <ele>74.4</ele>
        <time>2016-06-17T06:16:44Z</time>
      </trkpt>
      <trkpt lat="47.7049" lon="0.40086">
        <ele>75.3</ele>
        <time>2016-06-17T06:16:51Z</time>
      </trkpt>
      <trkpt lat="47.705" lon="0.4009">
        <ele>76.5</ele>
        <time>2016-06-17T06:16:58Z</time>
      </trkpt>
      <trkpt lat="47.70509" lon="0.40091">
        <ele>77.3</ele>
        <time>2016-06-17T06:17:04Z</time>
      </trkpt>
      <trkpt lat="47.70518" lon="0.40094">
        <ele>77.3</ele>
        <time>2016-06-17T06:17:12Z</time>
      </trkpt>
      <trkpt lat="47.70526" lon="0.40091">
        <ele>78</ele>
        <time>2016-06-17T06:17:17Z</time>
      </trkpt>
      <trkpt lat="47.70536" lon="0.4009">
        <ele>78.6</ele>
        <time>2016-06-17T06:17:25Z</time>
      </trkpt>
      <trkpt lat="47.70546" lon="0.40095">
        <ele>79</ele>
        <time>2016-06-17T06:17:52Z</time>
      </trkpt>
      <trkpt lat="47.70555" lon="0.40099">
        <ele>79.3</ele>
        <time>2016-06-17T06:18:01Z</time>
      </trkpt>
      <trkpt lat="47.70564" lon="0.40104">
        <ele>79.9</ele>
        <time>2016-06-17T06:18:09Z</time>
      </trkpt>
      <trkpt lat="47.70574" lon="0.40106">
        <ele>80.4</ele>
        <time>2016-06-17T06:18:18Z</time>
      </trkpt>
      <trkpt lat="47.70583" lon="0.40111">
        <ele>80.8</ele>
        <time>2016-06-17T06:18:26Z</time>
      </trkpt>
      <trkpt lat="47.70593" lon="0.4011">
        <ele>80.7</ele>
        <time>2016-06-17T06:18:34Z</time>
      </trkpt>
      <trkpt lat="47.70603" lon="0.4011">
        <ele>81.9</ele>
        <time>2016-06-17T06:18:40Z</time>
      </trkpt>
      <trkpt lat="47.70612" lon="0.40114">
        <ele>81.8</ele>
        <time>2016-06-17T06:18:52Z</time>
      </trkpt>
      <trkpt lat="47.70622" lon="0.40117">
        <ele>82.2</ele>
        <time>2016-06-17T06:19:04Z</time>
      </trkpt>
      <trkpt lat="47.70632" lon="0.40119">
        <ele>82.3</ele>
        <time>2016-06-17T06:19:12Z</time>
      </trkpt>
      <trkpt lat="47.70641" lon="0.40122">
        <ele>82.9</ele>
        <time>2016-06-17T06:19:21Z</time>
      </trkpt>
      <trkpt lat="47.7065" lon="0.40123">
        <ele>83.5</ele>
        <time>2016-06-17T06:19:28Z</time>
      </trkpt>
      <trkpt lat="47.7066" lon="0.40123">
        <ele>84.5</ele>
        <time>2016-06-17T06:19:35Z</time>
      </trkpt>
      <trkpt lat="47.70671" lon="0.40124">
        <ele>84.1</ele>
        <time>2016-06-17T06:19:45Z</time>
      </trkpt>
      <trkpt lat="47.7068" lon="0.40126">
        <ele>84.6</ele>
        <time>2016-06-17T06:19:51Z</time>
      </trkpt>
      <trkpt lat="47.7069" lon="0.40128">
        <ele>84.6</ele>
        <time>2016-06-17T06:19:59Z</time>
      </trkpt>
      <trkpt lat="47.707" lon="0.40132">
        <ele>85.3</ele>
        <time>2016-06-17T06:20:08Z</time>
      </trkpt>
      <trkpt lat="47.7071" lon="0.40132">
        <ele>85.5</ele>
        <time>2016-06-17T06:20:15Z</time>
      </trkpt>
      <trkpt lat="47.70719" lon="0.40135">
        <ele>85.6</ele>
        <time>2016-06-17T06:20:23Z</time>
      </trkpt>
      <trkpt lat="47.70728" lon="0.40136">
        <ele>86</ele>
        <time>2016-06-17T06:20:31Z</time>
      </trkpt>
      <trkpt lat="47.70738" lon="0.4014">
        <ele>86.4</ele>
        <time>2016-06-17T06:20:39Z</time>
      </trkpt>
      <trkpt lat="47.70747" lon="0.40138">
        <ele>87</ele>
        <time>2016-06-17T06:20:45Z</time>
      </trkpt>
      <trkpt lat="47.70758" lon="0.40136">
        <ele>86.8</ele>
        <time>2016-06-17T06:20:53Z</time>
      </trkpt>
      <trkpt lat="47.70767" lon="0.40139">
        <ele>86.6</ele>
        <time>2016-06-17T06:21:00Z</time>
      </trkpt>
      <trkpt lat="47.70775" lon="0.40142">
        <ele>86.4</ele>
        <time>2016-06-17T06:21:08Z</time>
      </trkpt>
      <trkpt lat="47.70784" lon="0.40148">
        <ele>86.5</ele>
        <time>2016-06-17T06:21:15Z</time>
      </trkpt>
      <trkpt lat="47.70794" lon="0.40152">
        <ele>86.7</ele>
        <time>2016-06-17T06:21:22Z</time>
      </trkpt>
      <trkpt lat="47.70801" lon="0.40161">
        <ele>87.2</ele>
        <time>2016-06-17T06:21:29Z</time>
      </trkpt>
      <trkpt lat="47.70807" lon="0.40171">
        <ele>87.6</ele>
        <time>2016-06-17T06:21:38Z</time>
      </trkpt>
      <trkpt lat="47.70816" lon="0.40168">
        <ele>86.4</ele>
        <time>2016-06-17T06:22:21Z</time>
      </trkpt>
      <trkpt lat="47.70823" lon="0.40157">
        <ele>86.1</ele>
        <time>2016-06-17T06:22:30Z</time>
      </trkpt>
      <trkpt lat="47.7083" lon="0.40147">
        <ele>85.7</ele>
        <time>2016-06-17T06:22:37Z</time>
      </trkpt>
      <trkpt lat="47.70837" lon="0.40137">
        <ele>84.8</ele>
        <time>2016-06-17T06:22:43Z</time>
      </trkpt>
      <trkpt lat="47.70844" lon="0.40128">
        <ele>84.1</ele>
        <time>2016-06-17T06:22:50Z</time>
      </trkpt>
      <trkpt lat="47.70852" lon="0.40119">
        <ele>83.8</ele>
        <time>2016-06-17T06:22:57Z</time>
      </trkpt>
      <trkpt lat="47.70859" lon="0.40109">
        <ele>83.3</ele>
        <time>2016-06-17T06:23:04Z</time>
      </trkpt>
      <trkpt lat="47.70865" lon="0.40098">
        <ele>82.2</ele>
        <time>2016-06-17T06:23:12Z</time>
      </trkpt>
      <trkpt lat="47.70873" lon="0.40087">
        <ele>81.9</ele>
        <time>2016-06-17T06:23:20Z</time>
      </trkpt>
      <trkpt lat="47.7088" lon="0.40077">
        <ele>82.3</ele>
        <time>2016-06-17T06:23:27Z</time>
      </trkpt>
      <trkpt lat="47.70887" lon="0.40069">
        <ele>81</ele>
        <time>2016-06-17T06:23:35Z</time>
      </trkpt>
      <trkpt lat="47.70896" lon="0.40061">
        <ele>79.7</ele>
        <time>2016-06-17T06:23:43Z</time>
      </trkpt>
      <trkpt lat="47.70903" lon="0.40051">
        <ele>79.8</ele>
        <time>2016-06-17T06:23:51Z</time>
      </trkpt>
      <trkpt lat="47.70911" lon="0.40041">
        <ele>80</ele>
        <time>2016-06-17T06:23:59Z</time>
      </trkpt>
      <trkpt lat="47.7092" lon="0.40032">
        <ele>79.9</ele>
        <time>2016-06-17T06:24:07Z</time>
      </trkpt>
      <trkpt lat="47.70927" lon="0.40023">
        <ele>79.4</ele>
        <time>2016-06-17T06:24:16Z</time>
      </trkpt>
      <trkpt lat="47.70933" lon="0.40013">
        <ele>79.6</ele>
        <time>2016-06-17T06:24:24Z</time>
      </trkpt>
      <trkpt lat="47.70942" lon="0.40004">
        <ele>79.1</ele>
        <time>2016-06-17T06:24:31Z</time>
      </trkpt>
      <trkpt lat="47.70949" lon="0.39993">
        <ele>78.9</ele>
        <time>2016-06-17T06:24:38Z</time>
      </trkpt>
      <trkpt lat="47.70955" lon="0.39981">
        <ele>78.9</ele>
        <time>2016-06-17T06:24:46Z</time>
      </trkpt>
      <trkpt lat="47.70963" lon="0.39972">
        <ele>78.2</ele>
        <time>2016-06-17T06:24:54Z</time>
      </trkpt>
      <trkpt lat="47.70967" lon="0.3996">
        <ele>79.4</ele>
        <time>2016-06-17T06:25:02Z</time>
      </trkpt>
      <trkpt lat="47.70974" lon="0.3995">
        <ele>77.8</ele>
        <time>2016-06-17T06:25:10Z</time>
      </trkpt>
      <trkpt lat="47.70981" lon="0.39941">
        <ele>78.5</ele>
        <time>2016-06-17T06:25:18Z</time>
      </trkpt>
      <trkpt lat="47.70989" lon="0.39932">
        <ele>78</ele>
        <time>2016-06-17T06:25:26Z</time>
      </trkpt>
      <trkpt lat="47.70996" lon="0.39923">
        <ele>78.2</ele>
        <time>2016-06-17T06:25:35Z</time>
      </trkpt>
      <trkpt lat="47.71003" lon="0.39914">
        <ele>78.1</ele>
        <time>2016-06-17T06:25:43Z</time>
      </trkpt>
      <trkpt lat="47.71011" lon="0.39906">
        <ele>78.1</ele>
        <time>2016-06-17T06:25:51Z</time>
      </trkpt>
      <trkpt lat="47.71018" lon="0.39897">
        <ele>78.5</ele>
        <time>2016-06-17T06:25:59Z</time>
      </trkpt>
      <trkpt lat="47.71028" lon="0.3989">
        <ele>78</ele>
        <time>2016-06-17T06:26:05Z</time>
      </trkpt>
      <trkpt lat="47.71037" lon="0.39882">
        <ele>78.7</ele>
        <time>2016-06-17T06:26:13Z</time>
      </trkpt>
      <trkpt lat="47.71045" lon="0.39875">
        <ele>79</ele>
        <time>2016-06-17T06:26:21Z</time>
      </trkpt>
      <trkpt lat="47.71053" lon="0.39869">
        <ele>78.5</ele>
        <time>2016-06-17T06:26:29Z</time>
      </trkpt>
      <trkpt lat="47.71061" lon="0.39862">
        <ele>78.4</ele>
        <time>2016-06-17T06:26:36Z</time>
      </trkpt>
      <trkpt lat="47.71069" lon="0.39854">
        <ele>79.2</ele>
        <time>2016-06-17T06:26:42Z</time>
      </trkpt>
      <trkpt lat="47.71079" lon="0.39849">
        <ele>79.7</ele>
        <time>2016-06-17T06:26:49Z</time>
      </trkpt>
      <trkpt lat="47.71088" lon="0.39844">
        <ele>79.4</ele>
        <time>2016-06-17T06:26:54Z</time>
      </trkpt>
      <trkpt lat="47.71095" lon="0.39837">
        <ele>80.1</ele>
        <time>2016-06-17T06:26:58Z</time>
      </trkpt>
      <trkpt lat="47.71104" lon="0.39828">
        <ele>80.4</ele>
        <time>2016-06-17T06:27:07Z</time>
      </trkpt>
      <trkpt lat="47.7111" lon="0.39816">
        <ele>80.5</ele>
        <time>2016-06-17T06:27:17Z</time>
      </trkpt>
      <trkpt lat="47.71118" lon="0.39807">
        <ele>80</ele>
        <time>2016-06-17T06:27:23Z</time>
      </trkpt>
      <trkpt lat="47.71122" lon="0.39794">
        <ele>79.9</ele>
        <time>2016-06-17T06:27:31Z</time>
      </trkpt>
      <trkpt lat="47.71128" lon="0.39783">
        <ele>79.7</ele>
        <time>2016-06-17T06:27:39Z</time>
      </trkpt>
      <trkpt lat="47.71135" lon="0.39774">
        <ele>79.2</ele>
        <time>2016-06-17T06:27:48Z</time>
      </trkpt>
      <trkpt lat="47.71144" lon="0.39766">
        <ele>78.4</ele>
        <time>2016-06-17T06:27:56Z</time>
      </trkpt>
      <trkpt lat="47.71152" lon="0.39759">
        <ele>77.8</ele>
        <time>2016-06-17T06:28:06Z</time>
      </trkpt>
      <trkpt lat="47.71157" lon="0.39747">
        <ele>79.1</ele>
        <time>2016-06-17T06:31:10Z</time>
      </trkpt>
      <trkpt lat="47.71149" lon="0.39739">
        <ele>77.9</ele>
        <time>2016-06-17T06:31:24Z</time>
      </trkpt>
      <trkpt lat="47.71145" lon="0.39727">
        <ele>77.1</ele>
        <time>2016-06-17T06:31:33Z</time>
      </trkpt>
      <trkpt lat="47.71149" lon="0.39714">
        <ele>77.1</ele>
        <time>2016-06-17T06:31:41Z</time>
      </trkpt>
      <trkpt lat="47.7115" lon="0.39699">
        <ele>75.8</ele>
        <time>2016-06-17T06:31:49Z</time>
      </trkpt>
      <trkpt lat="47.71152" lon="0.39686">
        <ele>74.7</ele>
        <time>2016-06-17T06:31:58Z</time>
      </trkpt>
      <trkpt lat="47.71152" lon="0.39673">
        <ele>74.4</ele>
        <time>2016-06-17T06:32:06Z</time>
      </trkpt>
      <trkpt lat="47.71155" lon="0.39659">
        <ele>73.7</ele>
        <time>2016-06-17T06:32:14Z</time>
      </trkpt>
      <trkpt lat="47.71157" lon="0.39646">
        <ele>72</ele>
        <time>2016-06-17T06:32:21Z</time>
      </trkpt>
      <trkpt lat="47.7116" lon="0.39631">
        <ele>71</ele>
        <time>2016-06-17T06:32:28Z</time>
      </trkpt>
      <trkpt lat="47.71157" lon="0.39617">
        <ele>70.4</ele>
        <time>2016-06-17T06:32:36Z</time>
      </trkpt>
      <trkpt lat="47.71153" lon="0.39605">
        <ele>69.5</ele>
        <time>2016-06-17T06:32:42Z</time>
      </trkpt>
      <trkpt lat="47.71149" lon="0.39592">
        <ele>68.2</ele>
        <time>2016-06-17T06:32:49Z</time>
      </trkpt>
      <trkpt lat="47.71144" lon="0.39578">
        <ele>67.2</ele>
        <time>2016-06-17T06:32:56Z</time>
      </trkpt>
      <trkpt lat="47.7114" lon="0.39565">
        <ele>66.1</ele>
        <time>2016-06-17T06:33:03Z</time>
      </trkpt>
      <trkpt lat="47.71135" lon="0.39553">
        <ele>65.7</ele>
        <time>2016-06-17T06:33:11Z</time>
      </trkpt>
      <trkpt lat="47.7113" lon="0.39542">
        <ele>65.5</ele>
        <time>2016-06-17T06:33:18Z</time>
      </trkpt>
      <trkpt lat="47.71124" lon="0.39531">
        <ele>66</ele>
        <time>2016-06-17T06:33:25Z</time>
      </trkpt>
      <trkpt lat="47.71115" lon="0.39524">
        <ele>65.2</ele>
        <time>2016-06-17T06:33:32Z</time>
      </trkpt>
      <trkpt lat="47.71108" lon="0.39514">
        <ele>64.4</ele>
        <time>2016-06-17T06:33:40Z</time>
      </trkpt>
      <trkpt lat="47.71102" lon="0.39502">
        <ele>64.2</ele>
        <time>2016-06-17T06:33:47Z</time>
      </trkpt>
      <trkpt lat="47.71094" lon="0.39492">
        <ele>63.8</ele>
        <time>2016-06-17T06:33:55Z</time>
      </trkpt>
      <trkpt lat="47.7109" lon="0.3948">
        <ele>64.3</ele>
        <time>2016-06-17T06:34:30Z</time>
      </trkpt>
      <trkpt lat="47.71087" lon="0.39466">
        <ele>64.7</ele>
        <time>2016-06-17T06:34:37Z</time>
      </trkpt>
      <trkpt lat="47.7109" lon="0.39453">
        <ele>62.8</ele>
        <time>2016-06-17T06:34:44Z</time>
      </trkpt>
      <trkpt lat="47.71095" lon="0.3944">
        <ele>64.2</ele>
        <time>2016-06-17T06:34:51Z</time>
      </trkpt>
      <trkpt lat="47.711" lon="0.39427">
        <ele>63.6</ele>
        <time>2016-06-17T06:34:58Z</time>
      </trkpt>
      <trkpt lat="47.71104" lon="0.39414">
        <ele>64.4</ele>
        <time>2016-06-17T06:35:05Z</time>
      </trkpt>
      <trkpt lat="47.71106" lon="0.39401">
        <ele>64.8</ele>
        <time>2016-06-17T06:35:12Z</time>
      </trkpt>
      <trkpt lat="47.71109" lon="0.39387">
        <ele>64.4</ele>
        <time>2016-06-17T06:35:21Z</time>
      </trkpt>
      <trkpt lat="47.71112" lon="0.39373">
        <ele>63.5</ele>
        <time>2016-06-17T06:35:33Z</time>
      </trkpt>
      <trkpt lat="47.71115" lon="0.39359">
        <ele>63.1</ele>
        <time>2016-06-17T06:35:41Z</time>
      </trkpt>
      <trkpt lat="47.7112" lon="0.39345">
        <ele>63.7</ele>
        <time>2016-06-17T06:35:51Z</time>
      </trkpt>
      <trkpt lat="47.71121" lon="0.39331">
        <ele>65</ele>
        <time>2016-06-17T06:35:59Z</time>
      </trkpt>
      <trkpt lat="47.71125" lon="0.39317">
        <ele>65.3</ele>
        <time>2016-06-17T06:36:07Z</time>
      </trkpt>
      <trkpt lat="47.71128" lon="0.39303">
        <ele>65.8</ele>
        <time>2016-06-17T06:36:14Z</time>
      </trkpt>
      <trkpt lat="47.71132" lon="0.3929">
        <ele>65.3</ele>
        <time>2016-06-17T06:36:21Z</time>
      </trkpt>
      <trkpt lat="47.71136" lon="0.39277">
        <ele>65.8</ele>
        <time>2016-06-17T06:36:29Z</time>
      </trkpt>
      <trkpt lat="47.71142" lon="0.39265">
        <ele>65.8</ele>
        <time>2016-06-17T06:36:37Z</time>
      </trkpt>
      <trkpt lat="47.71145" lon="0.39252">
        <ele>66.4</ele>
        <time>2016-06-17T06:37:02Z</time>
      </trkpt>
      <trkpt lat="47.71151" lon="0.39242">
        <ele>66.5</ele>
        <time>2016-06-17T06:37:09Z</time>
      </trkpt>
      <trkpt lat="47.71158" lon="0.39234">
        <ele>67.4</ele>
        <time>2016-06-17T06:37:16Z</time>
      </trkpt>
      <trkpt lat="47.71161" lon="0.39221">
        <ele>67.5</ele>
        <time>2016-06-17T06:37:23Z</time>
      </trkpt>
      <trkpt lat="47.71167" lon="0.3921">
        <ele>68.1</ele>
        <time>2016-06-17T06:37:31Z</time>
      </trkpt>
      <trkpt lat="47.71171" lon="0.39196">
        <ele>69</ele>
        <time>2016-06-17T06:37:40Z</time>
      </trkpt>
      <trkpt lat="47.71176" lon="0.39185">
        <ele>70.1</ele>
        <time>2016-06-17T06:37:47Z</time>
      </trkpt>
      <trkpt lat="47.71181" lon="0.39172">
        <ele>69.9</ele>
        <time>2016-06-17T06:37:55Z</time>
      </trkpt>
      <trkpt lat="47.71186" lon="0.39161">
        <ele>70.9</ele>
        <time>2016-06-17T06:38:03Z</time>
      </trkpt>
      <trkpt lat="47.71193" lon="0.3915">
        <ele>70.5</ele>
        <time>2016-06-17T06:38:11Z</time>
      </trkpt>
      <trkpt lat="47.71199" lon="0.3914">
        <ele>71.5</ele>
        <time>2016-06-17T06:38:19Z</time>
      </trkpt>
      <trkpt lat="47.71204" lon="0.39127">
        <ele>72.5</ele>
        <time>2016-06-17T06:38:28Z</time>
      </trkpt>
      <trkpt lat="47.71211" lon="0.39117">
        <ele>72.5</ele>
        <time>2016-06-17T06:38:36Z</time>
      </trkpt>
      <trkpt lat="47.71218" lon="0.39105">
        <ele>72.4</ele>
        <time>2016-06-17T06:38:44Z</time>
      </trkpt>
      <trkpt lat="47.71224" lon="0.39094">
        <ele>73.3</ele>
        <time>2016-06-17T06:38:52Z</time>
      </trkpt>
      <trkpt lat="47.71231" lon="0.39085">
        <ele>73.4</ele>
        <time>2016-06-17T06:38:59Z</time>
      </trkpt>
      <trkpt lat="47.71237" lon="0.39073">
        <ele>73.4</ele>
        <time>2016-06-17T06:39:07Z</time>
      </trkpt>
      <trkpt lat="47.71241" lon="0.3906">
        <ele>73.1</ele>
        <time>2016-06-17T06:39:15Z</time>
      </trkpt>
      <trkpt lat="47.71243" lon="0.39046">
        <ele>74.4</ele>
        <time>2016-06-17T06:39:23Z</time>
      </trkpt>
      <trkpt lat="47.71239" lon="0.39033">
        <ele>74.5</ele>
        <time>2016-06-17T06:39:41Z</time>
      </trkpt>
      <trkpt lat="47.71234" lon="0.3902">
        <ele>74.8</ele>
        <time>2016-06-17T06:39:49Z</time>
      </trkpt>
      <trkpt lat="47.71228" lon="0.39008">
        <ele>74.7</ele>
        <time>2016-06-17T06:39:57Z</time>
      </trkpt>
      <trkpt lat="47.71222" lon="0.38996">
        <ele>75.5</ele>
        <time>2016-06-17T06:40:08Z</time>
      </trkpt>
      <trkpt lat="47.71216" lon="0.38985">
        <ele>75.6</ele>
        <time>2016-06-17T06:40:19Z</time>
      </trkpt>
      <trkpt lat="47.7121" lon="0.38973">
        <ele>76.1</ele>
        <time>2016-06-17T06:40:27Z</time>
      </trkpt>
      <trkpt lat="47.71205" lon="0.3896">
        <ele>76.7</ele>
        <time>2016-06-17T06:40:35Z</time>
      </trkpt>
      <trkpt lat="47.712" lon="0.38948">
        <ele>76.7</ele>
        <time>2016-06-17T06:40:43Z</time>
      </trkpt>
      <trkpt lat="47.71196" lon="0.38935">
        <ele>77</ele>
        <time>2016-06-17T06:40:50Z</time>
      </trkpt>
      <trkpt lat="47.71193" lon="0.38922">
        <ele>77.4</ele>
        <time>2016-06-17T06:40:57Z</time>
      </trkpt>
      <trkpt lat="47.7119" lon="0.38908">
        <ele>77.5</ele>
        <time>2016-06-17T06:41:04Z</time>
      </trkpt>
      <trkpt lat="47.7119" lon="0.38894">
        <ele>77.7</ele>
        <time>2016-06-17T06:41:22Z</time>
      </trkpt>
      <trkpt lat="47.71189" lon="0.38879">
        <ele>78.2</ele>
        <time>2016-06-17T06:41:54Z</time>
      </trkpt>
      <trkpt lat="47.71191" lon="0.38865">
        <ele>78.4</ele>
        <time>2016-06-17T06:42:03Z</time>
      </trkpt>
      <trkpt lat="47.71191" lon="0.38851">
        <ele>79.2</ele>
        <time>2016-06-17T06:42:10Z</time>
      </trkpt>
      <trkpt lat="47.71191" lon="0.38837">
        <ele>78.5</ele>
        <time>2016-06-17T06:42:18Z</time>
      </trkpt>
      <trkpt lat="47.71191" lon="0.38822">
        <ele>79.2</ele>
        <time>2016-06-17T06:42:26Z</time>
      </trkpt>
      <trkpt lat="47.71193" lon="0.38809">
        <ele>79.6</ele>
        <time>2016-06-17T06:42:33Z</time>
      </trkpt>
      <trkpt lat="47.71193" lon="0.38794">
        <ele>80.1</ele>
        <time>2016-06-17T06:42:40Z</time>
      </trkpt>
      <trkpt lat="47.71194" lon="0.38779">
        <ele>79.9</ele>
        <time>2016-06-17T06:42:48Z</time>
      </trkpt>
      <trkpt lat="47.71196" lon="0.38765">
        <ele>79.7</ele>
        <time>2016-06-17T06:42:56Z</time>
      </trkpt>
      <trkpt lat="47.71196" lon="0.3875">
        <ele>80.2</ele>
        <time>2016-06-17T06:43:04Z</time>
      </trkpt>
      <trkpt lat="47.71195" lon="0.38736">
        <ele>80.3</ele>
        <time>2016-06-17T06:43:11Z</time>
      </trkpt>
      <trkpt lat="47.71195" lon="0.38722">
        <ele>80.5</ele>
        <time>2016-06-17T06:43:18Z</time>
      </trkpt>
      <trkpt lat="47.71196" lon="0.38708">
        <ele>81.2</ele>
        <time>2016-06-17T06:43:25Z</time>
      </trkpt>
      <trkpt lat="47.71196" lon="0.38695">
        <ele>80.6</ele>
        <time>2016-06-17T06:43:32Z</time>
      </trkpt>
      <trkpt lat="47.71196" lon="0.38681">
        <ele>80.3</ele>
        <time>2016-06-17T06:43:39Z</time>
      </trkpt>
      <trkpt lat="47.71197" lon="0.38667">
        <ele>80.2</ele>
        <time>2016-06-17T06:43:46Z</time>
      </trkpt>
      <trkpt lat="47.71196" lon="0.38652">
        <ele>79</ele>
        <time>2016-06-17T06:43:54Z</time>
      </trkpt>
      <trkpt lat="47.71198" lon="0.38639">
        <ele>79.5</ele>
        <time>2016-06-17T06:44:01Z</time>
      </trkpt>
      <trkpt lat="47.712" lon="0.38624">
        <ele>79.8</ele>
        <time>2016-06-17T06:44:08Z</time>
      </trkpt>
      <trkpt lat="47.712" lon="0.38611">
        <ele>80</ele>
        <time>2016-06-17T06:44:15Z</time>
      </trkpt>
      <trkpt lat="47.71201" lon="0.38597">
        <ele>80.3</ele>
        <time>2016-06-17T06:44:23Z</time>
      </trkpt>
      <trkpt lat="47.712" lon="0.38583">
        <ele>80</ele>
        <time>2016-06-17T06:44:30Z</time>
      </trkpt>
      <trkpt lat="47.71201" lon="0.38568">
        <ele>80.4</ele>
        <time>2016-06-17T06:44:37Z</time>
      </trkpt>
      <trkpt lat="47.71205" lon="0.38554">
        <ele>80.1</ele>
        <time>2016-06-17T06:44:44Z</time>
      </trkpt>
      <trkpt lat="47.71208" lon="0.38541">
        <ele>80</ele>
        <time>2016-06-17T06:44:51Z</time>
      </trkpt>
      <trkpt lat="47.71211" lon="0.38527">
        <ele>81.2</ele>
        <time>2016-06-17T06:44:58Z</time>
      </trkpt>
      <trkpt lat="47.71216" lon="0.38515">
        <ele>81.8</ele>
        <time>2016-06-17T06:45:05Z</time>
      </trkpt>
      <trkpt lat="47.71221" lon="0.38503">
        <ele>81.7</ele>
        <time>2016-06-17T06:45:12Z</time>
      </trkpt>
      <trkpt lat="47.71225" lon="0.3849">
        <ele>82.2</ele>
        <time>2016-06-17T06:45:20Z</time>
      </trkpt>
      <trkpt lat="47.71226" lon="0.38475">
        <ele>82.7</ele>
        <time>2016-06-17T06:45:38Z</time>
      </trkpt>
      <trkpt lat="47.71225" lon="0.38462">
        <ele>82.1</ele>
        <time>2016-06-17T06:45:45Z</time>
      </trkpt>
      <trkpt lat="47.71223" lon="0.38447">
        <ele>83.6</ele>
        <time>2016-06-17T06:45:53Z</time>
      </trkpt>
      <trkpt lat="47.71221" lon="0.38432">
        <ele>84.1</ele>
        <time>2016-06-17T06:46:01Z</time>
      </trkpt>
      <trkpt lat="47.7122" lon="0.38418">
        <ele>84.8</ele>
        <time>2016-06-17T06:46:09Z</time>
      </trkpt>
      <trkpt lat="47.71218" lon="0.38403">
        <ele>84.6</ele>
        <time>2016-06-17T06:46:17Z</time>
      </trkpt>
      <trkpt lat="47.71216" lon="0.38389">
        <ele>84.5</ele>
        <time>2016-06-17T06:46:24Z</time>
      </trkpt>
      <trkpt lat="47.71214" lon="0.38375">
        <ele>84.6</ele>
        <time>2016-06-17T06:46:31Z</time>
      </trkpt>
      <trkpt lat="47.71211" lon="0.38362">
        <ele>83.8</ele>
        <time>2016-06-17T06:46:38Z</time>
      </trkpt>
      <trkpt lat="47.71208" lon="0.38349">
        <ele>83.8</ele>
        <time>2016-06-17T06:46:45Z</time>
      </trkpt>
      <trkpt lat="47.71207" lon="0.38334">
        <ele>83.3</ele>
        <time>2016-06-17T06:46:52Z</time>
      </trkpt>
      <trkpt lat="47.71204" lon="0.3832">
        <ele>84.8</ele>
        <time>2016-06-17T06:47:00Z</time>
      </trkpt>
      <trkpt lat="47.71201" lon="0.38306">
        <ele>83.9</ele>
        <time>2016-06-17T06:47:08Z</time>
      </trkpt>
      <trkpt lat="47.712" lon="0.38293">
        <ele>83.6</ele>
        <time>2016-06-17T06:47:15Z</time>
      </trkpt>
      <trkpt lat="47.71198" lon="0.38277">
        <ele>83.8</ele>
        <time>2016-06-17T06:47:23Z</time>
      </trkpt>
      <trkpt lat="47.71196" lon="0.38263">
        <ele>84.9</ele>
        <time>2016-06-17T06:47:30Z</time>
      </trkpt>
      <trkpt lat="47.71192" lon="0.3825">
        <ele>84.1</ele>
        <time>2016-06-17T06:47:37Z</time>
      </trkpt>
      <trkpt lat="47.71188" lon="0.38237">
        <ele>84.8</ele>
        <time>2016-06-17T06:47:44Z</time>
      </trkpt>
      <trkpt lat="47.71184" lon="0.38224">
        <ele>83.8</ele>
        <time>2016-06-17T06:47:51Z</time>
      </trkpt>
      <trkpt lat="47.71181" lon="0.38211">
        <ele>83.1</ele>
        <time>2016-06-17T06:47:58Z</time>
      </trkpt>
      <trkpt lat="47.71177" lon="0.38198">
        <ele>84.1</ele>
        <time>2016-06-17T06:48:06Z</time>
      </trkpt>
      <trkpt lat="47.71174" lon="0.38184">
        <ele>84.5</ele>
        <time>2016-06-17T06:48:14Z</time>
      </trkpt>
      <trkpt lat="47.7117" lon="0.3817">
        <ele>84.7</ele>
        <time>2016-06-17T06:48:21Z</time>
      </trkpt>
      <trkpt lat="47.71167" lon="0.38157">
        <ele>85.1</ele>
        <time>2016-06-17T06:48:28Z</time>
      </trkpt>
      <trkpt lat="47.71163" lon="0.38143">
        <ele>83.9</ele>
        <time>2016-06-17T06:48:36Z</time>
      </trkpt>
      <trkpt lat="47.7116" lon="0.38129">
        <ele>85.1</ele>
        <time>2016-06-17T06:48:44Z</time>
      </trkpt>
      <trkpt lat="47.71157" lon="0.38115">
        <ele>85.6</ele>
        <time>2016-06-17T06:48:52Z</time>
      </trkpt>
      <trkpt lat="47.71153" lon="0.38102">
        <ele>86.4</ele>
        <time>2016-06-17T06:49:00Z</time>
      </trkpt>
      <trkpt lat="47.71148" lon="0.38088">
        <ele>87</ele>
        <time>2016-06-17T06:49:09Z</time>
      </trkpt>
      <trkpt lat="47.71143" lon="0.38076">
        <ele>87.9</ele>
        <time>2016-06-17T06:49:17Z</time>
      </trkpt>
      <trkpt lat="47.71137" lon="0.38065">
        <ele>87.9</ele>
        <time>2016-06-17T06:49:25Z</time>
      </trkpt>
      <trkpt lat="47.71131" lon="0.38054">
        <ele>88</ele>
        <time>2016-06-17T06:49:33Z</time>
      </trkpt>
      <trkpt lat="47.71125" lon="0.38042">
        <ele>89.1</ele>
        <time>2016-06-17T06:49:41Z</time>
      </trkpt>
      <trkpt lat="47.71119" lon="0.3803">
        <ele>89.8</ele>
        <time>2016-06-17T06:49:49Z</time>
      </trkpt>
      <trkpt lat="47.71113" lon="0.38018">
        <ele>90.7</ele>
        <time>2016-06-17T06:49:58Z</time>
      </trkpt>
      <trkpt lat="47.71107" lon="0.38009">
        <ele>91.5</ele>
        <time>2016-06-17T06:50:06Z</time>
      </trkpt>
      <trkpt lat="47.71099" lon="0.37999">
        <ele>92.2</ele>
        <time>2016-06-17T06:50:14Z</time>
      </trkpt>
      <trkpt lat="47.71092" lon="0.37988">
        <ele>92.3</ele>
        <time>2016-06-17T06:50:23Z</time>
      </trkpt>
      <trkpt lat="47.71084" lon="0.3798">
        <ele>92.5</ele>
        <time>2016-06-17T06:50:32Z</time>
      </trkpt>
      <trkpt lat="47.71076" lon="0.37974">
        <ele>92.3</ele>
        <time>2016-06-17T06:50:41Z</time>
      </trkpt>
      <trkpt lat="47.71068" lon="0.37966">
        <ele>91.4</ele>
        <time>2016-06-17T06:50:49Z</time>
      </trkpt>
      <trkpt lat="47.71061" lon="0.37957">
        <ele>92.1</ele>
        <time>2016-06-17T06:50:56Z</time>
      </trkpt>
      <trkpt lat="47.71056" lon="0.37944">
        <ele>91.8</ele>
        <time>2016-06-17T06:51:04Z</time>
      </trkpt>
      <trkpt lat="47.71055" lon="0.3793">
        <ele>93</ele>
        <time>2016-06-17T06:51:11Z</time>
      </trkpt>
      <trkpt lat="47.71056" lon="0.37916">
        <ele>92.4</ele>
        <time>2016-06-17T06:51:18Z</time>
      </trkpt>
      <trkpt lat="47.71054" lon="0.37902">
        <ele>93.2</ele>
        <time>2016-06-17T06:51:27Z</time>
      </trkpt>
      <trkpt lat="47.71052" lon="0.37889">
        <ele>92.4</ele>
        <time>2016-06-17T06:51:44Z</time>
      </trkpt>
      <trkpt lat="47.71049" lon="0.37875">
        <ele>92.1</ele>
        <time>2016-06-17T06:52:03Z</time>
      </trkpt>
      <trkpt lat="47.71047" lon="0.37861">
        <ele>92</ele>
        <time>2016-06-17T06:52:11Z</time>
      </trkpt>
      <trkpt lat="47.71047" lon="0.37847">
        <ele>92.1</ele>
        <time>2016-06-17T06:52:18Z</time>
      </trkpt>
      <trkpt lat="47.71048" lon="0.37834">
        <ele>92.5</ele>
        <time>2016-06-17T06:52:26Z</time>
      </trkpt>
      <trkpt lat="47.71054" lon="0.37823">
        <ele>93.1</ele>
        <time>2016-06-17T06:52:33Z</time>
      </trkpt>
      <trkpt lat="47.71061" lon="0.37814">
        <ele>93.8</ele>
        <time>2016-06-17T06:52:42Z</time>
      </trkpt>
      <trkpt lat="47.71069" lon="0.37807">
        <ele>94.6</ele>
        <time>2016-06-17T06:52:51Z</time>
      </trkpt>
      <trkpt lat="47.71076" lon="0.37797">
        <ele>95.7</ele>
        <time>2016-06-17T06:53:00Z</time>
      </trkpt>
      <trkpt lat="47.71084" lon="0.37789">
        <ele>96.5</ele>
        <time>2016-06-17T06:53:09Z</time>
      </trkpt>
      <trkpt lat="47.71092" lon="0.3778">
        <ele>97.8</ele>
        <time>2016-06-17T06:53:18Z</time>
      </trkpt>
      <trkpt lat="47.71099" lon="0.37772">
        <ele>98.9</ele>
        <time>2016-06-17T06:53:26Z</time>
      </trkpt>
      <trkpt lat="47.71105" lon="0.37761">
        <ele>99</ele>
        <time>2016-06-17T06:53:35Z</time>
      </trkpt>
      <trkpt lat="47.71107" lon="0.37748">
        <ele>99.1</ele>
        <time>2016-06-17T06:54:28Z</time>
      </trkpt>
      <trkpt lat="47.71104" lon="0.37735">
        <ele>99.3</ele>
        <time>2016-06-17T06:54:35Z</time>
      </trkpt>
      <trkpt lat="47.71101" lon="0.37723">
        <ele>99.6</ele>
        <time>2016-06-17T06:54:43Z</time>
      </trkpt>
      <trkpt lat="47.71097" lon="0.3771">
        <ele>100.2</ele>
        <time>2016-06-17T06:54:52Z</time>
      </trkpt>
      <trkpt lat="47.71093" lon="0.37698">
        <ele>100.8</ele>
        <time>2016-06-17T06:54:59Z</time>
      </trkpt>
      <trkpt lat="47.7109" lon="0.37686">
        <ele>101.3</ele>
        <time>2016-06-17T06:55:06Z</time>
      </trkpt>
      <trkpt lat="47.71085" lon="0.37673">
        <ele>101.5</ele>
        <time>2016-06-17T06:55:14Z</time>
      </trkpt>
      <trkpt lat="47.71082" lon="0.37659">
        <ele>102.4</ele>
        <time>2016-06-17T06:55:22Z</time>
      </trkpt>
      <trkpt lat="47.71078" lon="0.37648">
        <ele>102.9</ele>
        <time>2016-06-17T06:55:30Z</time>
      </trkpt>
      <trkpt lat="47.71073" lon="0.37634">
        <ele>103.5</ele>
        <time>2016-06-17T06:55:39Z</time>
      </trkpt>
      <trkpt lat="47.71067" lon="0.37623">
        <ele>104</ele>
        <time>2016-06-17T06:55:47Z</time>
      </trkpt>
      <trkpt lat="47.71063" lon="0.3761">
        <ele>105</ele>
        <time>2016-06-17T06:56:10Z</time>
      </trkpt>
      <trkpt lat="47.71056" lon="0.376">
        <ele>105.5</ele>
        <time>2016-06-17T06:56:17Z</time>
      </trkpt>
      <trkpt lat="47.7105" lon="0.37588">
        <ele>105.9</ele>
        <time>2016-06-17T06:56:25Z</time>
      </trkpt>
      <trkpt lat="47.71043" lon="0.37578">
        <ele>106.4</ele>
        <time>2016-06-17T06:56:32Z</time>
      </trkpt>
      <trkpt lat="47.71042" lon="0.37564">
        <ele>106.8</ele>
        <time>2016-06-17T06:56:40Z</time>
      </trkpt>
      <trkpt lat="47.7104" lon="0.3755">
        <ele>107.3</ele>
        <time>2016-06-17T06:56:49Z</time>
      </trkpt>
      <trkpt lat="47.71042" lon="0.37536">
        <ele>107.8</ele>
        <time>2016-06-17T06:56:57Z</time>
      </trkpt>
      <trkpt lat="47.71037" lon="0.37523">
        <ele>108.1</ele>
        <time>2016-06-17T06:57:05Z</time>
      </trkpt>
      <trkpt lat="47.71036" lon="0.3751">
        <ele>108.3</ele>
        <time>2016-06-17T06:57:12Z</time>
      </trkpt>
      <trkpt lat="47.71036" lon="0.37496">
        <ele>109.1</ele>
        <time>2016-06-17T06:57:19Z</time>
      </trkpt>
      <trkpt lat="47.71031" lon="0.37483">
        <ele>109.5</ele>
        <time>2016-06-17T06:57:28Z</time>
      </trkpt>
      <trkpt lat="47.7103" lon="0.37469">
        <ele>109.9</ele>
        <time>2016-06-17T06:57:35Z</time>
      </trkpt>
      <trkpt lat="47.71023" lon="0.37459">
        <ele>111</ele>
        <time>2016-06-17T06:57:42Z</time>
      </trkpt>
      <trkpt lat="47.71016" lon="0.37448">
        <ele>112</ele>
        <time>2016-06-17T06:58:54Z</time>
      </trkpt>
      <trkpt lat="47.71011" lon="0.37436">
        <ele>112.3</ele>
        <time>2016-06-17T06:59:02Z</time>
      </trkpt>
      <trkpt lat="47.71005" lon="0.37425">
        <ele>112.3</ele>
        <time>2016-06-17T06:59:09Z</time>
      </trkpt>
      <trkpt lat="47.71002" lon="0.37413">
        <ele>113</ele>
        <time>2016-06-17T06:59:16Z</time>
      </trkpt>
      <trkpt lat="47.71" lon="0.37399">
        <ele>113.4</ele>
        <time>2016-06-17T07:00:14Z</time>
      </trkpt>
      <trkpt lat="47.70996" lon="0.37386">
        <ele>113.6</ele>
        <time>2016-06-17T07:00:22Z</time>
      </trkpt>
      <trkpt lat="47.70993" lon="0.37373">
        <ele>114.4</ele>
        <time>2016-06-17T07:00:29Z</time>
      </trkpt>
      <trkpt lat="47.7099" lon="0.37359">
        <ele>114.6</ele>
        <time>2016-06-17T07:00:37Z</time>
      </trkpt>
      <trkpt lat="47.70986" lon="0.37346">
        <ele>115.5</ele>
        <time>2016-06-17T07:00:45Z</time>
      </trkpt>
      <trkpt lat="47.70989" lon="0.37333">
        <ele>114.6</ele>
        <time>2016-06-17T07:01:20Z</time>
      </trkpt>
      <trkpt lat="47.70979" lon="0.37332">
        <ele>114.3</ele>
        <time>2016-06-17T07:03:16Z</time>
      </trkpt>
      <trkpt lat="47.70976" lon="0.37319">
        <ele>113.6</ele>
        <time>2016-06-17T07:03:50Z</time>
      </trkpt>
      <trkpt lat="47.70973" lon="0.37304">
        <ele>114.5</ele>
        <time>2016-06-17T07:03:57Z</time>
      </trkpt>
      <trkpt lat="47.70974" lon="0.37291">
        <ele>115.1</ele>
        <time>2016-06-17T07:04:04Z</time>
      </trkpt>
      <trkpt lat="47.70971" lon="0.37277">
        <ele>116.3</ele>
        <time>2016-06-17T07:04:11Z</time>
      </trkpt>
      <trkpt lat="47.70966" lon="0.37265">
        <ele>116</ele>
        <time>2016-06-17T07:04:18Z</time>
      </trkpt>
      <trkpt lat="47.70961" lon="0.37251">
        <ele>115.8</ele>
        <time>2016-06-17T07:04:24Z</time>
      </trkpt>
      <trkpt lat="47.70957" lon="0.3724">
        <ele>115.5</ele>
        <time>2016-06-17T07:04:30Z</time>
      </trkpt>
      <trkpt lat="47.70955" lon="0.37226">
        <ele>116.1</ele>
        <time>2016-06-17T07:04:36Z</time>
      </trkpt>
      <trkpt lat="47.70952" lon="0.37213">
        <ele>116.4</ele>
        <time>2016-06-17T07:04:43Z</time>
      </trkpt>
      <trkpt lat="47.70946" lon="0.37203">
        <ele>116.5</ele>
        <time>2016-06-17T07:04:50Z</time>
      </trkpt>
      <trkpt lat="47.7094" lon="0.37191">
        <ele>116.1</ele>
        <time>2016-06-17T07:04:57Z</time>
      </trkpt>
      <trkpt lat="47.70934" lon="0.3718">
        <ele>116.2</ele>
        <time>2016-06-17T07:05:04Z</time>
      </trkpt>
      <trkpt lat="47.7093" lon="0.37166">
        <ele>116.2</ele>
        <time>2016-06-17T07:05:11Z</time>
      </trkpt>
      <trkpt lat="47.70927" lon="0.37153">
        <ele>115.3</ele>
        <time>2016-06-17T07:05:16Z</time>
      </trkpt>
      <trkpt lat="47.70928" lon="0.37139">
        <ele>116.5</ele>
        <time>2016-06-17T07:05:23Z</time>
      </trkpt>
      <trkpt lat="47.70924" lon="0.37127">
        <ele>116.2</ele>
        <time>2016-06-17T07:05:30Z</time>
      </trkpt>
      <trkpt lat="47.70919" lon="0.37115">
        <ele>116.9</ele>
        <time>2016-06-17T07:05:38Z</time>
      </trkpt>
      <trkpt lat="47.70915" lon="0.37103">
        <ele>116.3</ele>
        <time>2016-06-17T07:05:44Z</time>
      </trkpt>
      <trkpt lat="47.70909" lon="0.37092">
        <ele>117</ele>
        <time>2016-06-17T07:05:49Z</time>
      </trkpt>
      <trkpt lat="47.70906" lon="0.37077">
        <ele>117.6</ele>
        <time>2016-06-17T07:05:56Z</time>
      </trkpt>
      <trkpt lat="47.70901" lon="0.37063">
        <ele>117.4</ele>
        <time>2016-06-17T07:06:03Z</time>
      </trkpt>
      <trkpt lat="47.70898" lon="0.37051">
        <ele>117</ele>
        <time>2016-06-17T07:06:08Z</time>
      </trkpt>
      <trkpt lat="47.70896" lon="0.37037">
        <ele>117</ele>
        <time>2016-06-17T07:06:15Z</time>
      </trkpt>
      <trkpt lat="47.70893" lon="0.37023">
        <ele>116.8</ele>
        <time>2016-06-17T07:06:22Z</time>
      </trkpt>
      <trkpt lat="47.7089" lon="0.37009">
        <ele>117.2</ele>
        <time>2016-06-17T07:06:29Z</time>
      </trkpt>
      <trkpt lat="47.70884" lon="0.36999">
        <ele>116.6</ele>
        <time>2016-06-17T07:06:36Z</time>
      </trkpt>
      <trkpt lat="47.7088" lon="0.36986">
        <ele>116</ele>
        <time>2016-06-17T07:06:42Z</time>
      </trkpt>
      <trkpt lat="47.70873" lon="0.36976">
        <ele>115.6</ele>
        <time>2016-06-17T07:06:47Z</time>
      </trkpt>
      <trkpt lat="47.70867" lon="0.36964">
        <ele>115.8</ele>
        <time>2016-06-17T07:06:53Z</time>
      </trkpt>
      <trkpt lat="47.70861" lon="0.36952">
        <ele>115.5</ele>
        <time>2016-06-17T07:06:59Z</time>
      </trkpt>
      <trkpt lat="47.70855" lon="0.36941">
        <ele>115.5</ele>
        <time>2016-06-17T07:07:05Z</time>
      </trkpt>
      <trkpt lat="47.7085" lon="0.36928">
        <ele>115.3</ele>
        <time>2016-06-17T07:07:11Z</time>
      </trkpt>
      <trkpt lat="47.70846" lon="0.36916">
        <ele>114.2</ele>
        <time>2016-06-17T07:07:17Z</time>
      </trkpt>
      <trkpt lat="47.70841" lon="0.36904">
        <ele>114.4</ele>
        <time>2016-06-17T07:07:24Z</time>
      </trkpt>
      <trkpt lat="47.70838" lon="0.3689">
        <ele>114.3</ele>
        <time>2016-06-17T07:07:31Z</time>
      </trkpt>
      <trkpt lat="47.70834" lon="0.36876">
        <ele>113.1</ele>
        <time>2016-06-17T07:07:39Z</time>
      </trkpt>
      <trkpt lat="47.70833" lon="0.36861">
        <ele>112.4</ele>
        <time>2016-06-17T07:07:47Z</time>
      </trkpt>
      <trkpt lat="47.70831" lon="0.36847">
        <ele>112.3</ele>
        <time>2016-06-17T07:07:55Z</time>
      </trkpt>
      <trkpt lat="47.70826" lon="0.36835">
        <ele>111.6</ele>
        <time>2016-06-17T07:08:02Z</time>
      </trkpt>
      <trkpt lat="47.70825" lon="0.36821">
        <ele>110.7</ele>
        <time>2016-06-17T07:08:09Z</time>
      </trkpt>
      <trkpt lat="47.70818" lon="0.36813">
        <ele>110.3</ele>
        <time>2016-06-17T07:08:14Z</time>
      </trkpt>
      <trkpt lat="47.70811" lon="0.36801">
        <ele>110.2</ele>
        <time>2016-06-17T07:08:22Z</time>
      </trkpt>
      <trkpt lat="47.70809" lon="0.36787">
        <ele>109.9</ele>
        <time>2016-06-17T07:08:30Z</time>
      </trkpt>
      <trkpt lat="47.70807" lon="0.36774">
        <ele>109.6</ele>
        <time>2016-06-17T07:08:38Z</time>
      </trkpt>
      <trkpt lat="47.708" lon="0.36765">
        <ele>109.3</ele>
        <time>2016-06-17T07:08:44Z</time>
      </trkpt>
      <trkpt lat="47.70792" lon="0.36755">
        <ele>108.8</ele>
        <time>2016-06-17T07:08:51Z</time>
      </trkpt>
      <trkpt lat="47.70785" lon="0.36747">
        <ele>108.8</ele>
        <time>2016-06-17T07:08:59Z</time>
      </trkpt>
      <trkpt lat="47.70777" lon="0.36739">
        <ele>108.6</ele>
        <time>2016-06-17T07:09:06Z</time>
      </trkpt>
      <trkpt lat="47.70769" lon="0.36733">
        <ele>107.8</ele>
        <time>2016-06-17T07:09:13Z</time>
      </trkpt>
      <trkpt lat="47.7076" lon="0.36727">
        <ele>108.3</ele>
        <time>2016-06-17T07:09:21Z</time>
      </trkpt>
      <trkpt lat="47.70752" lon="0.36719">
        <ele>108.8</ele>
        <time>2016-06-17T07:09:30Z</time>
      </trkpt>
      <trkpt lat="47.70743" lon="0.36714">
        <ele>109.1</ele>
        <time>2016-06-17T07:09:39Z</time>
      </trkpt>
      <trkpt lat="47.70734" lon="0.36708">
        <ele>110.5</ele>
        <time>2016-06-17T07:09:49Z</time>
      </trkpt>
      <trkpt lat="47.70725" lon="0.36701">
        <ele>111.3</ele>
        <time>2016-06-17T07:09:57Z</time>
      </trkpt>
      <trkpt lat="47.70717" lon="0.36694">
        <ele>111.5</ele>
        <time>2016-06-17T07:10:06Z</time>
      </trkpt>
      <trkpt lat="47.70718" lon="0.3668">
        <ele>112</ele>
        <time>2016-06-17T07:11:33Z</time>
      </trkpt>
      <trkpt lat="47.70718" lon="0.36666">
        <ele>112.3</ele>
        <time>2016-06-17T07:11:39Z</time>
      </trkpt>
      <trkpt lat="47.70721" lon="0.36652">
        <ele>112.7</ele>
        <time>2016-06-17T07:11:46Z</time>
      </trkpt>
      <trkpt lat="47.70722" lon="0.36638">
        <ele>112.7</ele>
        <time>2016-06-17T07:11:53Z</time>
      </trkpt>
      <trkpt lat="47.70724" lon="0.36624">
        <ele>112.5</ele>
        <time>2016-06-17T07:12:00Z</time>
      </trkpt>
      <trkpt lat="47.70727" lon="0.3661">
        <ele>113.2</ele>
        <time>2016-06-17T07:12:07Z</time>
      </trkpt>
      <trkpt lat="47.70728" lon="0.36597">
        <ele>113.3</ele>
        <time>2016-06-17T07:12:14Z</time>
      </trkpt>
      <trkpt lat="47.7073" lon="0.36583">
        <ele>113.1</ele>
        <time>2016-06-17T07:12:21Z</time>
      </trkpt>
      <trkpt lat="47.70733" lon="0.36569">
        <ele>113.7</ele>
        <time>2016-06-17T07:12:29Z</time>
      </trkpt>
      <trkpt lat="47.70735" lon="0.36556">
        <ele>113.2</ele>
        <time>2016-06-17T07:12:36Z</time>
      </trkpt>
      <trkpt lat="47.70737" lon="0.36542">
        <ele>113.7</ele>
        <time>2016-06-17T07:12:44Z</time>
      </trkpt>
      <trkpt lat="47.70739" lon="0.36529">
        <ele>114.1</ele>
        <time>2016-06-17T07:12:51Z</time>
      </trkpt>
      <trkpt lat="47.7074" lon="0.36516">
        <ele>114.2</ele>
        <time>2016-06-17T07:12:58Z</time>
      </trkpt>
      <trkpt lat="47.70742" lon="0.36502">
        <ele>114.9</ele>
        <time>2016-06-17T07:13:06Z</time>
      </trkpt>
      <trkpt lat="47.70745" lon="0.36489">
        <ele>115.7</ele>
        <time>2016-06-17T07:13:13Z</time>
      </trkpt>
      <trkpt lat="47.7075" lon="0.36477">
        <ele>115.8</ele>
        <time>2016-06-17T07:13:20Z</time>
      </trkpt>
      <trkpt lat="47.70755" lon="0.36466">
        <ele>116.6</ele>
        <time>2016-06-17T07:13:27Z</time>
      </trkpt>
      <trkpt lat="47.70762" lon="0.36456">
        <ele>115.6</ele>
        <time>2016-06-17T07:13:35Z</time>
      </trkpt>
      <trkpt lat="47.70771" lon="0.36451">
        <ele>115.6</ele>
        <time>2016-06-17T07:13:43Z</time>
      </trkpt>
      <trkpt lat="47.7078" lon="0.36446">
        <ele>115.1</ele>
        <time>2016-06-17T07:13:52Z</time>
      </trkpt>
      <trkpt lat="47.70789" lon="0.36443">
        <ele>115.8</ele>
        <time>2016-06-17T07:14:00Z</time>
      </trkpt>
      <trkpt lat="47.70798" lon="0.3644">
        <ele>115.8</ele>
        <time>2016-06-17T07:14:07Z</time>
      </trkpt>
      <trkpt lat="47.70809" lon="0.3644">
        <ele>115.7</ele>
        <time>2016-06-17T07:14:16Z</time>
      </trkpt>
      <trkpt lat="47.70818" lon="0.36436">
        <ele>116</ele>
        <time>2016-06-17T07:14:24Z</time>
      </trkpt>
      <trkpt lat="47.70827" lon="0.36434">
        <ele>115.5</ele>
        <time>2016-06-17T07:14:31Z</time>
      </trkpt>
      <trkpt lat="47.70836" lon="0.36431">
        <ele>115.6</ele>
        <time>2016-06-17T07:14:39Z</time>
      </trkpt>
      <trkpt lat="47.70845" lon="0.36426">
        <ele>115.3</ele>
        <time>2016-06-17T07:14:46Z</time>
      </trkpt>
      <trkpt lat="47.70854" lon="0.36423">
        <ele>116.4</ele>
        <time>2016-06-17T07:14:53Z</time>
      </trkpt>
      <trkpt lat="47.70863" lon="0.3642">
        <ele>116.5</ele>
        <time>2016-06-17T07:15:01Z</time>
      </trkpt>
      <trkpt lat="47.70872" lon="0.36414">
        <ele>117</ele>
        <time>2016-06-17T07:15:08Z</time>
      </trkpt>
      <trkpt lat="47.7088" lon="0.36408">
        <ele>117</ele>
        <time>2016-06-17T07:15:15Z</time>
      </trkpt>
      <trkpt lat="47.7089" lon="0.36403">
        <ele>117.5</ele>
        <time>2016-06-17T07:15:23Z</time>
      </trkpt>
      <trkpt lat="47.70899" lon="0.36398">
        <ele>118.2</ele>
        <time>2016-06-17T07:15:31Z</time>
      </trkpt>
      <trkpt lat="47.70909" lon="0.36394">
        <ele>116.5</ele>
        <time>2016-06-17T07:15:39Z</time>
      </trkpt>
      <trkpt lat="47.70918" lon="0.36391">
        <ele>117.5</ele>
        <time>2016-06-17T07:15:47Z</time>
      </trkpt>
      <trkpt lat="47.70928" lon="0.36387">
        <ele>118</ele>
        <time>2016-06-17T07:15:55Z</time>
      </trkpt>
      <trkpt lat="47.70937" lon="0.36384">
        <ele>117.7</ele>
        <time>2016-06-17T07:16:02Z</time>
      </trkpt>
      <trkpt lat="47.70946" lon="0.36381">
        <ele>118.4</ele>
        <time>2016-06-17T07:16:09Z</time>
      </trkpt>
      <trkpt lat="47.70955" lon="0.36377">
        <ele>118.6</ele>
        <time>2016-06-17T07:16:16Z</time>
      </trkpt>
      <trkpt lat="47.70965" lon="0.36374">
        <ele>118.9</ele>
        <time>2016-06-17T07:16:34Z</time>
      </trkpt>
      <trkpt lat="47.70973" lon="0.36369">
        <ele>118.6</ele>
        <time>2016-06-17T07:16:41Z</time>
      </trkpt>
      <trkpt lat="47.70984" lon="0.36368">
        <ele>118.3</ele>
        <time>2016-06-17T07:16:49Z</time>
      </trkpt>
      <trkpt lat="47.70992" lon="0.36364">
        <ele>119</ele>
        <time>2016-06-17T07:16:56Z</time>
      </trkpt>
      <trkpt lat="47.71002" lon="0.36361">
        <ele>119.5</ele>
        <time>2016-06-17T07:17:03Z</time>
      </trkpt>
      <trkpt lat="47.71011" lon="0.36357">
        <ele>120.3</ele>
        <time>2016-06-17T07:17:10Z</time>
      </trkpt>
      <trkpt lat="47.7102" lon="0.36354">
        <ele>119.5</ele>
        <time>2016-06-17T07:17:18Z</time>
      </trkpt>
      <trkpt lat="47.7103" lon="0.36349">
        <ele>120.4</ele>
        <time>2016-06-17T07:17:26Z</time>
      </trkpt>
      <trkpt lat="47.71039" lon="0.36346">
        <ele>120.3</ele>
        <time>2016-06-17T07:17:33Z</time>
      </trkpt>
      <trkpt lat="47.71048" lon="0.36342">
        <ele>122.4</ele>
        <time>2016-06-17T07:17:41Z</time>
      </trkpt>
      <trkpt lat="47.71058" lon="0.3634">
        <ele>121.6</ele>
        <time>2016-06-17T07:17:49Z</time>
      </trkpt>
      <trkpt lat="47.71067" lon="0.36335">
        <ele>122.8</ele>
        <time>2016-06-17T07:17:57Z</time>
      </trkpt>
      <trkpt lat="47.71075" lon="0.36332">
        <ele>122.1</ele>
        <time>2016-06-17T07:18:04Z</time>
      </trkpt>
      <trkpt lat="47.71085" lon="0.36329">
        <ele>122.4</ele>
        <time>2016-06-17T07:18:12Z</time>
      </trkpt>
      <trkpt lat="47.71094" lon="0.36324">
        <ele>123</ele>
        <time>2016-06-17T07:18:20Z</time>
      </trkpt>
      <trkpt lat="47.71103" lon="0.36319">
        <ele>123.4</ele>
        <time>2016-06-17T07:18:28Z</time>
      </trkpt>
      <trkpt lat="47.71113" lon="0.36315">
        <ele>123.3</ele>
        <time>2016-06-17T07:18:36Z</time>
      </trkpt>
      <trkpt lat="47.71121" lon="0.3631">
        <ele>122.9</ele>
        <time>2016-06-17T07:19:11Z</time>
      </trkpt>
      <trkpt lat="47.7113" lon="0.36305">
        <ele>123.2</ele>
        <time>2016-06-17T07:19:18Z</time>
      </trkpt>
      <trkpt lat="47.71139" lon="0.36301">
        <ele>122.8</ele>
        <time>2016-06-17T07:19:25Z</time>
      </trkpt>
      <trkpt lat="47.71148" lon="0.36296">
        <ele>122.8</ele>
        <time>2016-06-17T07:19:32Z</time>
      </trkpt>
      <trkpt lat="47.71157" lon="0.36291">
        <ele>122.5</ele>
        <time>2016-06-17T07:19:39Z</time>
      </trkpt>
      <trkpt lat="47.71165" lon="0.36286">
        <ele>122.3</ele>
        <time>2016-06-17T07:19:47Z</time>
      </trkpt>
      <trkpt lat="47.71174" lon="0.36282">
        <ele>122.4</ele>
        <time>2016-06-17T07:19:56Z</time>
      </trkpt>
      <trkpt lat="47.71184" lon="0.36278">
        <ele>122.4</ele>
        <time>2016-06-17T07:20:07Z</time>
      </trkpt>
      <trkpt lat="47.71193" lon="0.36273">
        <ele>122.4</ele>
        <time>2016-06-17T07:20:16Z</time>
      </trkpt>
      <trkpt lat="47.71202" lon="0.3627">
        <ele>122.4</ele>
        <time>2016-06-17T07:20:24Z</time>
      </trkpt>
      <trkpt lat="47.71211" lon="0.36265">
        <ele>122.8</ele>
        <time>2016-06-17T07:20:32Z</time>
      </trkpt>
      <trkpt lat="47.71221" lon="0.3626">
        <ele>122.5</ele>
        <time>2016-06-17T07:20:40Z</time>
      </trkpt>
      <trkpt lat="47.71231" lon="0.36256">
        <ele>122.9</ele>
        <time>2016-06-17T07:20:47Z</time>
      </trkpt>
      <trkpt lat="47.71239" lon="0.36254">
        <ele>122.9</ele>
        <time>2016-06-17T07:20:53Z</time>
      </trkpt>
      <trkpt lat="47.71249" lon="0.36249">
        <ele>122.9</ele>
        <time>2016-06-17T07:21:00Z</time>
      </trkpt>
      <trkpt lat="47.71257" lon="0.36244">
        <ele>123</ele>
        <time>2016-06-17T07:21:07Z</time>
      </trkpt>
      <trkpt lat="47.71267" lon="0.36242">
        <ele>122.9</ele>
        <time>2016-06-17T07:21:16Z</time>
      </trkpt>
      <trkpt lat="47.71275" lon="0.36234">
        <ele>123.3</ele>
        <time>2016-06-17T07:21:23Z</time>
      </trkpt>
      <trkpt lat="47.71283" lon="0.36228">
        <ele>122.9</ele>
        <time>2016-06-17T07:23:04Z</time>
      </trkpt>
      <trkpt lat="47.71292" lon="0.36227">
        <ele>122.5</ele>
        <time>2016-06-17T07:23:11Z</time>
      </trkpt>
      <trkpt lat="47.71303" lon="0.36225">
        <ele>122.4</ele>
        <time>2016-06-17T07:23:19Z</time>
      </trkpt>
      <trkpt lat="47.71312" lon="0.3622">
        <ele>123.7</ele>
        <time>2016-06-17T07:23:26Z</time>
      </trkpt>
      <trkpt lat="47.71322" lon="0.36216">
        <ele>122.9</ele>
        <time>2016-06-17T07:23:34Z</time>
      </trkpt>
      <trkpt lat="47.71331" lon="0.36214">
        <ele>122.6</ele>
        <time>2016-06-17T07:23:42Z</time>
      </trkpt>
      <trkpt lat="47.71341" lon="0.3621">
        <ele>121.8</ele>
        <time>2016-06-17T07:23:50Z</time>
      </trkpt>
      <trkpt lat="47.7135" lon="0.36207">
        <ele>122</ele>
        <time>2016-06-17T07:23:57Z</time>
      </trkpt>
      <trkpt lat="47.71359" lon="0.36203">
        <ele>122.1</ele>
        <time>2016-06-17T07:24:05Z</time>
      </trkpt>
      <trkpt lat="47.71368" lon="0.362">
        <ele>122.2</ele>
        <time>2016-06-17T07:24:12Z</time>
      </trkpt>
      <trkpt lat="47.71377" lon="0.36197">
        <ele>122.2</ele>
        <time>2016-06-17T07:24:19Z</time>
      </trkpt>
      <trkpt lat="47.71386" lon="0.36193">
        <ele>122</ele>
        <time>2016-06-17T07:24:26Z</time>
      </trkpt>
      <trkpt lat="47.71395" lon="0.3619">
        <ele>122</ele>
        <time>2016-06-17T07:24:33Z</time>
      </trkpt>
      <trkpt lat="47.71404" lon="0.36186">
        <ele>122.2</ele>
        <time>2016-06-17T07:24:40Z</time>
      </trkpt>
      <trkpt lat="47.71413" lon="0.36182">
        <ele>122.3</ele>
        <time>2016-06-17T07:24:47Z</time>
      </trkpt>
      <trkpt lat="47.71423" lon="0.36179">
        <ele>122.7</ele>
        <time>2016-06-17T07:24:55Z</time>
      </trkpt>
      <trkpt lat="47.71432" lon="0.36176">
        <ele>123.1</ele>
        <time>2016-06-17T07:25:03Z</time>
      </trkpt>
      <trkpt lat="47.71442" lon="0.36173">
        <ele>123.2</ele>
        <time>2016-06-17T07:25:11Z</time>
      </trkpt>
      <trkpt lat="47.71452" lon="0.3617">
        <ele>123.5</ele>
        <time>2016-06-17T07:25:19Z</time>
      </trkpt>
      <trkpt lat="47.71461" lon="0.36169">
        <ele>123.8</ele>
        <time>2016-06-17T07:25:26Z</time>
      </trkpt>
      <trkpt lat="47.7147" lon="0.36166">
        <ele>124.2</ele>
        <time>2016-06-17T07:25:33Z</time>
      </trkpt>
      <trkpt lat="47.7148" lon="0.36162">
        <ele>124.4</ele>
        <time>2016-06-17T07:25:40Z</time>
      </trkpt>
      <trkpt lat="47.71488" lon="0.36159">
        <ele>124.6</ele>
        <time>2016-06-17T07:25:47Z</time>
      </trkpt>
      <trkpt lat="47.71498" lon="0.36156">
        <ele>124.7</ele>
        <time>2016-06-17T07:25:55Z</time>
      </trkpt>
      <trkpt lat="47.71507" lon="0.36152">
        <ele>125</ele>
        <time>2016-06-17T07:26:02Z</time>
      </trkpt>
      <trkpt lat="47.71517" lon="0.36151">
        <ele>125.2</ele>
        <time>2016-06-17T07:26:10Z</time>
      </trkpt>
      <trkpt lat="47.71527" lon="0.36148">
        <ele>125.1</ele>
        <time>2016-06-17T07:26:17Z</time>
      </trkpt>
      <trkpt lat="47.71536" lon="0.36144">
        <ele>124.3</ele>
        <time>2016-06-17T07:26:24Z</time>
      </trkpt>
      <trkpt lat="47.71546" lon="0.36141">
        <ele>124.1</ele>
        <time>2016-06-17T07:26:31Z</time>
      </trkpt>
      <trkpt lat="47.71555" lon="0.36137">
        <ele>123.8</ele>
        <time>2016-06-17T07:26:38Z</time>
      </trkpt>
      <trkpt lat="47.71565" lon="0.36134">
        <ele>123.6</ele>
        <time>2016-06-17T07:26:46Z</time>
      </trkpt>
      <trkpt lat="47.71574" lon="0.3613">
        <ele>124</ele>
        <time>2016-06-17T07:26:53Z</time>
      </trkpt>
      <trkpt lat="47.71583" lon="0.36127">
        <ele>124.4</ele>
        <time>2016-06-17T07:27:00Z</time>
      </trkpt>
      <trkpt lat="47.71592" lon="0.36123">
        <ele>124.7</ele>
        <time>2016-06-17T07:27:07Z</time>
      </trkpt>
      <trkpt lat="47.71602" lon="0.3612">
        <ele>124.2</ele>
        <time>2016-06-17T07:27:14Z</time>
      </trkpt>
      <trkpt lat="47.71612" lon="0.36118">
        <ele>123.7</ele>
        <time>2016-06-17T07:27:22Z</time>
      </trkpt>
      <trkpt lat="47.71621" lon="0.36115">
        <ele>123.7</ele>
        <time>2016-06-17T07:27:29Z</time>
      </trkpt>
      <trkpt lat="47.7163" lon="0.36112">
        <ele>123.6</ele>
        <time>2016-06-17T07:27:36Z</time>
      </trkpt>
      <trkpt lat="47.71639" lon="0.36109">
        <ele>123.4</ele>
        <time>2016-06-17T07:27:44Z</time>
      </trkpt>
      <trkpt lat="47.71649" lon="0.36109">
        <ele>123.3</ele>
        <time>2016-06-17T07:27:52Z</time>
      </trkpt>
      <trkpt lat="47.71658" lon="0.36106">
        <ele>123.2</ele>
        <time>2016-06-17T07:27:59Z</time>
      </trkpt>
      <trkpt lat="47.71667" lon="0.36102">
        <ele>123.2</ele>
        <time>2016-06-17T07:28:06Z</time>
      </trkpt>
      <trkpt lat="47.71677" lon="0.36101">
        <ele>122.9</ele>
        <time>2016-06-17T07:28:13Z</time>
      </trkpt>
      <trkpt lat="47.71686" lon="0.36099">
        <ele>123.2</ele>
        <time>2016-06-17T07:28:20Z</time>
      </trkpt>
      <trkpt lat="47.71695" lon="0.36095">
        <ele>123.8</ele>
        <time>2016-06-17T07:28:27Z</time>
      </trkpt>
      <trkpt lat="47.71704" lon="0.36093">
        <ele>123.2</ele>
        <time>2016-06-17T07:28:34Z</time>
      </trkpt>
      <trkpt lat="47.71714" lon="0.36092">
        <ele>123</ele>
        <time>2016-06-17T07:28:41Z</time>
      </trkpt>
      <trkpt lat="47.71723" lon="0.36088">
        <ele>123.1</ele>
        <time>2016-06-17T07:28:49Z</time>
      </trkpt>
      <trkpt lat="47.71733" lon="0.36086">
        <ele>122.7</ele>
        <time>2016-06-17T07:28:56Z</time>
      </trkpt>
      <trkpt lat="47.71742" lon="0.36082">
        <ele>122.9</ele>
        <time>2016-06-17T07:29:04Z</time>
      </trkpt>
      <trkpt lat="47.71752" lon="0.3608">
        <ele>123</ele>
        <time>2016-06-17T07:29:12Z</time>
      </trkpt>
      <trkpt lat="47.71761" lon="0.36076">
        <ele>123.2</ele>
        <time>2016-06-17T07:29:19Z</time>
      </trkpt>
      <trkpt lat="47.7177" lon="0.36072">
        <ele>123.5</ele>
        <time>2016-06-17T07:29:26Z</time>
      </trkpt>
      <trkpt lat="47.7178" lon="0.36071">
        <ele>123.4</ele>
        <time>2016-06-17T07:29:34Z</time>
      </trkpt>
      <trkpt lat="47.7179" lon="0.36068">
        <ele>123.5</ele>
        <time>2016-06-17T07:29:41Z</time>
      </trkpt>
      <trkpt lat="47.71798" lon="0.36065">
        <ele>123.4</ele>
        <time>2016-06-17T07:29:48Z</time>
      </trkpt>
      <trkpt lat="47.71807" lon="0.36062">
        <ele>123.5</ele>
        <time>2016-06-17T07:29:55Z</time>
      </trkpt>
      <trkpt lat="47.71816" lon="0.36059">
        <ele>123.6</ele>
        <time>2016-06-17T07:30:02Z</time>
      </trkpt>
      <trkpt lat="47.71827" lon="0.36055">
        <ele>124</ele>
        <time>2016-06-17T07:30:10Z</time>
      </trkpt>
      <trkpt lat="47.71836" lon="0.36055">
        <ele>123.5</ele>
        <time>2016-06-17T07:30:17Z</time>
      </trkpt>
      <trkpt lat="47.71845" lon="0.36054">
        <ele>123.1</ele>
        <time>2016-06-17T07:30:24Z</time>
      </trkpt>
      <trkpt lat="47.71855" lon="0.36051">
        <ele>123.8</ele>
        <time>2016-06-17T07:30:32Z</time>
      </trkpt>
      <trkpt lat="47.71864" lon="0.36049">
        <ele>124.3</ele>
        <time>2016-06-17T07:30:39Z</time>
      </trkpt>
      <trkpt lat="47.71874" lon="0.36046">
        <ele>124</ele>
        <time>2016-06-17T07:30:47Z</time>
      </trkpt>
      <trkpt lat="47.71883" lon="0.36044">
        <ele>123.9</ele>
        <time>2016-06-17T07:30:54Z</time>
      </trkpt>
      <trkpt lat="47.71893" lon="0.36042">
        <ele>124.2</ele>
        <time>2016-06-17T07:31:01Z</time>
      </trkpt>
      <trkpt lat="47.71902" lon="0.36037">
        <ele>124.8</ele>
        <time>2016-06-17T07:31:08Z</time>
      </trkpt>
      <trkpt lat="47.71911" lon="0.36033">
        <ele>124.2</ele>
        <time>2016-06-17T07:31:14Z</time>
      </trkpt>
      <trkpt lat="47.71921" lon="0.36031">
        <ele>124.6</ele>
        <time>2016-06-17T07:31:22Z</time>
      </trkpt>
      <trkpt lat="47.7193" lon="0.36027">
        <ele>124.9</ele>
        <time>2016-06-17T07:31:30Z</time>
      </trkpt>
      <trkpt lat="47.71939" lon="0.36022">
        <ele>125.2</ele>
        <time>2016-06-17T07:31:37Z</time>
      </trkpt>
      <trkpt lat="47.71948" lon="0.36019">
        <ele>124.8</ele>
        <time>2016-06-17T07:31:44Z</time>
      </trkpt>
      <trkpt lat="47.71958" lon="0.36015">
        <ele>126.1</ele>
        <time>2016-06-17T07:31:52Z</time>
      </trkpt>
      <trkpt lat="47.71967" lon="0.36011">
        <ele>125.8</ele>
        <time>2016-06-17T07:31:59Z</time>
      </trkpt>
      <trkpt lat="47.71976" lon="0.36007">
        <ele>126.4</ele>
        <time>2016-06-17T07:32:06Z</time>
      </trkpt>
      <trkpt lat="47.71985" lon="0.36001">
        <ele>125.9</ele>
        <time>2016-06-17T07:32:14Z</time>
      </trkpt>
      <trkpt lat="47.71994" lon="0.35997">
        <ele>126.6</ele>
        <time>2016-06-17T07:32:25Z</time>
      </trkpt>
      <trkpt lat="47.72003" lon="0.35992">
        <ele>127.6</ele>
        <time>2016-06-17T07:32:32Z</time>
      </trkpt>
      <trkpt lat="47.72013" lon="0.35987">
        <ele>128.1</ele>
        <time>2016-06-17T07:32:40Z</time>
      </trkpt>
      <trkpt lat="47.72022" lon="0.35982">
        <ele>128.6</ele>
        <time>2016-06-17T07:32:47Z</time>
      </trkpt>
      <trkpt lat="47.72032" lon="0.35977">
        <ele>128.3</ele>
        <time>2016-06-17T07:32:55Z</time>
      </trkpt>
      <trkpt lat="47.72041" lon="0.35973">
        <ele>128.3</ele>
        <time>2016-06-17T07:33:03Z</time>
      </trkpt>
      <trkpt lat="47.7205" lon="0.35967">
        <ele>128.9</ele>
        <time>2016-06-17T07:33:11Z</time>
      </trkpt>
      <trkpt lat="47.72058" lon="0.35961">
        <ele>128.4</ele>
        <time>2016-06-17T07:33:17Z</time>
      </trkpt>
      <trkpt lat="47.72068" lon="0.35956">
        <ele>129.5</ele>
        <time>2016-06-17T07:33:25Z</time>
      </trkpt>
      <trkpt lat="47.72077" lon="0.35952">
        <ele>129</ele>
        <time>2016-06-17T07:33:33Z</time>
      </trkpt>
      <trkpt lat="47.72086" lon="0.35948">
        <ele>129</ele>
        <time>2016-06-17T07:33:39Z</time>
      </trkpt>
      <trkpt lat="47.72095" lon="0.35942">
        <ele>129.2</ele>
        <time>2016-06-17T07:33:46Z</time>
      </trkpt>
      <trkpt lat="47.72104" lon="0.35937">
        <ele>129.6</ele>
        <time>2016-06-17T07:33:53Z</time>
      </trkpt>
      <trkpt lat="47.72113" lon="0.35933">
        <ele>129.6</ele>
        <time>2016-06-17T07:34:00Z</time>
      </trkpt>
      <trkpt lat="47.72121" lon="0.35928">
        <ele>129.6</ele>
        <time>2016-06-17T07:34:07Z</time>
      </trkpt>
      <trkpt lat="47.7213" lon="0.35923">
        <ele>129.7</ele>
        <time>2016-06-17T07:34:14Z</time>
      </trkpt>
      <trkpt lat="47.72139" lon="0.35917">
        <ele>129.5</ele>
        <time>2016-06-17T07:34:21Z</time>
      </trkpt>
      <trkpt lat="47.72149" lon="0.35913">
        <ele>129.1</ele>
        <time>2016-06-17T07:34:29Z</time>
      </trkpt>
      <trkpt lat="47.72159" lon="0.35908">
        <ele>129.2</ele>
        <time>2016-06-17T07:34:36Z</time>
      </trkpt>
      <trkpt lat="47.72168" lon="0.35907">
        <ele>128.3</ele>
        <time>2016-06-17T07:34:44Z</time>
      </trkpt>
      <trkpt lat="47.72177" lon="0.35905">
        <ele>129.1</ele>
        <time>2016-06-17T07:34:52Z</time>
      </trkpt>
      <trkpt lat="47.72187" lon="0.35903">
        <ele>129.5</ele>
        <time>2016-06-17T07:34:59Z</time>
      </trkpt>
      <trkpt lat="47.72196" lon="0.35902">
        <ele>129.5</ele>
        <time>2016-06-17T07:35:06Z</time>
      </trkpt>
      <trkpt lat="47.72206" lon="0.35901">
        <ele>129.4</ele>
        <time>2016-06-17T07:35:13Z</time>
      </trkpt>
      <trkpt lat="47.72216" lon="0.35899">
        <ele>129.4</ele>
        <time>2016-06-17T07:35:20Z</time>
      </trkpt>
      <trkpt lat="47.72226" lon="0.35899">
        <ele>129.5</ele>
        <time>2016-06-17T07:35:27Z</time>
      </trkpt>
      <trkpt lat="47.72236" lon="0.35898">
        <ele>129.8</ele>
        <time>2016-06-17T07:35:35Z</time>
      </trkpt>
      <trkpt lat="47.72242" lon="0.35908">
        <ele>130.3</ele>
        <time>2016-06-17T07:36:22Z</time>
      </trkpt>
      <trkpt lat="47.72244" lon="0.35921">
        <ele>130.1</ele>
        <time>2016-06-17T07:36:29Z</time>
      </trkpt>
      <trkpt lat="47.72246" lon="0.35935">
        <ele>130.8</ele>
        <time>2016-06-17T07:36:46Z</time>
      </trkpt>
      <trkpt lat="47.72248" lon="0.35948">
        <ele>130.6</ele>
        <time>2016-06-17T07:36:53Z</time>
      </trkpt>
      <trkpt lat="47.7225" lon="0.35962">
        <ele>130.7</ele>
        <time>2016-06-17T07:37:01Z</time>
      </trkpt>
      <trkpt lat="47.72252" lon="0.35977">
        <ele>131.4</ele>
        <time>2016-06-17T07:37:09Z</time>
      </trkpt>
      <trkpt lat="47.72254" lon="0.35991">
        <ele>131.9</ele>
        <time>2016-06-17T07:37:17Z</time>
      </trkpt>
      <trkpt lat="47.72256" lon="0.36005">
        <ele>131.5</ele>
        <time>2016-06-17T07:37:24Z</time>
      </trkpt>
      <trkpt lat="47.7226" lon="0.36017">
        <ele>130.8</ele>
        <time>2016-06-17T07:37:31Z</time>
      </trkpt>
      <trkpt lat="47.72264" lon="0.36031">
        <ele>131</ele>
        <time>2016-06-17T07:37:38Z</time>
      </trkpt>
      <trkpt lat="47.72267" lon="0.36043">
        <ele>131.8</ele>
        <time>2016-06-17T07:37:45Z</time>
      </trkpt>
      <trkpt lat="47.72271" lon="0.36056">
        <ele>132.3</ele>
        <time>2016-06-17T07:37:53Z</time>
      </trkpt>
      <trkpt lat="47.72277" lon="0.36068">
        <ele>132.7</ele>
        <time>2016-06-17T07:38:00Z</time>
      </trkpt>
      <trkpt lat="47.72282" lon="0.3608">
        <ele>132.6</ele>
        <time>2016-06-17T07:38:07Z</time>
      </trkpt>
      <trkpt lat="47.72287" lon="0.36091">
        <ele>132.3</ele>
        <time>2016-06-17T07:38:13Z</time>
      </trkpt>
      <trkpt lat="47.72293" lon="0.36102">
        <ele>132.2</ele>
        <time>2016-06-17T07:38:20Z</time>
      </trkpt>
      <trkpt lat="47.72298" lon="0.36114">
        <ele>132.5</ele>
        <time>2016-06-17T07:38:27Z</time>
      </trkpt>
      <trkpt lat="47.72304" lon="0.36125">
        <ele>132.6</ele>
        <time>2016-06-17T07:38:34Z</time>
      </trkpt>
      <trkpt lat="47.72312" lon="0.36132">
        <ele>133</ele>
        <time>2016-06-17T07:38:49Z</time>
      </trkpt>
      <trkpt lat="47.72321" lon="0.36129">
        <ele>132.9</ele>
        <time>2016-06-17T07:38:56Z</time>
      </trkpt>
      <trkpt lat="47.72329" lon="0.36124">
        <ele>132.9</ele>
        <time>2016-06-17T07:39:04Z</time>
      </trkpt>
      <trkpt lat="47.72339" lon="0.3612">
        <ele>133.2</ele>
        <time>2016-06-17T07:39:12Z</time>
      </trkpt>
      <trkpt lat="47.72348" lon="0.36114">
        <ele>133.9</ele>
        <time>2016-06-17T07:39:20Z</time>
      </trkpt>
      <trkpt lat="47.72357" lon="0.36109">
        <ele>134.5</ele>
        <time>2016-06-17T07:39:28Z</time>
      </trkpt>
      <trkpt lat="47.72366" lon="0.36104">
        <ele>134.7</ele>
        <time>2016-06-17T07:39:35Z</time>
      </trkpt>
      <trkpt lat="47.72375" lon="0.36098">
        <ele>135.6</ele>
        <time>2016-06-17T07:39:43Z</time>
      </trkpt>
      <trkpt lat="47.72385" lon="0.36094">
        <ele>135.8</ele>
        <time>2016-06-17T07:39:51Z</time>
      </trkpt>
      <trkpt lat="47.72393" lon="0.36089">
        <ele>136.3</ele>
        <time>2016-06-17T07:39:59Z</time>
      </trkpt>
      <trkpt lat="47.72402" lon="0.36083">
        <ele>137</ele>
        <time>2016-06-17T07:40:07Z</time>
      </trkpt>
      <trkpt lat="47.72412" lon="0.36078">
        <ele>137</ele>
        <time>2016-06-17T07:40:15Z</time>
      </trkpt>
      <trkpt lat="47.72421" lon="0.36074">
        <ele>137.7</ele>
        <time>2016-06-17T07:40:23Z</time>
      </trkpt>
      <trkpt lat="47.72429" lon="0.36065">
        <ele>138</ele>
        <time>2016-06-17T07:40:31Z</time>
      </trkpt>
      <trkpt lat="47.72432" lon="0.36052">
        <ele>138.7</ele>
        <time>2016-06-17T07:40:38Z</time>
      </trkpt>
      <trkpt lat="47.72434" lon="0.36038">
        <ele>138.4</ele>
        <time>2016-06-17T07:40:46Z</time>
      </trkpt>
      <trkpt lat="47.72436" lon="0.36023">
        <ele>139</ele>
        <time>2016-06-17T07:40:54Z</time>
      </trkpt>
      <trkpt lat="47.72438" lon="0.36009">
        <ele>139.2</ele>
        <time>2016-06-17T07:41:02Z</time>
      </trkpt>
      <trkpt lat="47.72439" lon="0.35995">
        <ele>139.5</ele>
        <time>2016-06-17T07:41:16Z</time>
      </trkpt>
      <trkpt lat="47.72441" lon="0.3598">
        <ele>139.6</ele>
        <time>2016-06-17T07:41:24Z</time>
      </trkpt>
      <trkpt lat="47.72442" lon="0.35965">
        <ele>139.3</ele>
        <time>2016-06-17T07:41:32Z</time>
      </trkpt>
      <trkpt lat="47.72444" lon="0.35951">
        <ele>139.5</ele>
        <time>2016-06-17T07:41:40Z</time>
      </trkpt>
      <trkpt lat="47.72445" lon="0.35936">
        <ele>139.6</ele>
        <time>2016-06-17T07:41:48Z</time>
      </trkpt>
      <trkpt lat="47.72447" lon="0.35923">
        <ele>139.5</ele>
        <time>2016-06-17T07:41:56Z</time>
      </trkpt>
      <trkpt lat="47.72448" lon="0.35909">
        <ele>139.7</ele>
        <time>2016-06-17T07:42:03Z</time>
      </trkpt>
      <trkpt lat="47.72449" lon="0.35896">
        <ele>139.6</ele>
        <time>2016-06-17T07:42:11Z</time>
      </trkpt>
      <trkpt lat="47.7245" lon="0.35882">
        <ele>140</ele>
        <time>2016-06-17T07:42:18Z</time>
      </trkpt>
      <trkpt lat="47.72453" lon="0.35869">
        <ele>139.7</ele>
        <time>2016-06-17T07:42:26Z</time>
      </trkpt>
      <trkpt lat="47.7246" lon="0.3586">
        <ele>139.6</ele>
        <time>2016-06-17T07:42:34Z</time>
      </trkpt>
      <trkpt lat="47.72468" lon="0.35852">
        <ele>140.4</ele>
        <time>2016-06-17T07:42:42Z</time>
      </trkpt>
      <trkpt lat="47.72476" lon="0.35846">
        <ele>140.4</ele>
        <time>2016-06-17T07:42:51Z</time>
      </trkpt>
      <trkpt lat="47.72485" lon="0.35843">
        <ele>140.4</ele>
        <time>2016-06-17T07:43:02Z</time>
      </trkpt>
      <trkpt lat="47.72493" lon="0.35835">
        <ele>140.9</ele>
        <time>2016-06-17T07:43:09Z</time>
      </trkpt>
      <trkpt lat="47.72502" lon="0.35829">
        <ele>140.7</ele>
        <time>2016-06-17T07:43:17Z</time>
      </trkpt>
      <trkpt lat="47.7251" lon="0.35821">
        <ele>141.9</ele>
        <time>2016-06-17T07:43:25Z</time>
      </trkpt>
      <trkpt lat="47.72518" lon="0.35813">
        <ele>141.5</ele>
        <time>2016-06-17T07:43:33Z</time>
      </trkpt>
      <trkpt lat="47.72527" lon="0.35804">
        <ele>142</ele>
        <time>2016-06-17T07:43:42Z</time>
      </trkpt>
      <trkpt lat="47.72535" lon="0.35798">
        <ele>142.1</ele>
        <time>2016-06-17T07:43:50Z</time>
      </trkpt>
      <trkpt lat="47.72542" lon="0.35789">
        <ele>141.8</ele>
        <time>2016-06-17T07:43:57Z</time>
      </trkpt>
      <trkpt lat="47.7255" lon="0.35782">
        <ele>142</ele>
        <time>2016-06-17T07:44:05Z</time>
      </trkpt>
      <trkpt lat="47.72559" lon="0.35774">
        <ele>142.4</ele>
        <time>2016-06-17T07:44:13Z</time>
      </trkpt>
      <trkpt lat="47.72566" lon="0.35765">
        <ele>143</ele>
        <time>2016-06-17T07:44:20Z</time>
      </trkpt>
      <trkpt lat="47.72573" lon="0.35758">
        <ele>142.7</ele>
        <time>2016-06-17T07:44:27Z</time>
      </trkpt>
      <trkpt lat="47.72582" lon="0.35749">
        <ele>142.8</ele>
        <time>2016-06-17T07:44:35Z</time>
      </trkpt>
      <trkpt lat="47.7259" lon="0.35742">
        <ele>143</ele>
        <time>2016-06-17T07:44:43Z</time>
      </trkpt>
      <trkpt lat="47.72598" lon="0.35732">
        <ele>143.3</ele>
        <time>2016-06-17T07:45:03Z</time>
      </trkpt>
      <trkpt lat="47.72605" lon="0.35724">
        <ele>143.5</ele>
        <time>2016-06-17T07:45:10Z</time>
      </trkpt>
      <trkpt lat="47.72611" lon="0.35713">
        <ele>142.8</ele>
        <time>2016-06-17T07:45:17Z</time>
      </trkpt>
      <trkpt lat="47.72618" lon="0.35705">
        <ele>143.2</ele>
        <time>2016-06-17T07:45:24Z</time>
      </trkpt>
      <trkpt lat="47.72625" lon="0.35694">
        <ele>143.7</ele>
        <time>2016-06-17T07:45:32Z</time>
      </trkpt>
      <trkpt lat="47.72632" lon="0.35685">
        <ele>144.1</ele>
        <time>2016-06-17T07:45:39Z</time>
      </trkpt>
      <trkpt lat="47.72639" lon="0.35675">
        <ele>143.9</ele>
        <time>2016-06-17T07:45:46Z</time>
      </trkpt>
      <trkpt lat="47.72647" lon="0.35666">
        <ele>144</ele>
        <time>2016-06-17T07:45:54Z</time>
      </trkpt>
      <trkpt lat="47.72654" lon="0.35656">
        <ele>144.3</ele>
        <time>2016-06-17T07:46:01Z</time>
      </trkpt>
      <trkpt lat="47.72661" lon="0.35646">
        <ele>144.4</ele>
        <time>2016-06-17T07:46:09Z</time>
      </trkpt>
      <trkpt lat="47.72668" lon="0.35636">
        <ele>144.8</ele>
        <time>2016-06-17T07:46:16Z</time>
      </trkpt>
      <trkpt lat="47.72675" lon="0.35627">
        <ele>144</ele>
        <time>2016-06-17T07:46:23Z</time>
      </trkpt>
      <trkpt lat="47.72681" lon="0.35617">
        <ele>144.9</ele>
        <time>2016-06-17T07:46:31Z</time>
      </trkpt>
      <trkpt lat="47.72688" lon="0.35605">
        <ele>145.1</ele>
        <time>2016-06-17T07:46:39Z</time>
      </trkpt>
      <trkpt lat="47.72693" lon="0.35594">
        <ele>145.1</ele>
        <time>2016-06-17T07:46:47Z</time>
      </trkpt>
      <trkpt lat="47.727" lon="0.35582">
        <ele>145</ele>
        <time>2016-06-17T07:46:55Z</time>
      </trkpt>
      <trkpt lat="47.72706" lon="0.3557">
        <ele>145</ele>
        <time>2016-06-17T07:47:03Z</time>
      </trkpt>
      <trkpt lat="47.72712" lon="0.35558">
        <ele>145.5</ele>
        <time>2016-06-17T07:47:11Z</time>
      </trkpt>
      <trkpt lat="47.72717" lon="0.35546">
        <ele>145.4</ele>
        <time>2016-06-17T07:47:18Z</time>
      </trkpt>
      <trkpt lat="47.72722" lon="0.35535">
        <ele>145.7</ele>
        <time>2016-06-17T07:47:26Z</time>
      </trkpt>
      <trkpt lat="47.72728" lon="0.35523">
        <ele>145.8</ele>
        <time>2016-06-17T07:47:33Z</time>
      </trkpt>
      <trkpt lat="47.72733" lon="0.35512">
        <ele>145.3</ele>
        <time>2016-06-17T07:47:40Z</time>
      </trkpt>
      <trkpt lat="47.72739" lon="0.35502">
        <ele>145.1</ele>
        <time>2016-06-17T07:47:47Z</time>
      </trkpt>
      <trkpt lat="47.72745" lon="0.35491">
        <ele>145.3</ele>
        <time>2016-06-17T07:47:54Z</time>
      </trkpt>
      <trkpt lat="47.72752" lon="0.35479">
        <ele>145</ele>
        <time>2016-06-17T07:48:02Z</time>
      </trkpt>
      <trkpt lat="47.72758" lon="0.35468">
        <ele>143.7</ele>
        <time>2016-06-17T07:48:09Z</time>
      </trkpt>
      <trkpt lat="47.72765" lon="0.35458">
        <ele>143.7</ele>
        <time>2016-06-17T07:48:16Z</time>
      </trkpt>
      <trkpt lat="47.72771" lon="0.35446">
        <ele>144.5</ele>
        <time>2016-06-17T07:48:24Z</time>
      </trkpt>
      <trkpt lat="47.72778" lon="0.35434">
        <ele>144.1</ele>
        <time>2016-06-17T07:48:32Z</time>
      </trkpt>
      <trkpt lat="47.72785" lon="0.35424">
        <ele>143.8</ele>
        <time>2016-06-17T07:48:39Z</time>
      </trkpt>
      <trkpt lat="47.72792" lon="0.35413">
        <ele>143.5</ele>
        <time>2016-06-17T07:48:46Z</time>
      </trkpt>
      <trkpt lat="47.72798" lon="0.35402">
        <ele>142.5</ele>
        <time>2016-06-17T07:48:54Z</time>
      </trkpt>
      <trkpt lat="47.72805" lon="0.3539">
        <ele>142.7</ele>
        <time>2016-06-17T07:49:01Z</time>
      </trkpt>
      <trkpt lat="47.7281" lon="0.35378">
        <ele>136.7</ele>
        <time>2016-06-17T07:49:08Z</time>
      </trkpt>
      <trkpt lat="47.72814" lon="0.35366">
        <ele>143.4</ele>
        <time>2016-06-17T07:49:15Z</time>
      </trkpt>
      <trkpt lat="47.7282" lon="0.35356">
        <ele>143.2</ele>
        <time>2016-06-17T07:49:21Z</time>
      </trkpt>
      <trkpt lat="47.72826" lon="0.35345">
        <ele>144.5</ele>
        <time>2016-06-17T07:49:28Z</time>
      </trkpt>
      <trkpt lat="47.72833" lon="0.35336">
        <ele>142.4</ele>
        <time>2016-06-17T07:49:35Z</time>
      </trkpt>
      <trkpt lat="47.72839" lon="0.35326">
        <ele>141.4</ele>
        <time>2016-06-17T07:49:42Z</time>
      </trkpt>
      <trkpt lat="47.72846" lon="0.35315">
        <ele>141.3</ele>
        <time>2016-06-17T07:49:49Z</time>
      </trkpt>
      <trkpt lat="47.72853" lon="0.35302">
        <ele>141.8</ele>
        <time>2016-06-17T07:49:57Z</time>
      </trkpt>
      <trkpt lat="47.72858" lon="0.35291">
        <ele>141.1</ele>
        <time>2016-06-17T07:50:04Z</time>
      </trkpt>
      <trkpt lat="47.72864" lon="0.3528">
        <ele>140.9</ele>
        <time>2016-06-17T07:50:11Z</time>
      </trkpt>
      <trkpt lat="47.72871" lon="0.35269">
        <ele>140.5</ele>
        <time>2016-06-17T07:50:18Z</time>
      </trkpt>
      <trkpt lat="47.72877" lon="0.35259">
        <ele>140.5</ele>
        <time>2016-06-17T07:50:25Z</time>
      </trkpt>
      <trkpt lat="47.72884" lon="0.35247">
        <ele>140.4</ele>
        <time>2016-06-17T07:50:32Z</time>
      </trkpt>
      <trkpt lat="47.7289" lon="0.35237">
        <ele>140.4</ele>
        <time>2016-06-17T07:50:39Z</time>
      </trkpt>
      <trkpt lat="47.72897" lon="0.35225">
        <ele>140.3</ele>
        <time>2016-06-17T07:50:47Z</time>
      </trkpt>
      <trkpt lat="47.72904" lon="0.35216">
        <ele>139.8</ele>
        <time>2016-06-17T07:50:54Z</time>
      </trkpt>
      <trkpt lat="47.72911" lon="0.35205">
        <ele>139.9</ele>
        <time>2016-06-17T07:51:02Z</time>
      </trkpt>
      <trkpt lat="47.72918" lon="0.35195">
        <ele>140.3</ele>
        <time>2016-06-17T07:51:09Z</time>
      </trkpt>
      <trkpt lat="47.72925" lon="0.35185">
        <ele>140.8</ele>
        <time>2016-06-17T07:51:17Z</time>
      </trkpt>
      <trkpt lat="47.72933" lon="0.35176">
        <ele>140.2</ele>
        <time>2016-06-17T07:51:25Z</time>
      </trkpt>
      <trkpt lat="47.72939" lon="0.35167">
        <ele>140.3</ele>
        <time>2016-06-17T07:51:32Z</time>
      </trkpt>
      <trkpt lat="47.72946" lon="0.35157">
        <ele>139.9</ele>
        <time>2016-06-17T07:51:39Z</time>
      </trkpt>
      <trkpt lat="47.72953" lon="0.35148">
        <ele>140.5</ele>
        <time>2016-06-17T07:51:46Z</time>
      </trkpt>
      <trkpt lat="47.7296" lon="0.35139">
        <ele>140.3</ele>
        <time>2016-06-17T07:51:53Z</time>
      </trkpt>
      <trkpt lat="47.72966" lon="0.3513">
        <ele>140.6</ele>
        <time>2016-06-17T07:52:00Z</time>
      </trkpt>
      <trkpt lat="47.72974" lon="0.3512">
        <ele>141</ele>
        <time>2016-06-17T07:52:09Z</time>
      </trkpt>
      <trkpt lat="47.72982" lon="0.35112">
        <ele>140.7</ele>
        <time>2016-06-17T07:54:55Z</time>
      </trkpt>
      <trkpt lat="47.7299" lon="0.35103">
        <ele>140.6</ele>
        <time>2016-06-17T07:55:04Z</time>
      </trkpt>
      <trkpt lat="47.72998" lon="0.35096">
        <ele>140.8</ele>
        <time>2016-06-17T07:55:12Z</time>
      </trkpt>
      <trkpt lat="47.73005" lon="0.35086">
        <ele>140.6</ele>
        <time>2016-06-17T07:55:20Z</time>
      </trkpt>
      <trkpt lat="47.73012" lon="0.35076">
        <ele>140.5</ele>
        <time>2016-06-17T07:55:27Z</time>
      </trkpt>
      <trkpt lat="47.73018" lon="0.35066">
        <ele>141.1</ele>
        <time>2016-06-17T07:55:34Z</time>
      </trkpt>
      <trkpt lat="47.73024" lon="0.35057">
        <ele>141.1</ele>
        <time>2016-06-17T07:55:41Z</time>
      </trkpt>
      <trkpt lat="47.7303" lon="0.35046">
        <ele>141.6</ele>
        <time>2016-06-17T07:55:49Z</time>
      </trkpt>
      <trkpt lat="47.73038" lon="0.35038">
        <ele>142.3</ele>
        <time>2016-06-17T07:55:56Z</time>
      </trkpt>
      <trkpt lat="47.73044" lon="0.35025">
        <ele>141.7</ele>
        <time>2016-06-17T07:56:03Z</time>
      </trkpt>
      <trkpt lat="47.73049" lon="0.35013">
        <ele>142.7</ele>
        <time>2016-06-17T07:56:11Z</time>
      </trkpt>
      <trkpt lat="47.73051" lon="0.35">
        <ele>143.2</ele>
        <time>2016-06-17T07:56:19Z</time>
      </trkpt>
      <trkpt lat="47.73057" lon="0.34987">
        <ele>143.6</ele>
        <time>2016-06-17T07:56:27Z</time>
      </trkpt>
      <trkpt lat="47.73064" lon="0.34976">
        <ele>143.3</ele>
        <time>2016-06-17T07:56:34Z</time>
      </trkpt>
      <trkpt lat="47.7307" lon="0.34966">
        <ele>143.9</ele>
        <time>2016-06-17T07:56:42Z</time>
      </trkpt>
      <trkpt lat="47.73076" lon="0.34954">
        <ele>144.6</ele>
        <time>2016-06-17T07:56:50Z</time>
      </trkpt>
      <trkpt lat="47.73083" lon="0.34943">
        <ele>144.9</ele>
        <time>2016-06-17T07:56:59Z</time>
      </trkpt>
      <trkpt lat="47.73089" lon="0.3493">
        <ele>145.1</ele>
        <time>2016-06-17T07:57:09Z</time>
      </trkpt>
      <trkpt lat="47.73095" lon="0.34918">
        <ele>146.4</ele>
        <time>2016-06-17T07:57:17Z</time>
      </trkpt>
      <trkpt lat="47.731" lon="0.34906">
        <ele>146.7</ele>
        <time>2016-06-17T07:57:23Z</time>
      </trkpt>
      <trkpt lat="47.73106" lon="0.34895">
        <ele>146.9</ele>
        <time>2016-06-17T07:57:30Z</time>
      </trkpt>
      <trkpt lat="47.7311" lon="0.34883">
        <ele>147.4</ele>
        <time>2016-06-17T07:57:37Z</time>
      </trkpt>
      <trkpt lat="47.73114" lon="0.3487">
        <ele>147.9</ele>
        <time>2016-06-17T07:57:46Z</time>
      </trkpt>
      <trkpt lat="47.7312" lon="0.34857">
        <ele>149</ele>
        <time>2016-06-17T07:57:54Z</time>
      </trkpt>
      <trkpt lat="47.73125" lon="0.34846">
        <ele>149.4</ele>
        <time>2016-06-17T07:58:03Z</time>
      </trkpt>
      <trkpt lat="47.7313" lon="0.34833">
        <ele>149.4</ele>
        <time>2016-06-17T07:58:10Z</time>
      </trkpt>
      <trkpt lat="47.73135" lon="0.34821">
        <ele>150.5</ele>
        <time>2016-06-17T07:58:18Z</time>
      </trkpt>
      <trkpt lat="47.7314" lon="0.34809">
        <ele>151.6</ele>
        <time>2016-06-17T07:58:24Z</time>
      </trkpt>
      <trkpt lat="47.73142" lon="0.34795">
        <ele>151.5</ele>
        <time>2016-06-17T07:58:31Z</time>
      </trkpt>
      <trkpt lat="47.73147" lon="0.34782">
        <ele>151.4</ele>
        <time>2016-06-17T07:58:39Z</time>
      </trkpt>
      <trkpt lat="47.73154" lon="0.34772">
        <ele>151.2</ele>
        <time>2016-06-17T07:58:45Z</time>
      </trkpt>
      <trkpt lat="47.73158" lon="0.34759">
        <ele>152</ele>
        <time>2016-06-17T07:58:51Z</time>
      </trkpt>
      <trkpt lat="47.7316" lon="0.34746">
        <ele>152.5</ele>
        <time>2016-06-17T07:58:56Z</time>
      </trkpt>
      <trkpt lat="47.73162" lon="0.3473">
        <ele>153.2</ele>
        <time>2016-06-17T07:59:04Z</time>
      </trkpt>
      <trkpt lat="47.73164" lon="0.34716">
        <ele>152.6</ele>
        <time>2016-06-17T07:59:10Z</time>
      </trkpt>
      <trkpt lat="47.73168" lon="0.34702">
        <ele>152.1</ele>
        <time>2016-06-17T07:59:18Z</time>
      </trkpt>
      <trkpt lat="47.73172" lon="0.34689">
        <ele>152.5</ele>
        <time>2016-06-17T07:59:26Z</time>
      </trkpt>
      <trkpt lat="47.73178" lon="0.34677">
        <ele>152.9</ele>
        <time>2016-06-17T07:59:33Z</time>
      </trkpt>
      <trkpt lat="47.73182" lon="0.34663">
        <ele>153.1</ele>
        <time>2016-06-17T07:59:41Z</time>
      </trkpt>
      <trkpt lat="47.73184" lon="0.3465">
        <ele>153.4</ele>
        <time>2016-06-17T07:59:48Z</time>
      </trkpt>
      <trkpt lat="47.73185" lon="0.34636">
        <ele>153.4</ele>
        <time>2016-06-17T07:59:55Z</time>
      </trkpt>
      <trkpt lat="47.73189" lon="0.34622">
        <ele>153.6</ele>
        <time>2016-06-17T08:00:02Z</time>
      </trkpt>
      <trkpt lat="47.73192" lon="0.34608">
        <ele>153.5</ele>
        <time>2016-06-17T08:00:09Z</time>
      </trkpt>
      <trkpt lat="47.73194" lon="0.34593">
        <ele>153.2</ele>
        <time>2016-06-17T08:00:16Z</time>
      </trkpt>
      <trkpt lat="47.73196" lon="0.34578">
        <ele>152.9</ele>
        <time>2016-06-17T08:00:24Z</time>
      </trkpt>
      <trkpt lat="47.73198" lon="0.34564">
        <ele>153</ele>
        <time>2016-06-17T08:00:31Z</time>
      </trkpt>
      <trkpt lat="47.73201" lon="0.3455">
        <ele>153.4</ele>
        <time>2016-06-17T08:00:39Z</time>
      </trkpt>
      <trkpt lat="47.73204" lon="0.34537">
        <ele>153.6</ele>
        <time>2016-06-17T08:00:46Z</time>
      </trkpt>
      <trkpt lat="47.73205" lon="0.34523">
        <ele>153.2</ele>
        <time>2016-06-17T08:00:54Z</time>
      </trkpt>
      <trkpt lat="47.73206" lon="0.34508">
        <ele>153.7</ele>
        <time>2016-06-17T08:01:02Z</time>
      </trkpt>
      <trkpt lat="47.7321" lon="0.34495">
        <ele>153.4</ele>
        <time>2016-06-17T08:01:10Z</time>
      </trkpt>
      <trkpt lat="47.73218" lon="0.34488">
        <ele>153.4</ele>
        <time>2016-06-17T08:01:42Z</time>
      </trkpt>
      <trkpt lat="47.73224" lon="0.34497">
        <ele>152.9</ele>
        <time>2016-06-17T08:01:50Z</time>
      </trkpt>
      <trkpt lat="47.73231" lon="0.34509">
        <ele>152.4</ele>
        <time>2016-06-17T08:01:58Z</time>
      </trkpt>
      <trkpt lat="47.73239" lon="0.34519">
        <ele>152.9</ele>
        <time>2016-06-17T08:02:06Z</time>
      </trkpt>
      <trkpt lat="47.73245" lon="0.3453">
        <ele>153.2</ele>
        <time>2016-06-17T08:02:13Z</time>
      </trkpt>
      <trkpt lat="47.73252" lon="0.34541">
        <ele>153.3</ele>
        <time>2016-06-17T08:02:20Z</time>
      </trkpt>
      <trkpt lat="47.73258" lon="0.34552">
        <ele>153.4</ele>
        <time>2016-06-17T08:02:27Z</time>
      </trkpt>
      <trkpt lat="47.73265" lon="0.34562">
        <ele>152.8</ele>
        <time>2016-06-17T08:02:35Z</time>
      </trkpt>
      <trkpt lat="47.73272" lon="0.34572">
        <ele>152.8</ele>
        <time>2016-06-17T08:02:42Z</time>
      </trkpt>
      <trkpt lat="47.7328" lon="0.3458">
        <ele>152.8</ele>
        <time>2016-06-17T08:02:49Z</time>
      </trkpt>
      <trkpt lat="47.73288" lon="0.34589">
        <ele>153</ele>
        <time>2016-06-17T08:02:56Z</time>
      </trkpt>
      <trkpt lat="47.73295" lon="0.34598">
        <ele>152.9</ele>
        <time>2016-06-17T08:03:03Z</time>
      </trkpt>
      <trkpt lat="47.73302" lon="0.34609">
        <ele>152.2</ele>
        <time>2016-06-17T08:03:10Z</time>
      </trkpt>
      <trkpt lat="47.73309" lon="0.34618">
        <ele>151.9</ele>
        <time>2016-06-17T08:03:17Z</time>
      </trkpt>
      <trkpt lat="47.73317" lon="0.34626">
        <ele>152</ele>
        <time>2016-06-17T08:03:24Z</time>
      </trkpt>
      <trkpt lat="47.73324" lon="0.34637">
        <ele>151.8</ele>
        <time>2016-06-17T08:03:31Z</time>
      </trkpt>
      <trkpt lat="47.73332" lon="0.34644">
        <ele>152</ele>
        <time>2016-06-17T08:03:38Z</time>
      </trkpt>
      <trkpt lat="47.7334" lon="0.34655">
        <ele>152.2</ele>
        <time>2016-06-17T08:03:46Z</time>
      </trkpt>
      <trkpt lat="47.73347" lon="0.34665">
        <ele>152.3</ele>
        <time>2016-06-17T08:03:53Z</time>
      </trkpt>
      <trkpt lat="47.73354" lon="0.34676">
        <ele>152.2</ele>
        <time>2016-06-17T08:04:00Z</time>
      </trkpt>
      <trkpt lat="47.73361" lon="0.34686">
        <ele>152.7</ele>
        <time>2016-06-17T08:04:07Z</time>
      </trkpt>
      <trkpt lat="47.73368" lon="0.34696">
        <ele>151.8</ele>
        <time>2016-06-17T08:04:14Z</time>
      </trkpt>
      <trkpt lat="47.73374" lon="0.34706">
        <ele>151.9</ele>
        <time>2016-06-17T08:04:21Z</time>
      </trkpt>
      <trkpt lat="47.73381" lon="0.34715">
        <ele>152.1</ele>
        <time>2016-06-17T08:04:28Z</time>
      </trkpt>
      <trkpt lat="47.73387" lon="0.34725">
        <ele>152.2</ele>
        <time>2016-06-17T08:04:35Z</time>
      </trkpt>
      <trkpt lat="47.73394" lon="0.34735">
        <ele>151.3</ele>
        <time>2016-06-17T08:04:42Z</time>
      </trkpt>
      <trkpt lat="47.73401" lon="0.34746">
        <ele>151.3</ele>
        <time>2016-06-17T08:04:49Z</time>
      </trkpt>
      <trkpt lat="47.73409" lon="0.34756">
        <ele>151.7</ele>
        <time>2016-06-17T08:05:02Z</time>
      </trkpt>
      <trkpt lat="47.73417" lon="0.34765">
        <ele>151.8</ele>
        <time>2016-06-17T08:05:09Z</time>
      </trkpt>
      <trkpt lat="47.73424" lon="0.34773">
        <ele>151.6</ele>
        <time>2016-06-17T08:05:16Z</time>
      </trkpt>
      <trkpt lat="47.73431" lon="0.34783">
        <ele>151.5</ele>
        <time>2016-06-17T08:05:23Z</time>
      </trkpt>
      <trkpt lat="47.73438" lon="0.34794">
        <ele>151.3</ele>
        <time>2016-06-17T08:05:30Z</time>
      </trkpt>
      <trkpt lat="47.73445" lon="0.34804">
        <ele>150.9</ele>
        <time>2016-06-17T08:05:37Z</time>
      </trkpt>
      <trkpt lat="47.73452" lon="0.34812">
        <ele>150.3</ele>
        <time>2016-06-17T08:05:44Z</time>
      </trkpt>
      <trkpt lat="47.73458" lon="0.34824">
        <ele>150.6</ele>
        <time>2016-06-17T08:05:52Z</time>
      </trkpt>
      <trkpt lat="47.73465" lon="0.34833">
        <ele>150.9</ele>
        <time>2016-06-17T08:05:59Z</time>
      </trkpt>
      <trkpt lat="47.73473" lon="0.34842">
        <ele>150.7</ele>
        <time>2016-06-17T08:06:06Z</time>
      </trkpt>
      <trkpt lat="47.7348" lon="0.34852">
        <ele>150.3</ele>
        <time>2016-06-17T08:06:14Z</time>
      </trkpt>
      <trkpt lat="47.73486" lon="0.34862">
        <ele>149.9</ele>
        <time>2016-06-17T08:06:21Z</time>
      </trkpt>
      <trkpt lat="47.73493" lon="0.34871">
        <ele>150.2</ele>
        <time>2016-06-17T08:06:28Z</time>
      </trkpt>
      <trkpt lat="47.73501" lon="0.3488">
        <ele>150.1</ele>
        <time>2016-06-17T08:06:35Z</time>
      </trkpt>
      <trkpt lat="47.73507" lon="0.3489">
        <ele>149.9</ele>
        <time>2016-06-17T08:06:42Z</time>
      </trkpt>
      <trkpt lat="47.73514" lon="0.34899">
        <ele>149.7</ele>
        <time>2016-06-17T08:06:49Z</time>
      </trkpt>
      <trkpt lat="47.73522" lon="0.34909">
        <ele>149.7</ele>
        <time>2016-06-17T08:06:57Z</time>
      </trkpt>
      <trkpt lat="47.73529" lon="0.34918">
        <ele>149.3</ele>
        <time>2016-06-17T08:07:04Z</time>
      </trkpt>
      <trkpt lat="47.73537" lon="0.34928">
        <ele>149.4</ele>
        <time>2016-06-17T08:07:12Z</time>
      </trkpt>
      <trkpt lat="47.73545" lon="0.34938">
        <ele>149.5</ele>
        <time>2016-06-17T08:07:20Z</time>
      </trkpt>
      <trkpt lat="47.73551" lon="0.34948">
        <ele>149.8</ele>
        <time>2016-06-17T08:07:27Z</time>
      </trkpt>
      <trkpt lat="47.73556" lon="0.3496">
        <ele>149.9</ele>
        <time>2016-06-17T08:07:34Z</time>
      </trkpt>
      <trkpt lat="47.73563" lon="0.34971">
        <ele>149.7</ele>
        <time>2016-06-17T08:07:42Z</time>
      </trkpt>
      <trkpt lat="47.73572" lon="0.34962">
        <ele>149.4</ele>
        <time>2016-06-17T08:07:59Z</time>
      </trkpt>
      <trkpt lat="47.73578" lon="0.34952">
        <ele>149.8</ele>
        <time>2016-06-17T08:08:07Z</time>
      </trkpt>
      <trkpt lat="47.73584" lon="0.3494">
        <ele>150.2</ele>
        <time>2016-06-17T08:08:15Z</time>
      </trkpt>
      <trkpt lat="47.7359" lon="0.34929">
        <ele>150.7</ele>
        <time>2016-06-17T08:08:24Z</time>
      </trkpt>
      <trkpt lat="47.73593" lon="0.34915">
        <ele>149.5</ele>
        <time>2016-06-17T08:08:33Z</time>
      </trkpt>
      <trkpt lat="47.73596" lon="0.34901">
        <ele>149.4</ele>
        <time>2016-06-17T08:09:06Z</time>
      </trkpt>
      <trkpt lat="47.73601" lon="0.3489">
        <ele>148.3</ele>
        <time>2016-06-17T08:09:26Z</time>
      </trkpt>
      <trkpt lat="47.73607" lon="0.34879">
        <ele>148</ele>
        <time>2016-06-17T08:09:50Z</time>
      </trkpt>
      <trkpt lat="47.73613" lon="0.34866">
        <ele>148</ele>
        <time>2016-06-17T08:09:59Z</time>
      </trkpt>
      <trkpt lat="47.7362" lon="0.34857">
        <ele>147</ele>
        <time>2016-06-17T08:10:09Z</time>
      </trkpt>
      <trkpt lat="47.73627" lon="0.34847">
        <ele>146.5</ele>
        <time>2016-06-17T08:10:17Z</time>
      </trkpt>
      <trkpt lat="47.73634" lon="0.34838">
        <ele>145.2</ele>
        <time>2016-06-17T08:10:26Z</time>
      </trkpt>
      <trkpt lat="47.73641" lon="0.34826">
        <ele>144.5</ele>
        <time>2016-06-17T08:10:34Z</time>
      </trkpt>
      <trkpt lat="47.73649" lon="0.34817">
        <ele>143.8</ele>
        <time>2016-06-17T08:10:42Z</time>
      </trkpt>
      <trkpt lat="47.73657" lon="0.34808">
        <ele>142.8</ele>
        <time>2016-06-17T08:10:51Z</time>
      </trkpt>
      <trkpt lat="47.73663" lon="0.34797">
        <ele>141.5</ele>
        <time>2016-06-17T08:11:01Z</time>
      </trkpt>
      <trkpt lat="47.73669" lon="0.34785">
        <ele>140.9</ele>
        <time>2016-06-17T08:11:09Z</time>
      </trkpt>
      <trkpt lat="47.73676" lon="0.34775">
        <ele>139.7</ele>
        <time>2016-06-17T08:11:17Z</time>
      </trkpt>
      <trkpt lat="47.73681" lon="0.34764">
        <ele>138.9</ele>
        <time>2016-06-17T08:11:26Z</time>
      </trkpt>
      <trkpt lat="47.73689" lon="0.34755">
        <ele>137.5</ele>
        <time>2016-06-17T08:11:38Z</time>
      </trkpt>
      <trkpt lat="47.73696" lon="0.34745">
        <ele>136.4</ele>
        <time>2016-06-17T08:11:49Z</time>
      </trkpt>
      <trkpt lat="47.73703" lon="0.34735">
        <ele>135.3</ele>
        <time>2016-06-17T08:12:00Z</time>
      </trkpt>
      <trkpt lat="47.73711" lon="0.34725">
        <ele>134.2</ele>
        <time>2016-06-17T08:12:10Z</time>
      </trkpt>
      <trkpt lat="47.73717" lon="0.34716">
        <ele>133.7</ele>
        <time>2016-06-17T08:12:18Z</time>
      </trkpt>
      <trkpt lat="47.73714" lon="0.34704">
        <ele>133</ele>
        <time>2016-06-17T08:12:28Z</time>
      </trkpt>
      <trkpt lat="47.73707" lon="0.34695">
        <ele>132.1</ele>
        <time>2016-06-17T08:12:35Z</time>
      </trkpt>
      <trkpt lat="47.73707" lon="0.34681">
        <ele>130.5</ele>
        <time>2016-06-17T08:12:46Z</time>
      </trkpt>
      <trkpt lat="47.73712" lon="0.34669">
        <ele>128.5</ele>
        <time>2016-06-17T08:12:55Z</time>
      </trkpt>
      <trkpt lat="47.7372" lon="0.34661">
        <ele>126.6</ele>
        <time>2016-06-17T08:13:05Z</time>
      </trkpt>
      <trkpt lat="47.73727" lon="0.34651">
        <ele>124.7</ele>
        <time>2016-06-17T08:13:13Z</time>
      </trkpt>
      <trkpt lat="47.73733" lon="0.34641">
        <ele>123.4</ele>
        <time>2016-06-17T08:13:20Z</time>
      </trkpt>
      <trkpt lat="47.73738" lon="0.34629">
        <ele>123.5</ele>
        <time>2016-06-17T08:13:28Z</time>
      </trkpt>
      <trkpt lat="47.73743" lon="0.34616">
        <ele>122.4</ele>
        <time>2016-06-17T08:13:36Z</time>
      </trkpt>
      <trkpt lat="47.73749" lon="0.34606">
        <ele>122.6</ele>
        <time>2016-06-17T08:13:43Z</time>
      </trkpt>
      <trkpt lat="47.73758" lon="0.34611">
        <ele>121</ele>
        <time>2016-06-17T08:14:58Z</time>
      </trkpt>
      <trkpt lat="47.73765" lon="0.3462">
        <ele>121.8</ele>
        <time>2016-06-17T08:15:04Z</time>
      </trkpt>
      <trkpt lat="47.73773" lon="0.34629">
        <ele>121.4</ele>
        <time>2016-06-17T08:15:11Z</time>
      </trkpt>
      <trkpt lat="47.7378" lon="0.34639">
        <ele>121.6</ele>
        <time>2016-06-17T08:15:18Z</time>
      </trkpt>
      <trkpt lat="47.73787" lon="0.34649">
        <ele>121.7</ele>
        <time>2016-06-17T08:15:26Z</time>
      </trkpt>
      <trkpt lat="47.73795" lon="0.34659">
        <ele>121.2</ele>
        <time>2016-06-17T08:15:33Z</time>
      </trkpt>
      <trkpt lat="47.73802" lon="0.34667">
        <ele>120.3</ele>
        <time>2016-06-17T08:15:40Z</time>
      </trkpt>
      <trkpt lat="47.73809" lon="0.34676">
        <ele>119.5</ele>
        <time>2016-06-17T08:15:47Z</time>
      </trkpt>
      <trkpt lat="47.73818" lon="0.34684">
        <ele>119.8</ele>
        <time>2016-06-17T08:15:54Z</time>
      </trkpt>
      <trkpt lat="47.73826" lon="0.34694">
        <ele>119.4</ele>
        <time>2016-06-17T08:16:02Z</time>
      </trkpt>
      <trkpt lat="47.73835" lon="0.34702">
        <ele>118.7</ele>
        <time>2016-06-17T08:16:10Z</time>
      </trkpt>
      <trkpt lat="47.73841" lon="0.34714">
        <ele>118.2</ele>
        <time>2016-06-17T08:16:21Z</time>
      </trkpt>
      <trkpt lat="47.73851" lon="0.34723">
        <ele>118.1</ele>
        <time>2016-06-17T08:16:27Z</time>
      </trkpt>
      <trkpt lat="47.73857" lon="0.34734">
        <ele>118.3</ele>
        <time>2016-06-17T08:16:34Z</time>
      </trkpt>
      <trkpt lat="47.73866" lon="0.34744">
        <ele>117.9</ele>
        <time>2016-06-17T08:16:41Z</time>
      </trkpt>
      <trkpt lat="47.73875" lon="0.34753">
        <ele>116.9</ele>
        <time>2016-06-17T08:16:49Z</time>
      </trkpt>
      <trkpt lat="47.73881" lon="0.34762">
        <ele>115.9</ele>
        <time>2016-06-17T08:16:55Z</time>
      </trkpt>
      <trkpt lat="47.73889" lon="0.34769">
        <ele>115.4</ele>
        <time>2016-06-17T08:17:02Z</time>
      </trkpt>
      <trkpt lat="47.73898" lon="0.34777">
        <ele>116</ele>
        <time>2016-06-17T08:17:08Z</time>
      </trkpt>
      <trkpt lat="47.73905" lon="0.34785">
        <ele>115.7</ele>
        <time>2016-06-17T08:17:14Z</time>
      </trkpt>
      <trkpt lat="47.73912" lon="0.34793">
        <ele>115.6</ele>
        <time>2016-06-17T08:17:20Z</time>
      </trkpt>
      <trkpt lat="47.73919" lon="0.34802">
        <ele>114.7</ele>
        <time>2016-06-17T08:17:26Z</time>
      </trkpt>
      <trkpt lat="47.73926" lon="0.34811">
        <ele>115.2</ele>
        <time>2016-06-17T08:17:32Z</time>
      </trkpt>
      <trkpt lat="47.73933" lon="0.3482">
        <ele>115.6</ele>
        <time>2016-06-17T08:17:39Z</time>
      </trkpt>
      <trkpt lat="47.73941" lon="0.34829">
        <ele>115.4</ele>
        <time>2016-06-17T08:17:46Z</time>
      </trkpt>
      <trkpt lat="47.73948" lon="0.34838">
        <ele>114.9</ele>
        <time>2016-06-17T08:17:53Z</time>
      </trkpt>
      <trkpt lat="47.73956" lon="0.34847">
        <ele>114.8</ele>
        <time>2016-06-17T08:18:00Z</time>
      </trkpt>
      <trkpt lat="47.73963" lon="0.34857">
        <ele>114.3</ele>
        <time>2016-06-17T08:18:07Z</time>
      </trkpt>
      <trkpt lat="47.73969" lon="0.34869">
        <ele>114.6</ele>
        <time>2016-06-17T08:18:15Z</time>
      </trkpt>
      <trkpt lat="47.73977" lon="0.34877">
        <ele>113.4</ele>
        <time>2016-06-17T08:18:26Z</time>
      </trkpt>
      <trkpt lat="47.73984" lon="0.34886">
        <ele>112.2</ele>
        <time>2016-06-17T08:18:32Z</time>
      </trkpt>
      <trkpt lat="47.73991" lon="0.34896">
        <ele>111.1</ele>
        <time>2016-06-17T08:18:38Z</time>
      </trkpt>
      <trkpt lat="47.73999" lon="0.34905">
        <ele>110.5</ele>
        <time>2016-06-17T08:18:44Z</time>
      </trkpt>
      <trkpt lat="47.74007" lon="0.34915">
        <ele>110.1</ele>
        <time>2016-06-17T08:18:52Z</time>
      </trkpt>
      <trkpt lat="47.74014" lon="0.34924">
        <ele>108.9</ele>
        <time>2016-06-17T08:18:58Z</time>
      </trkpt>
      <trkpt lat="47.7402" lon="0.34935">
        <ele>106.6</ele>
        <time>2016-06-17T08:19:05Z</time>
      </trkpt>
      <trkpt lat="47.74027" lon="0.34947">
        <ele>107.5</ele>
        <time>2016-06-17T08:19:12Z</time>
      </trkpt>
      <trkpt lat="47.74035" lon="0.34956">
        <ele>107.7</ele>
        <time>2016-06-17T08:19:18Z</time>
      </trkpt>
      <trkpt lat="47.74039" lon="0.34968">
        <ele>106.6</ele>
        <time>2016-06-17T08:19:53Z</time>
      </trkpt>
      <trkpt lat="47.74042" lon="0.34983">
        <ele>106.2</ele>
        <time>2016-06-17T08:20:11Z</time>
      </trkpt>
      <trkpt lat="47.74049" lon="0.34993">
        <ele>106.8</ele>
        <time>2016-06-17T08:21:31Z</time>
      </trkpt>
      <trkpt lat="47.74051" lon="0.35006">
        <ele>105.9</ele>
        <time>2016-06-17T08:21:40Z</time>
      </trkpt>
      <trkpt lat="47.74052" lon="0.3502">
        <ele>105.6</ele>
        <time>2016-06-17T08:21:48Z</time>
      </trkpt>
      <trkpt lat="47.74053" lon="0.35035">
        <ele>105.7</ele>
        <time>2016-06-17T08:21:55Z</time>
      </trkpt>
      <trkpt lat="47.74056" lon="0.35048">
        <ele>105.2</ele>
        <time>2016-06-17T08:22:02Z</time>
      </trkpt>
      <trkpt lat="47.74058" lon="0.35064">
        <ele>106.2</ele>
        <time>2016-06-17T08:22:09Z</time>
      </trkpt>
      <trkpt lat="47.74058" lon="0.35079">
        <ele>106</ele>
        <time>2016-06-17T08:22:16Z</time>
      </trkpt>
      <trkpt lat="47.74058" lon="0.35094">
        <ele>105.8</ele>
        <time>2016-06-17T08:22:23Z</time>
      </trkpt>
      <trkpt lat="47.74058" lon="0.35109">
        <ele>104.8</ele>
        <time>2016-06-17T08:22:30Z</time>
      </trkpt>
      <trkpt lat="47.74056" lon="0.35123">
        <ele>104.8</ele>
        <time>2016-06-17T08:22:37Z</time>
      </trkpt>
      <trkpt lat="47.74053" lon="0.35137">
        <ele>104.3</ele>
        <time>2016-06-17T08:22:45Z</time>
      </trkpt>
      <trkpt lat="47.7405" lon="0.35151">
        <ele>104.9</ele>
        <time>2016-06-17T08:22:53Z</time>
      </trkpt>
      <trkpt lat="47.74047" lon="0.35164">
        <ele>105.1</ele>
        <time>2016-06-17T08:23:00Z</time>
      </trkpt>
      <trkpt lat="47.74043" lon="0.35177">
        <ele>105.9</ele>
        <time>2016-06-17T08:23:07Z</time>
      </trkpt>
      <trkpt lat="47.74039" lon="0.3519">
        <ele>106.2</ele>
        <time>2016-06-17T08:23:14Z</time>
      </trkpt>
      <trkpt lat="47.74035" lon="0.35204">
        <ele>106.9</ele>
        <time>2016-06-17T08:23:22Z</time>
      </trkpt>
      <trkpt lat="47.74032" lon="0.35217">
        <ele>107.6</ele>
        <time>2016-06-17T08:23:29Z</time>
      </trkpt>
      <trkpt lat="47.74028" lon="0.35232">
        <ele>107.4</ele>
        <time>2016-06-17T08:23:36Z</time>
      </trkpt>
      <trkpt lat="47.74026" lon="0.35245">
        <ele>108.3</ele>
        <time>2016-06-17T08:23:43Z</time>
      </trkpt>
      <trkpt lat="47.74024" lon="0.35259">
        <ele>107.5</ele>
        <time>2016-06-17T08:23:50Z</time>
      </trkpt>
      <trkpt lat="47.74023" lon="0.35273">
        <ele>106.6</ele>
        <time>2016-06-17T08:23:57Z</time>
      </trkpt>
      <trkpt lat="47.74023" lon="0.35288">
        <ele>106.8</ele>
        <time>2016-06-17T08:24:04Z</time>
      </trkpt>
      <trkpt lat="47.74024" lon="0.35301">
        <ele>107.1</ele>
        <time>2016-06-17T08:24:11Z</time>
      </trkpt>
      <trkpt lat="47.74025" lon="0.35315">
        <ele>107.2</ele>
        <time>2016-06-17T08:24:18Z</time>
      </trkpt>
      <trkpt lat="47.74026" lon="0.35329">
        <ele>106.7</ele>
        <time>2016-06-17T08:24:25Z</time>
      </trkpt>
      <trkpt lat="47.74026" lon="0.35342">
        <ele>107.6</ele>
        <time>2016-06-17T08:24:32Z</time>
      </trkpt>
      <trkpt lat="47.74024" lon="0.35357">
        <ele>106.4</ele>
        <time>2016-06-17T08:24:39Z</time>
      </trkpt>
      <trkpt lat="47.74029" lon="0.35345">
        <ele>106.5</ele>
        <time>2016-06-17T08:25:19Z</time>
      </trkpt>
      <trkpt lat="47.74035" lon="0.35335">
        <ele>106</ele>
        <time>2016-06-17T08:27:10Z</time>
      </trkpt>
      <trkpt lat="47.74044" lon="0.35334">
        <ele>104.7</ele>
        <time>2016-06-17T08:28:06Z</time>
      </trkpt>
      <trkpt lat="47.74054" lon="0.35334">
        <ele>103.6</ele>
        <time>2016-06-17T08:28:14Z</time>
      </trkpt>
      <trkpt lat="47.74063" lon="0.35332">
        <ele>102.9</ele>
        <time>2016-06-17T08:28:21Z</time>
      </trkpt>
      <trkpt lat="47.74072" lon="0.35328">
        <ele>102.5</ele>
        <time>2016-06-17T08:28:28Z</time>
      </trkpt>
      <trkpt lat="47.74081" lon="0.35323">
        <ele>101.2</ele>
        <time>2016-06-17T08:28:35Z</time>
      </trkpt>
      <trkpt lat="47.7409" lon="0.35318">
        <ele>100.7</ele>
        <time>2016-06-17T08:28:42Z</time>
      </trkpt>
      <trkpt lat="47.74098" lon="0.35312">
        <ele>100.8</ele>
        <time>2016-06-17T08:28:49Z</time>
      </trkpt>
      <trkpt lat="47.74107" lon="0.35306">
        <ele>99.8</ele>
        <time>2016-06-17T08:28:57Z</time>
      </trkpt>
      <trkpt lat="47.74116" lon="0.35301">
        <ele>99.3</ele>
        <time>2016-06-17T08:29:04Z</time>
      </trkpt>
      <trkpt lat="47.74124" lon="0.35293">
        <ele>99.1</ele>
        <time>2016-06-17T08:29:11Z</time>
      </trkpt>
      <trkpt lat="47.74134" lon="0.35288">
        <ele>98.1</ele>
        <time>2016-06-17T08:29:19Z</time>
      </trkpt>
      <trkpt lat="47.74144" lon="0.35286">
        <ele>98.9</ele>
        <time>2016-06-17T08:29:26Z</time>
      </trkpt>
      <trkpt lat="47.74154" lon="0.35289">
        <ele>98.6</ele>
        <time>2016-06-17T08:29:33Z</time>
      </trkpt>
      <trkpt lat="47.74164" lon="0.35288">
        <ele>100.1</ele>
        <time>2016-06-17T08:29:40Z</time>
      </trkpt>
      <trkpt lat="47.74173" lon="0.35288">
        <ele>99.7</ele>
        <time>2016-06-17T08:29:47Z</time>
      </trkpt>
      <trkpt lat="47.74182" lon="0.35287">
        <ele>100</ele>
        <time>2016-06-17T08:29:59Z</time>
      </trkpt>
      <trkpt lat="47.74189" lon="0.35278">
        <ele>100.4</ele>
        <time>2016-06-17T08:30:23Z</time>
      </trkpt>
      <trkpt lat="47.74196" lon="0.35269">
        <ele>101</ele>
        <time>2016-06-17T08:31:09Z</time>
      </trkpt>
      <trkpt lat="47.74201" lon="0.35257">
        <ele>100.9</ele>
        <time>2016-06-17T08:31:20Z</time>
      </trkpt>
      <trkpt lat="47.7421" lon="0.35251">
        <ele>100.9</ele>
        <time>2016-06-17T08:31:30Z</time>
      </trkpt>
      <trkpt lat="47.74219" lon="0.35246">
        <ele>101.5</ele>
        <time>2016-06-17T08:31:40Z</time>
      </trkpt>
      <trkpt lat="47.74229" lon="0.35242">
        <ele>100.7</ele>
        <time>2016-06-17T08:31:49Z</time>
      </trkpt>
      <trkpt lat="47.74237" lon="0.35237">
        <ele>101.7</ele>
        <time>2016-06-17T08:31:56Z</time>
      </trkpt>
      <trkpt lat="47.74246" lon="0.3523">
        <ele>101.6</ele>
        <time>2016-06-17T08:32:07Z</time>
      </trkpt>
      <trkpt lat="47.74253" lon="0.35219">
        <ele>101.2</ele>
        <time>2016-06-17T08:32:16Z</time>
      </trkpt>
      <trkpt lat="47.74261" lon="0.35212">
        <ele>101.9</ele>
        <time>2016-06-17T08:33:31Z</time>
      </trkpt>
      <trkpt lat="47.74268" lon="0.35202">
        <ele>102.8</ele>
        <time>2016-06-17T08:33:43Z</time>
      </trkpt>
      <trkpt lat="47.74276" lon="0.35196">
        <ele>102.6</ele>
        <time>2016-06-17T08:33:51Z</time>
      </trkpt>
      <trkpt lat="47.74283" lon="0.35187">
        <ele>102.9</ele>
        <time>2016-06-17T08:34:01Z</time>
      </trkpt>
      <trkpt lat="47.7429" lon="0.35177">
        <ele>103.5</ele>
        <time>2016-06-17T08:34:10Z</time>
      </trkpt>
      <trkpt lat="47.74297" lon="0.35169">
        <ele>104.1</ele>
        <time>2016-06-17T08:34:18Z</time>
      </trkpt>
      <trkpt lat="47.74302" lon="0.35157">
        <ele>104.4</ele>
        <time>2016-06-17T08:34:28Z</time>
      </trkpt>
      <trkpt lat="47.7431" lon="0.35148">
        <ele>104.7</ele>
        <time>2016-06-17T08:34:45Z</time>
      </trkpt>
      <trkpt lat="47.74317" lon="0.35139">
        <ele>104.1</ele>
        <time>2016-06-17T08:34:51Z</time>
      </trkpt>
      <trkpt lat="47.74324" lon="0.3513">
        <ele>104.2</ele>
        <time>2016-06-17T08:35:06Z</time>
      </trkpt>
      <trkpt lat="47.74325" lon="0.35116">
        <ele>104.1</ele>
        <time>2016-06-17T08:35:17Z</time>
      </trkpt>
      <trkpt lat="47.74331" lon="0.35104">
        <ele>103.8</ele>
        <time>2016-06-17T08:35:28Z</time>
      </trkpt>
      <trkpt lat="47.74338" lon="0.35096">
        <ele>105</ele>
        <time>2016-06-17T08:35:56Z</time>
      </trkpt>
      <trkpt lat="47.74347" lon="0.35092">
        <ele>106.2</ele>
        <time>2016-06-17T08:36:14Z</time>
      </trkpt>
      <trkpt lat="47.74356" lon="0.35089">
        <ele>106</ele>
        <time>2016-06-17T08:36:21Z</time>
      </trkpt>
      <trkpt lat="47.74366" lon="0.35089">
        <ele>105.1</ele>
        <time>2016-06-17T08:36:29Z</time>
      </trkpt>
      <trkpt lat="47.74375" lon="0.35085">
        <ele>105.2</ele>
        <time>2016-06-17T08:36:35Z</time>
      </trkpt>
      <trkpt lat="47.74385" lon="0.35084">
        <ele>104.8</ele>
        <time>2016-06-17T08:36:50Z</time>
      </trkpt>
      <trkpt lat="47.74395" lon="0.35081">
        <ele>104.7</ele>
        <time>2016-06-17T08:36:59Z</time>
      </trkpt>
      <trkpt lat="47.74405" lon="0.35081">
        <ele>105.4</ele>
        <time>2016-06-17T08:37:06Z</time>
      </trkpt>
      <trkpt lat="47.74414" lon="0.35079">
        <ele>106.5</ele>
        <time>2016-06-17T08:37:20Z</time>
      </trkpt>
      <trkpt lat="47.74425" lon="0.35077">
        <ele>106.8</ele>
        <time>2016-06-17T08:37:54Z</time>
      </trkpt>
      <trkpt lat="47.74434" lon="0.35075">
        <ele>107.9</ele>
        <time>2016-06-17T08:38:34Z</time>
      </trkpt>
      <trkpt lat="47.74443" lon="0.35077">
        <ele>111.8</ele>
        <time>2016-06-17T08:39:19Z</time>
      </trkpt>
      <trkpt lat="47.74452" lon="0.35079">
        <ele>108.2</ele>
        <time>2016-06-17T08:39:28Z</time>
      </trkpt>
      <trkpt lat="47.74461" lon="0.3508">
        <ele>107.5</ele>
        <time>2016-06-17T08:39:38Z</time>
      </trkpt>
      <trkpt lat="47.74471" lon="0.35078">
        <ele>108.2</ele>
        <time>2016-06-17T08:39:50Z</time>
      </trkpt>
      <trkpt lat="47.74481" lon="0.35072">
        <ele>108.2</ele>
        <time>2016-06-17T08:39:55Z</time>
      </trkpt>
      <trkpt lat="47.74491" lon="0.35066">
        <ele>108.9</ele>
        <time>2016-06-17T08:40:04Z</time>
      </trkpt>
      <trkpt lat="47.74501" lon="0.35063">
        <ele>109.5</ele>
        <time>2016-06-17T08:40:11Z</time>
      </trkpt>
      <trkpt lat="47.7451" lon="0.35057">
        <ele>110.6</ele>
        <time>2016-06-17T08:40:40Z</time>
      </trkpt>
      <trkpt lat="47.7452" lon="0.35049">
        <ele>111</ele>
        <time>2016-06-17T08:40:45Z</time>
      </trkpt>
      <trkpt lat="47.74529" lon="0.35044">
        <ele>111.6</ele>
        <time>2016-06-17T08:40:57Z</time>
      </trkpt>
      <trkpt lat="47.74539" lon="0.35044">
        <ele>112.7</ele>
        <time>2016-06-17T08:41:06Z</time>
      </trkpt>
      <trkpt lat="47.74549" lon="0.35045">
        <ele>112.2</ele>
        <time>2016-06-17T08:41:11Z</time>
      </trkpt>
      <trkpt lat="47.74558" lon="0.35046">
        <ele>112.7</ele>
        <time>2016-06-17T08:41:17Z</time>
      </trkpt>
      <trkpt lat="47.74567" lon="0.35045">
        <ele>112.4</ele>
        <time>2016-06-17T08:41:33Z</time>
      </trkpt>
      <trkpt lat="47.74575" lon="0.35038">
        <ele>112.1</ele>
        <time>2016-06-17T08:41:55Z</time>
      </trkpt>
      <trkpt lat="47.74584" lon="0.35042">
        <ele>112.6</ele>
        <time>2016-06-17T08:42:04Z</time>
      </trkpt>
      <trkpt lat="47.74593" lon="0.3505">
        <ele>112.6</ele>
        <time>2016-06-17T08:42:13Z</time>
      </trkpt>
      <trkpt lat="47.74602" lon="0.35058">
        <ele>112.2</ele>
        <time>2016-06-17T08:42:21Z</time>
      </trkpt>
      <trkpt lat="47.74611" lon="0.35065">
        <ele>112.4</ele>
        <time>2016-06-17T08:42:31Z</time>
      </trkpt>
      <trkpt lat="47.74618" lon="0.35073">
        <ele>112</ele>
        <time>2016-06-17T08:42:40Z</time>
      </trkpt>
      <trkpt lat="47.74627" lon="0.35079">
        <ele>112.4</ele>
        <time>2016-06-17T08:42:48Z</time>
      </trkpt>
      <trkpt lat="47.74636" lon="0.35082">
        <ele>111.8</ele>
        <time>2016-06-17T08:42:55Z</time>
      </trkpt>
      <trkpt lat="47.74645" lon="0.35084">
        <ele>112.3</ele>
        <time>2016-06-17T08:43:02Z</time>
      </trkpt>
      <trkpt lat="47.74655" lon="0.35089">
        <ele>112</ele>
        <time>2016-06-17T08:43:12Z</time>
      </trkpt>
      <trkpt lat="47.74664" lon="0.35088">
        <ele>112.3</ele>
        <time>2016-06-17T08:43:17Z</time>
      </trkpt>
      <trkpt lat="47.74673" lon="0.35092">
        <ele>114.1</ele>
        <time>2016-06-17T08:43:25Z</time>
      </trkpt>
      <trkpt lat="47.74683" lon="0.3509">
        <ele>113.3</ele>
        <time>2016-06-17T08:43:34Z</time>
      </trkpt>
      <trkpt lat="47.74692" lon="0.35083">
        <ele>113.8</ele>
        <time>2016-06-17T08:43:39Z</time>
      </trkpt>
      <trkpt lat="47.74701" lon="0.35079">
        <ele>114.1</ele>
        <time>2016-06-17T08:43:45Z</time>
      </trkpt>
      <trkpt lat="47.74708" lon="0.35071">
        <ele>114.2</ele>
        <time>2016-06-17T08:43:52Z</time>
      </trkpt>
      <trkpt lat="47.74715" lon="0.35062">
        <ele>114.1</ele>
        <time>2016-06-17T08:44:00Z</time>
      </trkpt>
      <trkpt lat="47.74721" lon="0.35051">
        <ele>114.8</ele>
        <time>2016-06-17T08:44:07Z</time>
      </trkpt>
      <trkpt lat="47.74728" lon="0.35044">
        <ele>114.2</ele>
        <time>2016-06-17T08:44:14Z</time>
      </trkpt>
      <trkpt lat="47.74737" lon="0.3504">
        <ele>114.1</ele>
        <time>2016-06-17T08:44:21Z</time>
      </trkpt>
      <trkpt lat="47.74746" lon="0.35037">
        <ele>113.7</ele>
        <time>2016-06-17T08:44:30Z</time>
      </trkpt>
      <trkpt lat="47.74755" lon="0.35031">
        <ele>115.6</ele>
        <time>2016-06-17T08:44:46Z</time>
      </trkpt>
      <trkpt lat="47.74762" lon="0.35023">
        <ele>119.3</ele>
        <time>2016-06-17T08:48:10Z</time>
      </trkpt>
      <trkpt lat="47.74772" lon="0.35023">
        <ele>120</ele>
        <time>2016-06-17T08:48:20Z</time>
      </trkpt>
      <trkpt lat="47.74781" lon="0.35022">
        <ele>120.8</ele>
        <time>2016-06-17T08:48:28Z</time>
      </trkpt>
      <trkpt lat="47.7479" lon="0.35021">
        <ele>121.6</ele>
        <time>2016-06-17T08:48:41Z</time>
      </trkpt>
      <trkpt lat="47.74799" lon="0.35016">
        <ele>121.7</ele>
        <time>2016-06-17T08:49:04Z</time>
      </trkpt>
      <trkpt lat="47.74807" lon="0.3501">
        <ele>123.1</ele>
        <time>2016-06-17T08:49:34Z</time>
      </trkpt>
      <trkpt lat="47.74816" lon="0.35006">
        <ele>121.4</ele>
        <time>2016-06-17T08:49:52Z</time>
      </trkpt>
      <trkpt lat="47.74825" lon="0.35">
        <ele>121.4</ele>
        <time>2016-06-17T08:49:57Z</time>
      </trkpt>
      <trkpt lat="47.74832" lon="0.34989">
        <ele>121.1</ele>
        <time>2016-06-17T08:50:02Z</time>
      </trkpt>
      <trkpt lat="47.74841" lon="0.34982">
        <ele>120.2</ele>
        <time>2016-06-17T08:50:11Z</time>
      </trkpt>
      <trkpt lat="47.74848" lon="0.34973">
        <ele>120.2</ele>
        <time>2016-06-17T08:50:19Z</time>
      </trkpt>
      <trkpt lat="47.74855" lon="0.34964">
        <ele>120.2</ele>
        <time>2016-06-17T08:50:30Z</time>
      </trkpt>
      <trkpt lat="47.74864" lon="0.34961">
        <ele>119.8</ele>
        <time>2016-06-17T08:50:38Z</time>
      </trkpt>
      <trkpt lat="47.74871" lon="0.34952">
        <ele>120.5</ele>
        <time>2016-06-17T08:50:49Z</time>
      </trkpt>
      <trkpt lat="47.74881" lon="0.34955">
        <ele>120.9</ele>
        <time>2016-06-17T08:51:16Z</time>
      </trkpt>
      <trkpt lat="47.7489" lon="0.34951">
        <ele>121.7</ele>
        <time>2016-06-17T08:51:22Z</time>
      </trkpt>
      <trkpt lat="47.74899" lon="0.3495">
        <ele>122</ele>
        <time>2016-06-17T08:51:29Z</time>
      </trkpt>
      <trkpt lat="47.74909" lon="0.34947">
        <ele>122</ele>
        <time>2016-06-17T08:51:36Z</time>
      </trkpt>
      <trkpt lat="47.74918" lon="0.34949">
        <ele>122.2</ele>
        <time>2016-06-17T08:51:45Z</time>
      </trkpt>
      <trkpt lat="47.74928" lon="0.34949">
        <ele>123.2</ele>
        <time>2016-06-17T08:51:55Z</time>
      </trkpt>
      <trkpt lat="47.74937" lon="0.3495">
        <ele>124</ele>
        <time>2016-06-17T08:52:06Z</time>
      </trkpt>
      <trkpt lat="47.74946" lon="0.34953">
        <ele>122.2</ele>
        <time>2016-06-17T08:52:15Z</time>
      </trkpt>
      <trkpt lat="47.74957" lon="0.34954">
        <ele>122.6</ele>
        <time>2016-06-17T08:52:23Z</time>
      </trkpt>
      <trkpt lat="47.74968" lon="0.34956">
        <ele>121.8</ele>
        <time>2016-06-17T08:52:30Z</time>
      </trkpt>
      <trkpt lat="47.74976" lon="0.34961">
        <ele>121.3</ele>
        <time>2016-06-17T08:52:39Z</time>
      </trkpt>
      <trkpt lat="47.74986" lon="0.3496">
        <ele>121.6</ele>
        <time>2016-06-17T08:52:46Z</time>
      </trkpt>
      <trkpt lat="47.74994" lon="0.34966">
        <ele>121.3</ele>
        <time>2016-06-17T08:52:56Z</time>
      </trkpt>
      <trkpt lat="47.75004" lon="0.34969">
        <ele>120.6</ele>
        <time>2016-06-17T08:53:03Z</time>
      </trkpt>
      <trkpt lat="47.75013" lon="0.34973">
        <ele>114.3</ele>
        <time>2016-06-17T08:53:10Z</time>
      </trkpt>
      <trkpt lat="47.7502" lon="0.34963">
        <ele>120.7</ele>
        <time>2016-06-17T08:53:18Z</time>
      </trkpt>
      <trkpt lat="47.75029" lon="0.34954">
        <ele>120.8</ele>
        <time>2016-06-17T08:53:24Z</time>
      </trkpt>
      <trkpt lat="47.75039" lon="0.34952">
        <ele>123</ele>
        <time>2016-06-17T08:53:33Z</time>
      </trkpt>
      <trkpt lat="47.75049" lon="0.34954">
        <ele>122.8</ele>
        <time>2016-06-17T08:53:41Z</time>
      </trkpt>
      <trkpt lat="47.7506" lon="0.3495">
        <ele>122.2</ele>
        <time>2016-06-17T08:53:52Z</time>
      </trkpt>
      <trkpt lat="47.7507" lon="0.34946">
        <ele>122.2</ele>
        <time>2016-06-17T08:54:00Z</time>
      </trkpt>
      <trkpt lat="47.75079" lon="0.34945">
        <ele>123.3</ele>
        <time>2016-06-17T08:54:12Z</time>
      </trkpt>
      <trkpt lat="47.75088" lon="0.34941">
        <ele>124.7</ele>
        <time>2016-06-17T08:54:23Z</time>
      </trkpt>
      <trkpt lat="47.75099" lon="0.34936">
        <ele>124.1</ele>
        <time>2016-06-17T08:54:29Z</time>
      </trkpt>
      <trkpt lat="47.75108" lon="0.34935">
        <ele>124.9</ele>
        <time>2016-06-17T08:54:36Z</time>
      </trkpt>
      <trkpt lat="47.75117" lon="0.34931">
        <ele>124.7</ele>
        <time>2016-06-17T08:54:42Z</time>
      </trkpt>
      <trkpt lat="47.75126" lon="0.34932">
        <ele>124.7</ele>
        <time>2016-06-17T08:54:54Z</time>
      </trkpt>
      <trkpt lat="47.75136" lon="0.34934">
        <ele>124.3</ele>
        <time>2016-06-17T08:55:03Z</time>
      </trkpt>
      <trkpt lat="47.75146" lon="0.34934">
        <ele>124.9</ele>
        <time>2016-06-17T08:55:11Z</time>
      </trkpt>
      <trkpt lat="47.75155" lon="0.34938">
        <ele>124.6</ele>
        <time>2016-06-17T08:55:21Z</time>
      </trkpt>
      <trkpt lat="47.75164" lon="0.34941">
        <ele>125.4</ele>
        <time>2016-06-17T08:55:32Z</time>
      </trkpt>
      <trkpt lat="47.75173" lon="0.34942">
        <ele>125</ele>
        <time>2016-06-17T08:55:38Z</time>
      </trkpt>
      <trkpt lat="47.75183" lon="0.34943">
        <ele>126</ele>
        <time>2016-06-17T08:55:45Z</time>
      </trkpt>
      <trkpt lat="47.75192" lon="0.3494">
        <ele>126.4</ele>
        <time>2016-06-17T08:55:50Z</time>
      </trkpt>
      <trkpt lat="47.75203" lon="0.34936">
        <ele>126.8</ele>
        <time>2016-06-17T08:55:58Z</time>
      </trkpt>
      <trkpt lat="47.75212" lon="0.34938">
        <ele>126.7</ele>
        <time>2016-06-17T08:56:08Z</time>
      </trkpt>
      <trkpt lat="47.75222" lon="0.34937">
        <ele>127.2</ele>
        <time>2016-06-17T08:56:15Z</time>
      </trkpt>
      <trkpt lat="47.75232" lon="0.34937">
        <ele>127.9</ele>
        <time>2016-06-17T08:56:22Z</time>
      </trkpt>
      <trkpt lat="47.7524" lon="0.34933">
        <ele>128</ele>
        <time>2016-06-17T08:56:28Z</time>
      </trkpt>
      <trkpt lat="47.7525" lon="0.3493">
        <ele>129</ele>
        <time>2016-06-17T08:56:38Z</time>
      </trkpt>
      <trkpt lat="47.7526" lon="0.34927">
        <ele>129.1</ele>
        <time>2016-06-17T08:56:46Z</time>
      </trkpt>
      <trkpt lat="47.75269" lon="0.34924">
        <ele>128.7</ele>
        <time>2016-06-17T08:56:53Z</time>
      </trkpt>
      <trkpt lat="47.75277" lon="0.34916">
        <ele>129.1</ele>
        <time>2016-06-17T08:57:03Z</time>
      </trkpt>
      <trkpt lat="47.75287" lon="0.34909">
        <ele>130.1</ele>
        <time>2016-06-17T08:57:10Z</time>
      </trkpt>
      <trkpt lat="47.75296" lon="0.34901">
        <ele>130.2</ele>
        <time>2016-06-17T08:57:18Z</time>
      </trkpt>
      <trkpt lat="47.75303" lon="0.34891">
        <ele>129.3</ele>
        <time>2016-06-17T08:57:23Z</time>
      </trkpt>
      <trkpt lat="47.75308" lon="0.34879">
        <ele>129</ele>
        <time>2016-06-17T08:57:29Z</time>
      </trkpt>
      <trkpt lat="47.75315" lon="0.34868">
        <ele>130.5</ele>
        <time>2016-06-17T08:57:59Z</time>
      </trkpt>
      <trkpt lat="47.75317" lon="0.34852">
        <ele>129.8</ele>
        <time>2016-06-17T08:58:12Z</time>
      </trkpt>
      <trkpt lat="47.75323" lon="0.34841">
        <ele>130.7</ele>
        <time>2016-06-17T08:58:26Z</time>
      </trkpt>
      <trkpt lat="47.75329" lon="0.34827">
        <ele>129.6</ele>
        <time>2016-06-17T08:58:37Z</time>
      </trkpt>
      <trkpt lat="47.75335" lon="0.34817">
        <ele>130</ele>
        <time>2016-06-17T08:58:42Z</time>
      </trkpt>
      <trkpt lat="47.75342" lon="0.34806">
        <ele>131.2</ele>
        <time>2016-06-17T08:58:51Z</time>
      </trkpt>
      <trkpt lat="47.7535" lon="0.34798">
        <ele>130.7</ele>
        <time>2016-06-17T08:59:01Z</time>
      </trkpt>
      <trkpt lat="47.75357" lon="0.34785">
        <ele>131.4</ele>
        <time>2016-06-17T08:59:08Z</time>
      </trkpt>
      <trkpt lat="47.75364" lon="0.34775">
        <ele>131.6</ele>
        <time>2016-06-17T08:59:18Z</time>
      </trkpt>
      <trkpt lat="47.75355" lon="0.34778">
        <ele>132.3</ele>
        <time>2016-06-17T09:00:52Z</time>
      </trkpt>
      <trkpt lat="47.75355" lon="0.34793">
        <ele>133.3</ele>
        <time>2016-06-17T09:01:00Z</time>
      </trkpt>
      <trkpt lat="47.75353" lon="0.34806">
        <ele>133.8</ele>
        <time>2016-06-17T09:01:10Z</time>
      </trkpt>
      <trkpt lat="47.75358" lon="0.34818">
        <ele>134.1</ele>
        <time>2016-06-17T09:01:17Z</time>
      </trkpt>
      <trkpt lat="47.75363" lon="0.34829">
        <ele>135.1</ele>
        <time>2016-06-17T09:01:22Z</time>
      </trkpt>
      <trkpt lat="47.75365" lon="0.34844">
        <ele>135.7</ele>
        <time>2016-06-17T09:01:30Z</time>
      </trkpt>
      <trkpt lat="47.75373" lon="0.34853">
        <ele>136.9</ele>
        <time>2016-06-17T09:01:38Z</time>
      </trkpt>
      <trkpt lat="47.75379" lon="0.34864">
        <ele>138.6</ele>
        <time>2016-06-17T09:01:47Z</time>
      </trkpt>
      <trkpt lat="47.75387" lon="0.34874">
        <ele>140.5</ele>
        <time>2016-06-17T09:01:58Z</time>
      </trkpt>
      <trkpt lat="47.75393" lon="0.34886">
        <ele>141.6</ele>
        <time>2016-06-17T09:02:06Z</time>
      </trkpt>
      <trkpt lat="47.754" lon="0.34896">
        <ele>143.8</ele>
        <time>2016-06-17T09:02:17Z</time>
      </trkpt>
      <trkpt lat="47.75407" lon="0.34904">
        <ele>144.9</ele>
        <time>2016-06-17T09:02:23Z</time>
      </trkpt>
      <trkpt lat="47.75416" lon="0.34913">
        <ele>145</ele>
        <time>2016-06-17T09:02:32Z</time>
      </trkpt>
      <trkpt lat="47.75425" lon="0.34913">
        <ele>146.9</ele>
        <time>2016-06-17T09:03:23Z</time>
      </trkpt>
      <trkpt lat="47.75431" lon="0.34926">
        <ele>146.2</ele>
        <time>2016-06-17T09:03:59Z</time>
      </trkpt>
      <trkpt lat="47.75437" lon="0.34936">
        <ele>145.9</ele>
        <time>2016-06-17T09:04:06Z</time>
      </trkpt>
      <trkpt lat="47.75443" lon="0.34947">
        <ele>147.1</ele>
        <time>2016-06-17T09:04:15Z</time>
      </trkpt>
      <trkpt lat="47.75447" lon="0.34959">
        <ele>146.2</ele>
        <time>2016-06-17T09:04:22Z</time>
      </trkpt>
      <trkpt lat="47.75452" lon="0.34972">
        <ele>147.5</ele>
        <time>2016-06-17T09:04:30Z</time>
      </trkpt>
      <trkpt lat="47.75455" lon="0.34985">
        <ele>147.6</ele>
        <time>2016-06-17T09:04:37Z</time>
      </trkpt>
      <trkpt lat="47.7546" lon="0.34998">
        <ele>148.9</ele>
        <time>2016-06-17T09:04:46Z</time>
      </trkpt>
      <trkpt lat="47.75465" lon="0.35011">
        <ele>147.7</ele>
        <time>2016-06-17T09:04:54Z</time>
      </trkpt>
      <trkpt lat="47.75469" lon="0.35024">
        <ele>149.5</ele>
        <time>2016-06-17T09:05:03Z</time>
      </trkpt>
      <trkpt lat="47.75473" lon="0.35037">
        <ele>148.8</ele>
        <time>2016-06-17T09:05:11Z</time>
      </trkpt>
      <trkpt lat="47.75477" lon="0.3505">
        <ele>149.3</ele>
        <time>2016-06-17T09:05:20Z</time>
      </trkpt>
      <trkpt lat="47.75478" lon="0.35065">
        <ele>150.2</ele>
        <time>2016-06-17T09:05:28Z</time>
      </trkpt>
      <trkpt lat="47.75481" lon="0.35078">
        <ele>150.8</ele>
        <time>2016-06-17T09:05:37Z</time>
      </trkpt>
      <trkpt lat="47.75483" lon="0.35092">
        <ele>151.2</ele>
        <time>2016-06-17T09:05:45Z</time>
      </trkpt>
      <trkpt lat="47.75485" lon="0.35107">
        <ele>150.9</ele>
        <time>2016-06-17T09:05:53Z</time>
      </trkpt>
      <trkpt lat="47.75486" lon="0.35121">
        <ele>152.1</ele>
        <time>2016-06-17T09:06:00Z</time>
      </trkpt>
      <trkpt lat="47.75488" lon="0.35136">
        <ele>152.1</ele>
        <time>2016-06-17T09:06:09Z</time>
      </trkpt>
      <trkpt lat="47.75489" lon="0.35151">
        <ele>153.4</ele>
        <time>2016-06-17T09:06:17Z</time>
      </trkpt>
      <trkpt lat="47.75491" lon="0.35164">
        <ele>152.9</ele>
        <time>2016-06-17T09:06:25Z</time>
      </trkpt>
      <trkpt lat="47.75494" lon="0.35178">
        <ele>153.8</ele>
        <time>2016-06-17T09:06:33Z</time>
      </trkpt>
      <trkpt lat="47.75495" lon="0.35192">
        <ele>153.8</ele>
        <time>2016-06-17T09:06:41Z</time>
      </trkpt>
      <trkpt lat="47.75498" lon="0.35205">
        <ele>153.5</ele>
        <time>2016-06-17T09:06:49Z</time>
      </trkpt>
      <trkpt lat="47.75501" lon="0.35219">
        <ele>154.6</ele>
        <time>2016-06-17T09:06:56Z</time>
      </trkpt>
      <trkpt lat="47.75505" lon="0.35232">
        <ele>155</ele>
        <time>2016-06-17T09:07:04Z</time>
      </trkpt>
      <trkpt lat="47.75509" lon="0.35244">
        <ele>154.6</ele>
        <time>2016-06-17T09:07:11Z</time>
      </trkpt>
      <trkpt lat="47.75514" lon="0.35257">
        <ele>155.5</ele>
        <time>2016-06-17T09:07:20Z</time>
      </trkpt>
      <trkpt lat="47.7552" lon="0.35268">
        <ele>155</ele>
        <time>2016-06-17T09:07:28Z</time>
      </trkpt>
      <trkpt lat="47.75522" lon="0.35282">
        <ele>156.1</ele>
        <time>2016-06-17T09:07:36Z</time>
      </trkpt>
      <trkpt lat="47.75526" lon="0.35296">
        <ele>156.7</ele>
        <time>2016-06-17T09:07:44Z</time>
      </trkpt>
      <trkpt lat="47.7553" lon="0.35309">
        <ele>156.1</ele>
        <time>2016-06-17T09:07:52Z</time>
      </trkpt>
      <trkpt lat="47.75535" lon="0.35322">
        <ele>157.4</ele>
        <time>2016-06-17T09:08:00Z</time>
      </trkpt>
      <trkpt lat="47.75539" lon="0.35335">
        <ele>157.8</ele>
        <time>2016-06-17T09:08:08Z</time>
      </trkpt>
      <trkpt lat="47.75543" lon="0.35348">
        <ele>158.2</ele>
        <time>2016-06-17T09:08:15Z</time>
      </trkpt>
      <trkpt lat="47.75545" lon="0.35361">
        <ele>158.2</ele>
        <time>2016-06-17T09:08:22Z</time>
      </trkpt>
      <trkpt lat="47.75548" lon="0.35374">
        <ele>157.4</ele>
        <time>2016-06-17T09:08:30Z</time>
      </trkpt>
      <trkpt lat="47.75552" lon="0.35388">
        <ele>157.9</ele>
        <time>2016-06-17T09:09:01Z</time>
      </trkpt>
      <trkpt lat="47.75554" lon="0.35402">
        <ele>157.4</ele>
        <time>2016-06-17T09:09:09Z</time>
      </trkpt>
      <trkpt lat="47.75555" lon="0.35416">
        <ele>157.4</ele>
        <time>2016-06-17T09:09:18Z</time>
      </trkpt>
      <trkpt lat="47.75558" lon="0.35429">
        <ele>157.7</ele>
        <time>2016-06-17T09:09:25Z</time>
      </trkpt>
      <trkpt lat="47.75561" lon="0.35443">
        <ele>156.9</ele>
        <time>2016-06-17T09:09:32Z</time>
      </trkpt>
      <trkpt lat="47.75563" lon="0.35457">
        <ele>157.9</ele>
        <time>2016-06-17T09:09:40Z</time>
      </trkpt>
      <trkpt lat="47.75566" lon="0.35472">
        <ele>158</ele>
        <time>2016-06-17T09:09:49Z</time>
      </trkpt>
      <trkpt lat="47.75571" lon="0.35483">
        <ele>158.1</ele>
        <time>2016-06-17T09:09:57Z</time>
      </trkpt>
      <trkpt lat="47.75573" lon="0.35497">
        <ele>157.7</ele>
        <time>2016-06-17T09:10:04Z</time>
      </trkpt>
      <trkpt lat="47.75576" lon="0.3551">
        <ele>157.1</ele>
        <time>2016-06-17T09:10:11Z</time>
      </trkpt>
      <trkpt lat="47.75579" lon="0.35525">
        <ele>156.8</ele>
        <time>2016-06-17T09:10:18Z</time>
      </trkpt>
      <trkpt lat="47.7558" lon="0.35539">
        <ele>157.4</ele>
        <time>2016-06-17T09:10:27Z</time>
      </trkpt>
      <trkpt lat="47.75583" lon="0.35553">
        <ele>157.3</ele>
        <time>2016-06-17T09:10:36Z</time>
      </trkpt>
      <trkpt lat="47.75585" lon="0.35567">
        <ele>157.3</ele>
        <time>2016-06-17T09:10:43Z</time>
      </trkpt>
      <trkpt lat="47.75586" lon="0.35581">
        <ele>156.9</ele>
        <time>2016-06-17T09:10:50Z</time>
      </trkpt>
      <trkpt lat="47.75586" lon="0.35596">
        <ele>156.9</ele>
        <time>2016-06-17T09:10:57Z</time>
      </trkpt>
      <trkpt lat="47.75587" lon="0.35609">
        <ele>156.6</ele>
        <time>2016-06-17T09:11:04Z</time>
      </trkpt>
      <trkpt lat="47.75587" lon="0.35623">
        <ele>156.8</ele>
        <time>2016-06-17T09:11:12Z</time>
      </trkpt>
      <trkpt lat="47.75586" lon="0.35637">
        <ele>156</ele>
        <time>2016-06-17T09:11:19Z</time>
      </trkpt>
      <trkpt lat="47.75586" lon="0.3565">
        <ele>155.5</ele>
        <time>2016-06-17T09:11:26Z</time>
      </trkpt>
      <trkpt lat="47.75587" lon="0.35664">
        <ele>155.1</ele>
        <time>2016-06-17T09:11:33Z</time>
      </trkpt>
      <trkpt lat="47.75586" lon="0.3568">
        <ele>154.4</ele>
        <time>2016-06-17T09:11:42Z</time>
      </trkpt>
      <trkpt lat="47.75587" lon="0.35695">
        <ele>153.8</ele>
        <time>2016-06-17T09:11:49Z</time>
      </trkpt>
      <trkpt lat="47.75593" lon="0.35705">
        <ele>154.1</ele>
        <time>2016-06-17T09:13:59Z</time>
      </trkpt>
      <trkpt lat="47.75596" lon="0.35719">
        <ele>154.2</ele>
        <time>2016-06-17T09:14:07Z</time>
      </trkpt>
      <trkpt lat="47.75597" lon="0.35734">
        <ele>153.2</ele>
        <time>2016-06-17T09:14:15Z</time>
      </trkpt>
      <trkpt lat="47.75601" lon="0.35748">
        <ele>153.5</ele>
        <time>2016-06-17T09:14:28Z</time>
      </trkpt>
      <trkpt lat="47.75605" lon="0.3576">
        <ele>153.2</ele>
        <time>2016-06-17T09:14:34Z</time>
      </trkpt>
      <trkpt lat="47.75609" lon="0.35773">
        <ele>153</ele>
        <time>2016-06-17T09:14:40Z</time>
      </trkpt>
      <trkpt lat="47.75614" lon="0.35786">
        <ele>151.9</ele>
        <time>2016-06-17T09:14:48Z</time>
      </trkpt>
      <trkpt lat="47.75618" lon="0.35799">
        <ele>151.1</ele>
        <time>2016-06-17T09:14:55Z</time>
      </trkpt>
      <trkpt lat="47.75622" lon="0.35812">
        <ele>151.6</ele>
        <time>2016-06-17T09:15:02Z</time>
      </trkpt>
      <trkpt lat="47.75625" lon="0.35826">
        <ele>152.4</ele>
        <time>2016-06-17T09:15:11Z</time>
      </trkpt>
      <trkpt lat="47.7563" lon="0.35838">
        <ele>151.8</ele>
        <time>2016-06-17T09:15:18Z</time>
      </trkpt>
      <trkpt lat="47.75634" lon="0.35851">
        <ele>151.3</ele>
        <time>2016-06-17T09:15:25Z</time>
      </trkpt>
      <trkpt lat="47.75637" lon="0.35864">
        <ele>150.7</ele>
        <time>2016-06-17T09:15:33Z</time>
      </trkpt>
      <trkpt lat="47.75645" lon="0.35873">
        <ele>150.1</ele>
        <time>2016-06-17T09:15:41Z</time>
      </trkpt>
      <trkpt lat="47.75653" lon="0.35883">
        <ele>149.6</ele>
        <time>2016-06-17T09:15:49Z</time>
      </trkpt>
      <trkpt lat="47.75659" lon="0.35892">
        <ele>149.3</ele>
        <time>2016-06-17T09:15:56Z</time>
      </trkpt>
      <trkpt lat="47.75667" lon="0.35903">
        <ele>149.4</ele>
        <time>2016-06-17T09:16:02Z</time>
      </trkpt>
      <trkpt lat="47.75672" lon="0.35914">
        <ele>149.3</ele>
        <time>2016-06-17T09:16:10Z</time>
      </trkpt>
      <trkpt lat="47.75676" lon="0.35927">
        <ele>148.9</ele>
        <time>2016-06-17T09:16:17Z</time>
      </trkpt>
      <trkpt lat="47.75677" lon="0.35941">
        <ele>148.6</ele>
        <time>2016-06-17T09:16:22Z</time>
      </trkpt>
      <trkpt lat="47.75682" lon="0.35954">
        <ele>148.1</ele>
        <time>2016-06-17T09:16:31Z</time>
      </trkpt>
      <trkpt lat="47.75689" lon="0.35962">
        <ele>147.9</ele>
        <time>2016-06-17T09:16:37Z</time>
      </trkpt>
      <trkpt lat="47.75696" lon="0.35971">
        <ele>147.7</ele>
        <time>2016-06-17T09:16:44Z</time>
      </trkpt>
      <trkpt lat="47.75701" lon="0.35982">
        <ele>147.2</ele>
        <time>2016-06-17T09:16:52Z</time>
      </trkpt>
      <trkpt lat="47.75705" lon="0.35995">
        <ele>146.6</ele>
        <time>2016-06-17T09:17:00Z</time>
      </trkpt>
      <trkpt lat="47.7571" lon="0.36007">
        <ele>146.9</ele>
        <time>2016-06-17T09:17:08Z</time>
      </trkpt>
      <trkpt lat="47.75719" lon="0.36005">
        <ele>148.5</ele>
        <time>2016-06-17T09:17:38Z</time>
      </trkpt>
      <trkpt lat="47.75728" lon="0.35997">
        <ele>148.2</ele>
        <time>2016-06-17T09:17:46Z</time>
      </trkpt>
      <trkpt lat="47.75736" lon="0.3599">
        <ele>149</ele>
        <time>2016-06-17T09:17:54Z</time>
      </trkpt>
      <trkpt lat="47.75745" lon="0.35982">
        <ele>149.2</ele>
        <time>2016-06-17T09:18:02Z</time>
      </trkpt>
      <trkpt lat="47.75753" lon="0.35975">
        <ele>148.8</ele>
        <time>2016-06-17T09:18:10Z</time>
      </trkpt>
      <trkpt lat="47.75761" lon="0.35967">
        <ele>149</ele>
        <time>2016-06-17T09:18:17Z</time>
      </trkpt>
      <trkpt lat="47.75769" lon="0.35959">
        <ele>150.2</ele>
        <time>2016-06-17T09:18:25Z</time>
      </trkpt>
      <trkpt lat="47.75778" lon="0.35951">
        <ele>150.8</ele>
        <time>2016-06-17T09:18:33Z</time>
      </trkpt>
      <trkpt lat="47.75785" lon="0.35943">
        <ele>150.7</ele>
        <time>2016-06-17T09:18:40Z</time>
      </trkpt>
      <trkpt lat="47.75793" lon="0.35936">
        <ele>150.5</ele>
        <time>2016-06-17T09:18:46Z</time>
      </trkpt>
      <trkpt lat="47.75801" lon="0.35928">
        <ele>151.2</ele>
        <time>2016-06-17T09:18:53Z</time>
      </trkpt>
      <trkpt lat="47.7581" lon="0.35919">
        <ele>151.2</ele>
        <time>2016-06-17T09:19:01Z</time>
      </trkpt>
      <trkpt lat="47.75817" lon="0.35911">
        <ele>152.2</ele>
        <time>2016-06-17T09:19:08Z</time>
      </trkpt>
      <trkpt lat="47.75825" lon="0.35902">
        <ele>151.6</ele>
        <time>2016-06-17T09:19:15Z</time>
      </trkpt>
      <trkpt lat="47.75834" lon="0.35894">
        <ele>150.9</ele>
        <time>2016-06-17T09:19:22Z</time>
      </trkpt>
      <trkpt lat="47.75842" lon="0.35886">
        <ele>152.8</ele>
        <time>2016-06-17T09:19:30Z</time>
      </trkpt>
      <trkpt lat="47.75849" lon="0.35877">
        <ele>153.8</ele>
        <time>2016-06-17T09:19:37Z</time>
      </trkpt>
      <trkpt lat="47.75857" lon="0.3587">
        <ele>153.3</ele>
        <time>2016-06-17T09:19:44Z</time>
      </trkpt>
      <trkpt lat="47.75866" lon="0.35862">
        <ele>153.4</ele>
        <time>2016-06-17T09:19:52Z</time>
      </trkpt>
      <trkpt lat="47.75873" lon="0.35854">
        <ele>152.8</ele>
        <time>2016-06-17T09:19:59Z</time>
      </trkpt>
      <trkpt lat="47.7588" lon="0.35845">
        <ele>152.8</ele>
        <time>2016-06-17T09:20:06Z</time>
      </trkpt>
      <trkpt lat="47.75888" lon="0.35837">
        <ele>153</ele>
        <time>2016-06-17T09:20:13Z</time>
      </trkpt>
      <trkpt lat="47.75895" lon="0.35828">
        <ele>153.6</ele>
        <time>2016-06-17T09:20:33Z</time>
      </trkpt>
      <trkpt lat="47.75903" lon="0.3582">
        <ele>153.7</ele>
        <time>2016-06-17T09:20:40Z</time>
      </trkpt>
      <trkpt lat="47.75911" lon="0.35814">
        <ele>154.4</ele>
        <time>2016-06-17T09:20:48Z</time>
      </trkpt>
      <trkpt lat="47.75919" lon="0.35807">
        <ele>153.9</ele>
        <time>2016-06-17T09:20:57Z</time>
      </trkpt>
      <trkpt lat="47.75928" lon="0.35801">
        <ele>154.8</ele>
        <time>2016-06-17T09:21:05Z</time>
      </trkpt>
      <trkpt lat="47.75936" lon="0.35793">
        <ele>155.3</ele>
        <time>2016-06-17T09:21:13Z</time>
      </trkpt>
      <trkpt lat="47.75945" lon="0.35786">
        <ele>155.2</ele>
        <time>2016-06-17T09:21:21Z</time>
      </trkpt>
      <trkpt lat="47.75953" lon="0.3578">
        <ele>154.9</ele>
        <time>2016-06-17T09:21:29Z</time>
      </trkpt>
      <trkpt lat="47.75962" lon="0.35772">
        <ele>155.2</ele>
        <time>2016-06-17T09:21:37Z</time>
      </trkpt>
      <trkpt lat="47.75972" lon="0.35771">
        <ele>155.5</ele>
        <time>2016-06-17T09:21:48Z</time>
      </trkpt>
      <trkpt lat="47.75981" lon="0.35768">
        <ele>155.4</ele>
        <time>2016-06-17T09:21:57Z</time>
      </trkpt>
      <trkpt lat="47.75989" lon="0.35762">
        <ele>155.4</ele>
        <time>2016-06-17T09:23:26Z</time>
      </trkpt>
      <trkpt lat="47.75997" lon="0.3577">
        <ele>154.7</ele>
        <time>2016-06-17T09:23:59Z</time>
      </trkpt>
      <trkpt lat="47.76006" lon="0.35776">
        <ele>154.4</ele>
        <time>2016-06-17T09:24:11Z</time>
      </trkpt>
      <trkpt lat="47.76016" lon="0.35779">
        <ele>155.2</ele>
        <time>2016-06-17T09:24:20Z</time>
      </trkpt>
      <trkpt lat="47.76026" lon="0.35782">
        <ele>155.3</ele>
        <time>2016-06-17T09:24:28Z</time>
      </trkpt>
      <trkpt lat="47.76035" lon="0.35783">
        <ele>155.3</ele>
        <time>2016-06-17T09:24:34Z</time>
      </trkpt>
      <trkpt lat="47.76044" lon="0.35785">
        <ele>154.7</ele>
        <time>2016-06-17T09:24:41Z</time>
      </trkpt>
      <trkpt lat="47.76054" lon="0.35788">
        <ele>155.8</ele>
        <time>2016-06-17T09:24:51Z</time>
      </trkpt>
      <trkpt lat="47.76064" lon="0.3579">
        <ele>155.2</ele>
        <time>2016-06-17T09:24:59Z</time>
      </trkpt>
      <trkpt lat="47.76073" lon="0.35792">
        <ele>156</ele>
        <time>2016-06-17T09:25:08Z</time>
      </trkpt>
      <trkpt lat="47.76083" lon="0.35794">
        <ele>156.6</ele>
        <time>2016-06-17T09:25:15Z</time>
      </trkpt>
      <trkpt lat="47.76092" lon="0.35796">
        <ele>156</ele>
        <time>2016-06-17T09:25:22Z</time>
      </trkpt>
      <trkpt lat="47.76102" lon="0.35796">
        <ele>156.4</ele>
        <time>2016-06-17T09:25:30Z</time>
      </trkpt>
      <trkpt lat="47.76111" lon="0.35799">
        <ele>156.9</ele>
        <time>2016-06-17T09:25:38Z</time>
      </trkpt>
      <trkpt lat="47.76121" lon="0.35802">
        <ele>158</ele>
        <time>2016-06-17T09:25:46Z</time>
      </trkpt>
      <trkpt lat="47.7613" lon="0.35806">
        <ele>157.4</ele>
        <time>2016-06-17T09:25:53Z</time>
      </trkpt>
      <trkpt lat="47.7614" lon="0.35808">
        <ele>158.3</ele>
        <time>2016-06-17T09:26:02Z</time>
      </trkpt>
      <trkpt lat="47.76148" lon="0.35813">
        <ele>158.5</ele>
        <time>2016-06-17T09:26:10Z</time>
      </trkpt>
      <trkpt lat="47.76158" lon="0.35817">
        <ele>158.7</ele>
        <time>2016-06-17T09:26:19Z</time>
      </trkpt>
      <trkpt lat="47.76168" lon="0.35819">
        <ele>158.6</ele>
        <time>2016-06-17T09:26:27Z</time>
      </trkpt>
      <trkpt lat="47.76178" lon="0.35818">
        <ele>158.7</ele>
        <time>2016-06-17T09:26:35Z</time>
      </trkpt>
      <trkpt lat="47.76188" lon="0.3582">
        <ele>158.6</ele>
        <time>2016-06-17T09:26:43Z</time>
      </trkpt>
      <trkpt lat="47.76197" lon="0.35823">
        <ele>158.5</ele>
        <time>2016-06-17T09:26:52Z</time>
      </trkpt>
      <trkpt lat="47.76206" lon="0.35826">
        <ele>158.2</ele>
        <time>2016-06-17T09:26:59Z</time>
      </trkpt>
      <trkpt lat="47.76216" lon="0.35827">
        <ele>158.1</ele>
        <time>2016-06-17T09:27:07Z</time>
      </trkpt>
      <trkpt lat="47.76225" lon="0.35826">
        <ele>158.3</ele>
        <time>2016-06-17T09:27:14Z</time>
      </trkpt>
      <trkpt lat="47.76234" lon="0.35826">
        <ele>158.4</ele>
        <time>2016-06-17T09:27:24Z</time>
      </trkpt>
      <trkpt lat="47.76243" lon="0.35831">
        <ele>158.3</ele>
        <time>2016-06-17T09:27:33Z</time>
      </trkpt>
      <trkpt lat="47.76252" lon="0.35833">
        <ele>158.9</ele>
        <time>2016-06-17T09:27:45Z</time>
      </trkpt>
      <trkpt lat="47.7626" lon="0.3584">
        <ele>159.7</ele>
        <time>2016-06-17T09:27:56Z</time>
      </trkpt>
      <trkpt lat="47.7627" lon="0.35842">
        <ele>158.3</ele>
        <time>2016-06-17T09:28:05Z</time>
      </trkpt>
      <trkpt lat="47.7628" lon="0.35846">
        <ele>158.1</ele>
        <time>2016-06-17T09:28:12Z</time>
      </trkpt>
      <trkpt lat="47.76289" lon="0.35848">
        <ele>157.4</ele>
        <time>2016-06-17T09:28:19Z</time>
      </trkpt>
      <trkpt lat="47.76298" lon="0.35849">
        <ele>158.1</ele>
        <time>2016-06-17T09:28:26Z</time>
      </trkpt>
      <trkpt lat="47.76308" lon="0.35851">
        <ele>158.6</ele>
        <time>2016-06-17T09:28:34Z</time>
      </trkpt>
      <trkpt lat="47.76317" lon="0.35857">
        <ele>158</ele>
        <time>2016-06-17T09:28:41Z</time>
      </trkpt>
      <trkpt lat="47.76326" lon="0.35856">
        <ele>157.5</ele>
        <time>2016-06-17T09:28:48Z</time>
      </trkpt>
      <trkpt lat="47.76335" lon="0.35858">
        <ele>157.1</ele>
        <time>2016-06-17T09:28:55Z</time>
      </trkpt>
      <trkpt lat="47.76345" lon="0.35858">
        <ele>156</ele>
        <time>2016-06-17T09:29:02Z</time>
      </trkpt>
      <trkpt lat="47.76355" lon="0.35856">
        <ele>156.7</ele>
        <time>2016-06-17T09:29:09Z</time>
      </trkpt>
      <trkpt lat="47.76363" lon="0.35861">
        <ele>157.4</ele>
        <time>2016-06-17T09:29:17Z</time>
      </trkpt>
      <trkpt lat="47.76372" lon="0.35865">
        <ele>157.2</ele>
        <time>2016-06-17T09:29:25Z</time>
      </trkpt>
      <trkpt lat="47.76383" lon="0.35865">
        <ele>157.6</ele>
        <time>2016-06-17T09:29:33Z</time>
      </trkpt>
      <trkpt lat="47.76392" lon="0.35868">
        <ele>157.4</ele>
        <time>2016-06-17T09:29:42Z</time>
      </trkpt>
      <trkpt lat="47.76401" lon="0.35877">
        <ele>157.1</ele>
        <time>2016-06-17T09:29:49Z</time>
      </trkpt>
      <trkpt lat="47.76411" lon="0.35876">
        <ele>156.7</ele>
        <time>2016-06-17T09:29:56Z</time>
      </trkpt>
      <trkpt lat="47.76421" lon="0.35878">
        <ele>156.6</ele>
        <time>2016-06-17T09:30:02Z</time>
      </trkpt>
      <trkpt lat="47.7643" lon="0.3588">
        <ele>157.5</ele>
        <time>2016-06-17T09:30:11Z</time>
      </trkpt>
      <trkpt lat="47.76439" lon="0.35882">
        <ele>157.9</ele>
        <time>2016-06-17T09:30:17Z</time>
      </trkpt>
      <trkpt lat="47.76448" lon="0.35885">
        <ele>157.7</ele>
        <time>2016-06-17T09:30:24Z</time>
      </trkpt>
      <trkpt lat="47.76457" lon="0.35886">
        <ele>157.7</ele>
        <time>2016-06-17T09:30:31Z</time>
      </trkpt>
      <trkpt lat="47.76467" lon="0.35891">
        <ele>156.8</ele>
        <time>2016-06-17T09:30:38Z</time>
      </trkpt>
      <trkpt lat="47.76476" lon="0.35893">
        <ele>157.4</ele>
        <time>2016-06-17T09:30:46Z</time>
      </trkpt>
      <trkpt lat="47.76485" lon="0.35894">
        <ele>157.8</ele>
        <time>2016-06-17T09:30:54Z</time>
      </trkpt>
      <trkpt lat="47.76494" lon="0.35897">
        <ele>158</ele>
        <time>2016-06-17T09:31:00Z</time>
      </trkpt>
      <trkpt lat="47.76503" lon="0.359">
        <ele>157.3</ele>
        <time>2016-06-17T09:31:08Z</time>
      </trkpt>
      <trkpt lat="47.76512" lon="0.35902">
        <ele>157.8</ele>
        <time>2016-06-17T09:31:16Z</time>
      </trkpt>
      <trkpt lat="47.76523" lon="0.35902">
        <ele>158.3</ele>
        <time>2016-06-17T09:31:23Z</time>
      </trkpt>
      <trkpt lat="47.76532" lon="0.35906">
        <ele>158.2</ele>
        <time>2016-06-17T09:31:31Z</time>
      </trkpt>
      <trkpt lat="47.76542" lon="0.35907">
        <ele>156.7</ele>
        <time>2016-06-17T09:31:40Z</time>
      </trkpt>
      <trkpt lat="47.76552" lon="0.3591">
        <ele>156.7</ele>
        <time>2016-06-17T09:31:49Z</time>
      </trkpt>
      <trkpt lat="47.76561" lon="0.35915">
        <ele>157.3</ele>
        <time>2016-06-17T09:31:55Z</time>
      </trkpt>
      <trkpt lat="47.76574" lon="0.35915">
        <ele>156.3</ele>
        <time>2016-06-17T09:32:03Z</time>
      </trkpt>
      <trkpt lat="47.76583" lon="0.35918">
        <ele>156</ele>
        <time>2016-06-17T09:32:09Z</time>
      </trkpt>
      <trkpt lat="47.76592" lon="0.3592">
        <ele>155.3</ele>
        <time>2016-06-17T09:32:18Z</time>
      </trkpt>
      <trkpt lat="47.76601" lon="0.35922">
        <ele>155.5</ele>
        <time>2016-06-17T09:32:26Z</time>
      </trkpt>
      <trkpt lat="47.76612" lon="0.35927">
        <ele>155.5</ele>
        <time>2016-06-17T09:32:33Z</time>
      </trkpt>
      <trkpt lat="47.76621" lon="0.35927">
        <ele>155.6</ele>
        <time>2016-06-17T09:32:41Z</time>
      </trkpt>
      <trkpt lat="47.76631" lon="0.35929">
        <ele>155.6</ele>
        <time>2016-06-17T09:32:49Z</time>
      </trkpt>
      <trkpt lat="47.76641" lon="0.35933">
        <ele>154.6</ele>
        <time>2016-06-17T09:32:56Z</time>
      </trkpt>
      <trkpt lat="47.76651" lon="0.35936">
        <ele>153.6</ele>
        <time>2016-06-17T09:33:03Z</time>
      </trkpt>
      <trkpt lat="47.7666" lon="0.35938">
        <ele>154</ele>
        <time>2016-06-17T09:33:11Z</time>
      </trkpt>
      <trkpt lat="47.76669" lon="0.35941">
        <ele>153.7</ele>
        <time>2016-06-17T09:33:18Z</time>
      </trkpt>
      <trkpt lat="47.76679" lon="0.35942">
        <ele>153.3</ele>
        <time>2016-06-17T09:33:26Z</time>
      </trkpt>
      <trkpt lat="47.76688" lon="0.35943">
        <ele>152.6</ele>
        <time>2016-06-17T09:33:32Z</time>
      </trkpt>
      <trkpt lat="47.76698" lon="0.35948">
        <ele>152.2</ele>
        <time>2016-06-17T09:33:40Z</time>
      </trkpt>
      <trkpt lat="47.76709" lon="0.35948">
        <ele>152.2</ele>
        <time>2016-06-17T09:33:48Z</time>
      </trkpt>
      <trkpt lat="47.76719" lon="0.35945">
        <ele>151.3</ele>
        <time>2016-06-17T09:33:54Z</time>
      </trkpt>
      <trkpt lat="47.7673" lon="0.35949">
        <ele>150.2</ele>
        <time>2016-06-17T09:34:02Z</time>
      </trkpt>
      <trkpt lat="47.7674" lon="0.35952">
        <ele>149.8</ele>
        <time>2016-06-17T09:34:10Z</time>
      </trkpt>
      <trkpt lat="47.76749" lon="0.35954">
        <ele>150</ele>
        <time>2016-06-17T09:34:17Z</time>
      </trkpt>
      <trkpt lat="47.76759" lon="0.35958">
        <ele>149.9</ele>
        <time>2016-06-17T09:34:26Z</time>
      </trkpt>
      <trkpt lat="47.76768" lon="0.35966">
        <ele>149.9</ele>
        <time>2016-06-17T09:34:32Z</time>
      </trkpt>
      <trkpt lat="47.76777" lon="0.35967">
        <ele>149.9</ele>
        <time>2016-06-17T09:34:41Z</time>
      </trkpt>
      <trkpt lat="47.76787" lon="0.35969">
        <ele>149.8</ele>
        <time>2016-06-17T09:34:48Z</time>
      </trkpt>
      <trkpt lat="47.76797" lon="0.35969">
        <ele>150.7</ele>
        <time>2016-06-17T09:34:55Z</time>
      </trkpt>
      <trkpt lat="47.76807" lon="0.35971">
        <ele>150.8</ele>
        <time>2016-06-17T09:35:03Z</time>
      </trkpt>
      <trkpt lat="47.76816" lon="0.35973">
        <ele>150.7</ele>
        <time>2016-06-17T09:35:11Z</time>
      </trkpt>
      <trkpt lat="47.76826" lon="0.35978">
        <ele>150.7</ele>
        <time>2016-06-17T09:35:17Z</time>
      </trkpt>
      <trkpt lat="47.76835" lon="0.35973">
        <ele>151</ele>
        <time>2016-06-17T09:35:23Z</time>
      </trkpt>
      <trkpt lat="47.76844" lon="0.35978">
        <ele>150.6</ele>
        <time>2016-06-17T09:35:31Z</time>
      </trkpt>
      <trkpt lat="47.76853" lon="0.35983">
        <ele>150</ele>
        <time>2016-06-17T09:35:38Z</time>
      </trkpt>
      <trkpt lat="47.76861" lon="0.35976">
        <ele>150.9</ele>
        <time>2016-06-17T09:35:49Z</time>
      </trkpt>
      <trkpt lat="47.76871" lon="0.35975">
        <ele>151.2</ele>
        <time>2016-06-17T09:36:22Z</time>
      </trkpt>
      <trkpt lat="47.76879" lon="0.35985">
        <ele>151.8</ele>
        <time>2016-06-17T09:36:31Z</time>
      </trkpt>
      <trkpt lat="47.7689" lon="0.35987">
        <ele>152.5</ele>
        <time>2016-06-17T09:36:39Z</time>
      </trkpt>
      <trkpt lat="47.769" lon="0.3599">
        <ele>152</ele>
        <time>2016-06-17T09:36:47Z</time>
      </trkpt>
      <trkpt lat="47.76908" lon="0.35995">
        <ele>151.7</ele>
        <time>2016-06-17T09:36:56Z</time>
      </trkpt>
      <trkpt lat="47.76918" lon="0.35993">
        <ele>150.9</ele>
        <time>2016-06-17T09:37:03Z</time>
      </trkpt>
      <trkpt lat="47.76928" lon="0.35996">
        <ele>150</ele>
        <time>2016-06-17T09:37:11Z</time>
      </trkpt>
      <trkpt lat="47.76937" lon="0.36001">
        <ele>150.1</ele>
        <time>2016-06-17T09:37:19Z</time>
      </trkpt>
      <trkpt lat="47.76946" lon="0.36002">
        <ele>150.6</ele>
        <time>2016-06-17T09:37:27Z</time>
      </trkpt>
      <trkpt lat="47.76956" lon="0.36005">
        <ele>148.7</ele>
        <time>2016-06-17T09:37:35Z</time>
      </trkpt>
      <trkpt lat="47.76966" lon="0.36007">
        <ele>148.4</ele>
        <time>2016-06-17T09:37:42Z</time>
      </trkpt>
      <trkpt lat="47.76975" lon="0.36006">
        <ele>148</ele>
        <time>2016-06-17T09:37:48Z</time>
      </trkpt>
      <trkpt lat="47.76984" lon="0.36001">
        <ele>147.3</ele>
        <time>2016-06-17T09:37:54Z</time>
      </trkpt>
      <trkpt lat="47.76991" lon="0.35989">
        <ele>145.7</ele>
        <time>2016-06-17T09:38:02Z</time>
      </trkpt>
      <trkpt lat="47.76999" lon="0.35979">
        <ele>143.1</ele>
        <time>2016-06-17T09:38:09Z</time>
      </trkpt>
      <trkpt lat="47.77007" lon="0.35965">
        <ele>142.4</ele>
        <time>2016-06-17T09:38:14Z</time>
      </trkpt>
      <trkpt lat="47.7701" lon="0.3595">
        <ele>142.5</ele>
        <time>2016-06-17T09:38:22Z</time>
      </trkpt>
      <trkpt lat="47.77016" lon="0.35936">
        <ele>141.6</ele>
        <time>2016-06-17T09:38:29Z</time>
      </trkpt>
      <trkpt lat="47.77024" lon="0.35924">
        <ele>140.4</ele>
        <time>2016-06-17T09:38:35Z</time>
      </trkpt>
      <trkpt lat="47.77029" lon="0.35912">
        <ele>139.7</ele>
        <time>2016-06-17T09:38:40Z</time>
      </trkpt>
      <trkpt lat="47.77033" lon="0.35898">
        <ele>139</ele>
        <time>2016-06-17T09:38:47Z</time>
      </trkpt>
      <trkpt lat="47.77037" lon="0.35886">
        <ele>138</ele>
        <time>2016-06-17T09:38:52Z</time>
      </trkpt>
      <trkpt lat="47.77044" lon="0.35876">
        <ele>137.4</ele>
        <time>2016-06-17T09:38:58Z</time>
      </trkpt>
      <trkpt lat="47.77053" lon="0.35871">
        <ele>135.8</ele>
        <time>2016-06-17T09:39:23Z</time>
      </trkpt>
      <trkpt lat="47.77054" lon="0.35857">
        <ele>136.1</ele>
        <time>2016-06-17T09:39:39Z</time>
      </trkpt>
      <trkpt lat="47.77058" lon="0.35845">
        <ele>135.2</ele>
        <time>2016-06-17T09:40:54Z</time>
      </trkpt>
      <trkpt lat="47.77057" lon="0.35859">
        <ele>134.5</ele>
        <time>2016-06-17T09:42:36Z</time>
      </trkpt>
      <trkpt lat="47.77058" lon="0.35844">
        <ele>135.6</ele>
        <time>2016-06-17T09:42:45Z</time>
      </trkpt>
      <trkpt lat="47.77048" lon="0.35844">
        <ele>132</ele>
        <time>2016-06-17T09:50:16Z</time>
      </trkpt>
      <trkpt lat="47.77047" lon="0.35858">
        <ele>133.7</ele>
        <time>2016-06-17T09:55:38Z</time>
      </trkpt>
      <trkpt lat="47.77049" lon="0.35872">
        <ele>134.5</ele>
        <time>2016-06-17T09:55:49Z</time>
      </trkpt>
      <trkpt lat="47.77051" lon="0.35886">
        <ele>134.7</ele>
        <time>2016-06-17T09:55:59Z</time>
      </trkpt>
      <trkpt lat="47.77057" lon="0.35898">
        <ele>135.3</ele>
        <time>2016-06-17T09:56:09Z</time>
      </trkpt>
      <trkpt lat="47.77061" lon="0.3591">
        <ele>135.5</ele>
        <time>2016-06-17T09:56:16Z</time>
      </trkpt>
      <trkpt lat="47.77063" lon="0.35923">
        <ele>136.1</ele>
        <time>2016-06-17T09:56:24Z</time>
      </trkpt>
      <trkpt lat="47.77068" lon="0.35935">
        <ele>137.1</ele>
        <time>2016-06-17T09:56:33Z</time>
      </trkpt>
      <trkpt lat="47.77071" lon="0.3595">
        <ele>137.5</ele>
        <time>2016-06-17T09:56:41Z</time>
      </trkpt>
      <trkpt lat="47.77071" lon="0.35964">
        <ele>138.1</ele>
        <time>2016-06-17T09:56:49Z</time>
      </trkpt>
      <trkpt lat="47.77076" lon="0.35976">
        <ele>138</ele>
        <time>2016-06-17T09:56:55Z</time>
      </trkpt>
      <trkpt lat="47.77081" lon="0.35989">
        <ele>138</ele>
        <time>2016-06-17T09:57:02Z</time>
      </trkpt>
      <trkpt lat="47.77088" lon="0.36001">
        <ele>137.8</ele>
        <time>2016-06-17T09:57:10Z</time>
      </trkpt>
      <trkpt lat="47.77095" lon="0.36011">
        <ele>139.3</ele>
        <time>2016-06-17T09:57:20Z</time>
      </trkpt>
      <trkpt lat="47.77103" lon="0.36017">
        <ele>139.4</ele>
        <time>2016-06-17T09:57:26Z</time>
      </trkpt>
      <trkpt lat="47.77113" lon="0.36023">
        <ele>140.5</ele>
        <time>2016-06-17T09:57:33Z</time>
      </trkpt>
      <trkpt lat="47.77122" lon="0.36026">
        <ele>144.9</ele>
        <time>2016-06-17T09:58:01Z</time>
      </trkpt>
      <trkpt lat="47.77132" lon="0.36033">
        <ele>143.6</ele>
        <time>2016-06-17T09:58:12Z</time>
      </trkpt>
      <trkpt lat="47.77141" lon="0.36035">
        <ele>143.1</ele>
        <time>2016-06-17T09:58:19Z</time>
      </trkpt>
      <trkpt lat="47.7715" lon="0.3604">
        <ele>144</ele>
        <time>2016-06-17T09:58:27Z</time>
      </trkpt>
      <trkpt lat="47.77159" lon="0.36044">
        <ele>144.2</ele>
        <time>2016-06-17T09:58:33Z</time>
      </trkpt>
      <trkpt lat="47.77168" lon="0.36044">
        <ele>144.3</ele>
        <time>2016-06-17T09:58:40Z</time>
      </trkpt>
      <trkpt lat="47.77178" lon="0.36045">
        <ele>144.3</ele>
        <time>2016-06-17T09:58:46Z</time>
      </trkpt>
      <trkpt lat="47.77186" lon="0.36049">
        <ele>145.5</ele>
        <time>2016-06-17T09:58:51Z</time>
      </trkpt>
      <trkpt lat="47.77196" lon="0.36052">
        <ele>145.9</ele>
        <time>2016-06-17T09:58:58Z</time>
      </trkpt>
      <trkpt lat="47.77205" lon="0.36056">
        <ele>146.1</ele>
        <time>2016-06-17T09:59:05Z</time>
      </trkpt>
      <trkpt lat="47.77215" lon="0.36058">
        <ele>145.5</ele>
        <time>2016-06-17T09:59:11Z</time>
      </trkpt>
      <trkpt lat="47.77224" lon="0.36058">
        <ele>146.4</ele>
        <time>2016-06-17T09:59:19Z</time>
      </trkpt>
      <trkpt lat="47.77234" lon="0.36057">
        <ele>147.1</ele>
        <time>2016-06-17T09:59:25Z</time>
      </trkpt>
      <trkpt lat="47.77244" lon="0.36059">
        <ele>146.9</ele>
        <time>2016-06-17T09:59:32Z</time>
      </trkpt>
      <trkpt lat="47.77253" lon="0.36063">
        <ele>147.2</ele>
        <time>2016-06-17T09:59:40Z</time>
      </trkpt>
      <trkpt lat="47.77263" lon="0.36068">
        <ele>147.3</ele>
        <time>2016-06-17T09:59:50Z</time>
      </trkpt>
      <trkpt lat="47.77273" lon="0.3607">
        <ele>147.6</ele>
        <time>2016-06-17T09:59:56Z</time>
      </trkpt>
      <trkpt lat="47.77282" lon="0.36073">
        <ele>146.3</ele>
        <time>2016-06-17T10:00:06Z</time>
      </trkpt>
      <trkpt lat="47.77293" lon="0.36077">
        <ele>145.5</ele>
        <time>2016-06-17T10:00:12Z</time>
      </trkpt>
      <trkpt lat="47.77303" lon="0.36079">
        <ele>145.3</ele>
        <time>2016-06-17T10:00:20Z</time>
      </trkpt>
      <trkpt lat="47.77314" lon="0.3608">
        <ele>143.5</ele>
        <time>2016-06-17T10:00:31Z</time>
      </trkpt>
      <trkpt lat="47.77324" lon="0.36083">
        <ele>144.3</ele>
        <time>2016-06-17T10:00:38Z</time>
      </trkpt>
      <trkpt lat="47.77334" lon="0.36084">
        <ele>143.5</ele>
        <time>2016-06-17T10:00:45Z</time>
      </trkpt>
      <trkpt lat="47.77343" lon="0.36083">
        <ele>143.3</ele>
        <time>2016-06-17T10:00:51Z</time>
      </trkpt>
      <trkpt lat="47.77353" lon="0.36081">
        <ele>142</ele>
        <time>2016-06-17T10:00:57Z</time>
      </trkpt>
      <trkpt lat="47.77362" lon="0.36084">
        <ele>140.8</ele>
        <time>2016-06-17T10:01:03Z</time>
      </trkpt>
      <trkpt lat="47.77371" lon="0.36082">
        <ele>140</ele>
        <time>2016-06-17T10:01:09Z</time>
      </trkpt>
      <trkpt lat="47.7738" lon="0.36076">
        <ele>139.5</ele>
        <time>2016-06-17T10:01:15Z</time>
      </trkpt>
      <trkpt lat="47.77387" lon="0.36067">
        <ele>138.8</ele>
        <time>2016-06-17T10:01:21Z</time>
      </trkpt>
      <trkpt lat="47.77394" lon="0.36058">
        <ele>138.3</ele>
        <time>2016-06-17T10:01:28Z</time>
      </trkpt>
      <trkpt lat="47.77399" lon="0.36046">
        <ele>137</ele>
        <time>2016-06-17T10:01:34Z</time>
      </trkpt>
      <trkpt lat="47.77401" lon="0.36033">
        <ele>135.7</ele>
        <time>2016-06-17T10:01:42Z</time>
      </trkpt>
      <trkpt lat="47.77408" lon="0.3602">
        <ele>135</ele>
        <time>2016-06-17T10:01:54Z</time>
      </trkpt>
      <trkpt lat="47.77417" lon="0.36014">
        <ele>133.6</ele>
        <time>2016-06-17T10:02:01Z</time>
      </trkpt>
      <trkpt lat="47.77425" lon="0.3602">
        <ele>133.7</ele>
        <time>2016-06-17T10:02:10Z</time>
      </trkpt>
      <trkpt lat="47.77429" lon="0.36032">
        <ele>135.5</ele>
        <time>2016-06-17T10:02:32Z</time>
      </trkpt>
      <trkpt lat="47.77433" lon="0.36044">
        <ele>136.1</ele>
        <time>2016-06-17T10:02:39Z</time>
      </trkpt>
      <trkpt lat="47.77437" lon="0.36057">
        <ele>137.4</ele>
        <time>2016-06-17T10:02:46Z</time>
      </trkpt>
      <trkpt lat="47.77443" lon="0.36067">
        <ele>138.3</ele>
        <time>2016-06-17T10:02:53Z</time>
      </trkpt>
      <trkpt lat="47.77449" lon="0.36079">
        <ele>138</ele>
        <time>2016-06-17T10:03:02Z</time>
      </trkpt>
      <trkpt lat="47.77456" lon="0.36089">
        <ele>138.3</ele>
        <time>2016-06-17T10:03:10Z</time>
      </trkpt>
      <trkpt lat="47.77466" lon="0.36093">
        <ele>140.3</ele>
        <time>2016-06-17T10:03:21Z</time>
      </trkpt>
      <trkpt lat="47.77476" lon="0.36099">
        <ele>141.4</ele>
        <time>2016-06-17T10:03:30Z</time>
      </trkpt>
      <trkpt lat="47.77486" lon="0.36103">
        <ele>142.1</ele>
        <time>2016-06-17T10:03:40Z</time>
      </trkpt>
      <trkpt lat="47.77495" lon="0.36107">
        <ele>142.2</ele>
        <time>2016-06-17T10:03:46Z</time>
      </trkpt>
      <trkpt lat="47.77504" lon="0.36109">
        <ele>143.2</ele>
        <time>2016-06-17T10:04:38Z</time>
      </trkpt>
      <trkpt lat="47.77514" lon="0.36113">
        <ele>143.4</ele>
        <time>2016-06-17T10:04:44Z</time>
      </trkpt>
      <trkpt lat="47.77523" lon="0.36114">
        <ele>143.2</ele>
        <time>2016-06-17T10:04:52Z</time>
      </trkpt>
      <trkpt lat="47.77532" lon="0.36117">
        <ele>143.4</ele>
        <time>2016-06-17T10:04:57Z</time>
      </trkpt>
      <trkpt lat="47.77542" lon="0.36119">
        <ele>145.1</ele>
        <time>2016-06-17T10:05:06Z</time>
      </trkpt>
      <trkpt lat="47.77551" lon="0.36122">
        <ele>145.3</ele>
        <time>2016-06-17T10:05:13Z</time>
      </trkpt>
      <trkpt lat="47.7756" lon="0.36122">
        <ele>144.7</ele>
        <time>2016-06-17T10:05:19Z</time>
      </trkpt>
      <trkpt lat="47.77569" lon="0.3613">
        <ele>144.5</ele>
        <time>2016-06-17T10:05:25Z</time>
      </trkpt>
      <trkpt lat="47.77579" lon="0.36133">
        <ele>144.2</ele>
        <time>2016-06-17T10:05:33Z</time>
      </trkpt>
      <trkpt lat="47.77588" lon="0.36136">
        <ele>144.3</ele>
        <time>2016-06-17T10:05:41Z</time>
      </trkpt>
      <trkpt lat="47.77597" lon="0.36139">
        <ele>143.9</ele>
        <time>2016-06-17T10:05:50Z</time>
      </trkpt>
      <trkpt lat="47.77607" lon="0.3614">
        <ele>142.8</ele>
        <time>2016-06-17T10:05:58Z</time>
      </trkpt>
      <trkpt lat="47.77616" lon="0.36145">
        <ele>142.5</ele>
        <time>2016-06-17T10:06:04Z</time>
      </trkpt>
      <trkpt lat="47.77625" lon="0.36148">
        <ele>141.8</ele>
        <time>2016-06-17T10:06:10Z</time>
      </trkpt>
      <trkpt lat="47.77635" lon="0.36147">
        <ele>141.6</ele>
        <time>2016-06-17T10:06:18Z</time>
      </trkpt>
      <trkpt lat="47.77644" lon="0.36152">
        <ele>141.4</ele>
        <time>2016-06-17T10:06:25Z</time>
      </trkpt>
      <trkpt lat="47.77654" lon="0.36154">
        <ele>141.8</ele>
        <time>2016-06-17T10:06:32Z</time>
      </trkpt>
      <trkpt lat="47.77664" lon="0.36154">
        <ele>141.1</ele>
        <time>2016-06-17T10:06:40Z</time>
      </trkpt>
      <trkpt lat="47.77673" lon="0.36155">
        <ele>141.5</ele>
        <time>2016-06-17T10:06:49Z</time>
      </trkpt>
      <trkpt lat="47.77684" lon="0.36157">
        <ele>142.4</ele>
        <time>2016-06-17T10:06:56Z</time>
      </trkpt>
      <trkpt lat="47.77693" lon="0.36161">
        <ele>142.4</ele>
        <time>2016-06-17T10:07:02Z</time>
      </trkpt>
      <trkpt lat="47.77702" lon="0.36158">
        <ele>143.2</ele>
        <time>2016-06-17T10:07:11Z</time>
      </trkpt>
      <trkpt lat="47.77711" lon="0.36162">
        <ele>143.3</ele>
        <time>2016-06-17T10:07:19Z</time>
      </trkpt>
      <trkpt lat="47.77721" lon="0.36165">
        <ele>143.3</ele>
        <time>2016-06-17T10:07:26Z</time>
      </trkpt>
      <trkpt lat="47.7773" lon="0.36169">
        <ele>143</ele>
        <time>2016-06-17T10:07:34Z</time>
      </trkpt>
      <trkpt lat="47.7774" lon="0.36169">
        <ele>143.1</ele>
        <time>2016-06-17T10:07:41Z</time>
      </trkpt>
      <trkpt lat="47.7775" lon="0.36167">
        <ele>143.7</ele>
        <time>2016-06-17T10:07:48Z</time>
      </trkpt>
      <trkpt lat="47.77759" lon="0.3617">
        <ele>143.4</ele>
        <time>2016-06-17T10:07:55Z</time>
      </trkpt>
      <trkpt lat="47.77769" lon="0.36173">
        <ele>143.3</ele>
        <time>2016-06-17T10:08:02Z</time>
      </trkpt>
      <trkpt lat="47.77779" lon="0.36176">
        <ele>142.9</ele>
        <time>2016-06-17T10:08:11Z</time>
      </trkpt>
      <trkpt lat="47.77789" lon="0.36179">
        <ele>142.3</ele>
        <time>2016-06-17T10:08:16Z</time>
      </trkpt>
      <trkpt lat="47.77799" lon="0.36174">
        <ele>141.8</ele>
        <time>2016-06-17T10:08:23Z</time>
      </trkpt>
      <trkpt lat="47.77808" lon="0.36169">
        <ele>141.5</ele>
        <time>2016-06-17T10:08:29Z</time>
      </trkpt>
      <trkpt lat="47.77816" lon="0.36163">
        <ele>140.2</ele>
        <time>2016-06-17T10:08:38Z</time>
      </trkpt>
      <trkpt lat="47.77826" lon="0.36157">
        <ele>139.7</ele>
        <time>2016-06-17T10:08:47Z</time>
      </trkpt>
      <trkpt lat="47.77833" lon="0.3615">
        <ele>139.3</ele>
        <time>2016-06-17T10:08:54Z</time>
      </trkpt>
      <trkpt lat="47.77842" lon="0.36142">
        <ele>138.8</ele>
        <time>2016-06-17T10:09:01Z</time>
      </trkpt>
      <trkpt lat="47.7785" lon="0.36133">
        <ele>138.3</ele>
        <time>2016-06-17T10:09:08Z</time>
      </trkpt>
      <trkpt lat="47.7786" lon="0.36128">
        <ele>137.1</ele>
        <time>2016-06-17T10:09:16Z</time>
      </trkpt>
      <trkpt lat="47.77869" lon="0.36128">
        <ele>136.9</ele>
        <time>2016-06-17T10:09:24Z</time>
      </trkpt>
      <trkpt lat="47.77878" lon="0.36131">
        <ele>137.1</ele>
        <time>2016-06-17T10:09:48Z</time>
      </trkpt>
      <trkpt lat="47.77884" lon="0.36142">
        <ele>140.2</ele>
        <time>2016-06-17T10:10:06Z</time>
      </trkpt>
      <trkpt lat="47.77884" lon="0.36156">
        <ele>141.5</ele>
        <time>2016-06-17T10:10:18Z</time>
      </trkpt>
      <trkpt lat="47.77888" lon="0.36168">
        <ele>143.8</ele>
        <time>2016-06-17T10:10:53Z</time>
      </trkpt>
      <trkpt lat="47.77895" lon="0.36179">
        <ele>144.8</ele>
        <time>2016-06-17T10:11:00Z</time>
      </trkpt>
      <trkpt lat="47.77906" lon="0.36186">
        <ele>144.4</ele>
        <time>2016-06-17T10:11:05Z</time>
      </trkpt>
      <trkpt lat="47.77916" lon="0.36192">
        <ele>144.8</ele>
        <time>2016-06-17T10:11:13Z</time>
      </trkpt>
      <trkpt lat="47.77924" lon="0.36199">
        <ele>145.5</ele>
        <time>2016-06-17T10:11:22Z</time>
      </trkpt>
      <trkpt lat="47.77935" lon="0.36204">
        <ele>146.2</ele>
        <time>2016-06-17T10:11:29Z</time>
      </trkpt>
      <trkpt lat="47.77944" lon="0.36207">
        <ele>147.3</ele>
        <time>2016-06-17T10:11:41Z</time>
      </trkpt>
      <trkpt lat="47.77953" lon="0.36209">
        <ele>147.6</ele>
        <time>2016-06-17T10:11:49Z</time>
      </trkpt>
      <trkpt lat="47.77962" lon="0.36213">
        <ele>149.2</ele>
        <time>2016-06-17T10:11:57Z</time>
      </trkpt>
      <trkpt lat="47.77971" lon="0.36216">
        <ele>149.9</ele>
        <time>2016-06-17T10:12:04Z</time>
      </trkpt>
      <trkpt lat="47.77981" lon="0.36217">
        <ele>150</ele>
        <time>2016-06-17T10:12:13Z</time>
      </trkpt>
      <trkpt lat="47.77991" lon="0.3622">
        <ele>150.7</ele>
        <time>2016-06-17T10:12:20Z</time>
      </trkpt>
      <trkpt lat="47.78001" lon="0.36223">
        <ele>151.5</ele>
        <time>2016-06-17T10:12:28Z</time>
      </trkpt>
      <trkpt lat="47.78012" lon="0.36224">
        <ele>152.8</ele>
        <time>2016-06-17T10:12:36Z</time>
      </trkpt>
      <trkpt lat="47.78022" lon="0.36227">
        <ele>152.2</ele>
        <time>2016-06-17T10:12:45Z</time>
      </trkpt>
      <trkpt lat="47.78032" lon="0.36229">
        <ele>152.7</ele>
        <time>2016-06-17T10:12:53Z</time>
      </trkpt>
      <trkpt lat="47.78041" lon="0.3623">
        <ele>152.1</ele>
        <time>2016-06-17T10:12:59Z</time>
      </trkpt>
      <trkpt lat="47.78051" lon="0.36232">
        <ele>153.2</ele>
        <time>2016-06-17T10:13:07Z</time>
      </trkpt>
      <trkpt lat="47.78061" lon="0.36235">
        <ele>153.1</ele>
        <time>2016-06-17T10:13:17Z</time>
      </trkpt>
      <trkpt lat="47.78071" lon="0.3624">
        <ele>153.5</ele>
        <time>2016-06-17T10:13:27Z</time>
      </trkpt>
      <trkpt lat="47.78081" lon="0.36242">
        <ele>153</ele>
        <time>2016-06-17T10:13:35Z</time>
      </trkpt>
      <trkpt lat="47.7809" lon="0.36245">
        <ele>154</ele>
        <time>2016-06-17T10:13:43Z</time>
      </trkpt>
      <trkpt lat="47.78099" lon="0.36246">
        <ele>154.3</ele>
        <time>2016-06-17T10:13:49Z</time>
      </trkpt>
      <trkpt lat="47.78108" lon="0.36248">
        <ele>154.9</ele>
        <time>2016-06-17T10:13:57Z</time>
      </trkpt>
      <trkpt lat="47.78117" lon="0.3625">
        <ele>155.1</ele>
        <time>2016-06-17T10:14:03Z</time>
      </trkpt>
      <trkpt lat="47.78127" lon="0.3625">
        <ele>155.5</ele>
        <time>2016-06-17T10:14:13Z</time>
      </trkpt>
      <trkpt lat="47.78137" lon="0.36252">
        <ele>155.6</ele>
        <time>2016-06-17T10:14:24Z</time>
      </trkpt>
      <trkpt lat="47.78148" lon="0.36253">
        <ele>155.9</ele>
        <time>2016-06-17T10:14:31Z</time>
      </trkpt>
      <trkpt lat="47.78159" lon="0.36252">
        <ele>156.4</ele>
        <time>2016-06-17T10:14:38Z</time>
      </trkpt>
      <trkpt lat="47.78168" lon="0.36258">
        <ele>160.3</ele>
        <time>2016-06-17T10:14:46Z</time>
      </trkpt>
      <trkpt lat="47.78179" lon="0.36264">
        <ele>158.8</ele>
        <time>2016-06-17T10:14:58Z</time>
      </trkpt>
      <trkpt lat="47.78188" lon="0.36265">
        <ele>158.5</ele>
        <time>2016-06-17T10:15:05Z</time>
      </trkpt>
      <trkpt lat="47.78198" lon="0.36268">
        <ele>158.6</ele>
        <time>2016-06-17T10:15:11Z</time>
      </trkpt>
      <trkpt lat="47.78207" lon="0.36268">
        <ele>159.3</ele>
        <time>2016-06-17T10:15:16Z</time>
      </trkpt>
      <trkpt lat="47.78217" lon="0.36271">
        <ele>159.3</ele>
        <time>2016-06-17T10:15:23Z</time>
      </trkpt>
      <trkpt lat="47.78226" lon="0.36274">
        <ele>159.8</ele>
        <time>2016-06-17T10:15:31Z</time>
      </trkpt>
      <trkpt lat="47.78237" lon="0.36275">
        <ele>159.1</ele>
        <time>2016-06-17T10:15:55Z</time>
      </trkpt>
      <trkpt lat="47.78247" lon="0.36278">
        <ele>158.7</ele>
        <time>2016-06-17T10:16:04Z</time>
      </trkpt>
      <trkpt lat="47.78257" lon="0.36281">
        <ele>158.4</ele>
        <time>2016-06-17T10:16:13Z</time>
      </trkpt>
      <trkpt lat="47.78267" lon="0.36285">
        <ele>158.8</ele>
        <time>2016-06-17T10:16:20Z</time>
      </trkpt>
      <trkpt lat="47.78277" lon="0.36287">
        <ele>158.1</ele>
        <time>2016-06-17T10:16:27Z</time>
      </trkpt>
      <trkpt lat="47.78287" lon="0.36291">
        <ele>158</ele>
        <time>2016-06-17T10:16:35Z</time>
      </trkpt>
      <trkpt lat="47.78296" lon="0.36293">
        <ele>158.2</ele>
        <time>2016-06-17T10:16:42Z</time>
      </trkpt>
      <trkpt lat="47.78306" lon="0.36297">
        <ele>158.2</ele>
        <time>2016-06-17T10:16:49Z</time>
      </trkpt>
      <trkpt lat="47.78315" lon="0.36298">
        <ele>158.3</ele>
        <time>2016-06-17T10:16:56Z</time>
      </trkpt>
      <trkpt lat="47.78324" lon="0.36303">
        <ele>157.7</ele>
        <time>2016-06-17T10:17:04Z</time>
      </trkpt>
      <trkpt lat="47.78334" lon="0.36307">
        <ele>157.4</ele>
        <time>2016-06-17T10:17:12Z</time>
      </trkpt>
      <trkpt lat="47.78343" lon="0.3631">
        <ele>157.6</ele>
        <time>2016-06-17T10:17:21Z</time>
      </trkpt>
      <trkpt lat="47.78353" lon="0.36309">
        <ele>157.8</ele>
        <time>2016-06-17T10:17:28Z</time>
      </trkpt>
      <trkpt lat="47.78363" lon="0.36309">
        <ele>157.9</ele>
        <time>2016-06-17T10:17:35Z</time>
      </trkpt>
      <trkpt lat="47.78373" lon="0.36308">
        <ele>157.1</ele>
        <time>2016-06-17T10:17:42Z</time>
      </trkpt>
      <trkpt lat="47.78383" lon="0.36308">
        <ele>157.2</ele>
        <time>2016-06-17T10:17:50Z</time>
      </trkpt>
      <trkpt lat="47.78392" lon="0.36312">
        <ele>157.2</ele>
        <time>2016-06-17T10:17:58Z</time>
      </trkpt>
      <trkpt lat="47.78401" lon="0.36313">
        <ele>157</ele>
        <time>2016-06-17T10:18:06Z</time>
      </trkpt>
      <trkpt lat="47.7841" lon="0.36316">
        <ele>156.2</ele>
        <time>2016-06-17T10:18:14Z</time>
      </trkpt>
      <trkpt lat="47.7842" lon="0.36319">
        <ele>155.7</ele>
        <time>2016-06-17T10:18:21Z</time>
      </trkpt>
      <trkpt lat="47.78429" lon="0.3632">
        <ele>156.6</ele>
        <time>2016-06-17T10:18:30Z</time>
      </trkpt>
      <trkpt lat="47.78439" lon="0.36324">
        <ele>156.8</ele>
        <time>2016-06-17T10:18:36Z</time>
      </trkpt>
      <trkpt lat="47.78449" lon="0.36326">
        <ele>156.1</ele>
        <time>2016-06-17T10:18:44Z</time>
      </trkpt>
      <trkpt lat="47.78459" lon="0.36324">
        <ele>155.8</ele>
        <time>2016-06-17T10:18:49Z</time>
      </trkpt>
      <trkpt lat="47.7847" lon="0.36328">
        <ele>155.6</ele>
        <time>2016-06-17T10:18:58Z</time>
      </trkpt>
      <trkpt lat="47.78479" lon="0.36331">
        <ele>155.7</ele>
        <time>2016-06-17T10:19:05Z</time>
      </trkpt>
      <trkpt lat="47.78488" lon="0.3633">
        <ele>154.3</ele>
        <time>2016-06-17T10:19:12Z</time>
      </trkpt>
      <trkpt lat="47.78499" lon="0.36336">
        <ele>154.6</ele>
        <time>2016-06-17T10:19:19Z</time>
      </trkpt>
      <trkpt lat="47.78508" lon="0.36339">
        <ele>154.8</ele>
        <time>2016-06-17T10:19:26Z</time>
      </trkpt>
      <trkpt lat="47.78518" lon="0.36338">
        <ele>153.7</ele>
        <time>2016-06-17T10:19:45Z</time>
      </trkpt>
      <trkpt lat="47.78527" lon="0.36342">
        <ele>153.5</ele>
        <time>2016-06-17T10:19:52Z</time>
      </trkpt>
      <trkpt lat="47.78536" lon="0.36345">
        <ele>153</ele>
        <time>2016-06-17T10:20:00Z</time>
      </trkpt>
      <trkpt lat="47.78544" lon="0.36349">
        <ele>152.3</ele>
        <time>2016-06-17T10:20:07Z</time>
      </trkpt>
      <trkpt lat="47.78554" lon="0.36352">
        <ele>151.3</ele>
        <time>2016-06-17T10:20:15Z</time>
      </trkpt>
      <trkpt lat="47.78564" lon="0.36353">
        <ele>150.4</ele>
        <time>2016-06-17T10:20:23Z</time>
      </trkpt>
      <trkpt lat="47.78574" lon="0.36354">
        <ele>151.1</ele>
        <time>2016-06-17T10:20:29Z</time>
      </trkpt>
      <trkpt lat="47.78584" lon="0.36356">
        <ele>151.4</ele>
        <time>2016-06-17T10:20:35Z</time>
      </trkpt>
      <trkpt lat="47.78593" lon="0.3636">
        <ele>152.1</ele>
        <time>2016-06-17T10:20:45Z</time>
      </trkpt>
      <trkpt lat="47.78603" lon="0.36363">
        <ele>153.3</ele>
        <time>2016-06-17T10:20:54Z</time>
      </trkpt>
      <trkpt lat="47.78613" lon="0.36367">
        <ele>153.9</ele>
        <time>2016-06-17T10:21:02Z</time>
      </trkpt>
      <trkpt lat="47.78622" lon="0.36368">
        <ele>154.4</ele>
        <time>2016-06-17T10:21:11Z</time>
      </trkpt>
      <trkpt lat="47.78631" lon="0.36373">
        <ele>155.4</ele>
        <time>2016-06-17T10:21:18Z</time>
      </trkpt>
      <trkpt lat="47.78639" lon="0.36368">
        <ele>156</ele>
        <time>2016-06-17T10:21:26Z</time>
      </trkpt>
      <trkpt lat="47.78639" lon="0.36354">
        <ele>156.4</ele>
        <time>2016-06-17T10:21:49Z</time>
      </trkpt>
      <trkpt lat="47.78646" lon="0.36347">
        <ele>156.9</ele>
        <time>2016-06-17T10:21:55Z</time>
      </trkpt>
      <trkpt lat="47.78653" lon="0.36334">
        <ele>156.3</ele>
        <time>2016-06-17T10:22:02Z</time>
      </trkpt>
      <trkpt lat="47.78646" lon="0.36325">
        <ele>156.8</ele>
        <time>2016-06-17T10:22:48Z</time>
      </trkpt>
      <trkpt lat="47.78654" lon="0.36332">
        <ele>158.3</ele>
        <time>2016-06-17T10:27:02Z</time>
      </trkpt>
      <trkpt lat="47.78663" lon="0.36327">
        <ele>158.4</ele>
        <time>2016-06-17T10:27:12Z</time>
      </trkpt>
      <trkpt lat="47.78672" lon="0.36325">
        <ele>159.5</ele>
        <time>2016-06-17T10:27:18Z</time>
      </trkpt>
      <trkpt lat="47.78681" lon="0.36321">
        <ele>159.2</ele>
        <time>2016-06-17T10:27:27Z</time>
      </trkpt>
      <trkpt lat="47.78691" lon="0.36318">
        <ele>159.5</ele>
        <time>2016-06-17T10:27:35Z</time>
      </trkpt>
      <trkpt lat="47.787" lon="0.36314">
        <ele>159.3</ele>
        <time>2016-06-17T10:27:42Z</time>
      </trkpt>
      <trkpt lat="47.78709" lon="0.36309">
        <ele>159.5</ele>
        <time>2016-06-17T10:27:50Z</time>
      </trkpt>
      <trkpt lat="47.78719" lon="0.36305">
        <ele>160.5</ele>
        <time>2016-06-17T10:27:59Z</time>
      </trkpt>
      <trkpt lat="47.78727" lon="0.36298">
        <ele>159.5</ele>
        <time>2016-06-17T10:28:05Z</time>
      </trkpt>
      <trkpt lat="47.78734" lon="0.3629">
        <ele>160.5</ele>
        <time>2016-06-17T10:28:11Z</time>
      </trkpt>
      <trkpt lat="47.78739" lon="0.36276">
        <ele>160.9</ele>
        <time>2016-06-17T10:28:20Z</time>
      </trkpt>
      <trkpt lat="47.78747" lon="0.36268">
        <ele>162.1</ele>
        <time>2016-06-17T10:28:27Z</time>
      </trkpt>
      <trkpt lat="47.78755" lon="0.36259">
        <ele>161.5</ele>
        <time>2016-06-17T10:28:35Z</time>
      </trkpt>
      <trkpt lat="47.78762" lon="0.36249">
        <ele>162.1</ele>
        <time>2016-06-17T10:28:43Z</time>
      </trkpt>
      <trkpt lat="47.78769" lon="0.36241">
        <ele>162.2</ele>
        <time>2016-06-17T10:28:51Z</time>
      </trkpt>
      <trkpt lat="47.78777" lon="0.36231">
        <ele>162.6</ele>
        <time>2016-06-17T10:28:59Z</time>
      </trkpt>
      <trkpt lat="47.78786" lon="0.36222">
        <ele>162.7</ele>
        <time>2016-06-17T10:29:07Z</time>
      </trkpt>
      <trkpt lat="47.78795" lon="0.36215">
        <ele>163.1</ele>
        <time>2016-06-17T10:29:14Z</time>
      </trkpt>
      <trkpt lat="47.78803" lon="0.36208">
        <ele>162.6</ele>
        <time>2016-06-17T10:29:21Z</time>
      </trkpt>
      <trkpt lat="47.78812" lon="0.36201">
        <ele>163.2</ele>
        <time>2016-06-17T10:29:29Z</time>
      </trkpt>
      <trkpt lat="47.7882" lon="0.36192">
        <ele>163.4</ele>
        <time>2016-06-17T10:29:37Z</time>
      </trkpt>
      <trkpt lat="47.78829" lon="0.36185">
        <ele>163.5</ele>
        <time>2016-06-17T10:29:44Z</time>
      </trkpt>
      <trkpt lat="47.78836" lon="0.36176">
        <ele>163.3</ele>
        <time>2016-06-17T10:29:51Z</time>
      </trkpt>
      <trkpt lat="47.78845" lon="0.36169">
        <ele>163.5</ele>
        <time>2016-06-17T10:29:58Z</time>
      </trkpt>
      <trkpt lat="47.78853" lon="0.36161">
        <ele>162.3</ele>
        <time>2016-06-17T10:30:06Z</time>
      </trkpt>
      <trkpt lat="47.78862" lon="0.36153">
        <ele>162.6</ele>
        <time>2016-06-17T10:30:14Z</time>
      </trkpt>
      <trkpt lat="47.78871" lon="0.36145">
        <ele>162.8</ele>
        <time>2016-06-17T10:30:22Z</time>
      </trkpt>
      <trkpt lat="47.78878" lon="0.36138">
        <ele>162.7</ele>
        <time>2016-06-17T10:30:30Z</time>
      </trkpt>
      <trkpt lat="47.78888" lon="0.36134">
        <ele>162.9</ele>
        <time>2016-06-17T10:31:06Z</time>
      </trkpt>
      <trkpt lat="47.78895" lon="0.36126">
        <ele>162.9</ele>
        <time>2016-06-17T10:31:14Z</time>
      </trkpt>
      <trkpt lat="47.78903" lon="0.3612">
        <ele>162.5</ele>
        <time>2016-06-17T10:31:22Z</time>
      </trkpt>
      <trkpt lat="47.78912" lon="0.36113">
        <ele>162.3</ele>
        <time>2016-06-17T10:31:30Z</time>
      </trkpt>
      <trkpt lat="47.78921" lon="0.36106">
        <ele>162.4</ele>
        <time>2016-06-17T10:31:38Z</time>
      </trkpt>
      <trkpt lat="47.78929" lon="0.36099">
        <ele>162.7</ele>
        <time>2016-06-17T10:31:46Z</time>
      </trkpt>
      <trkpt lat="47.78938" lon="0.36091">
        <ele>162.8</ele>
        <time>2016-06-17T10:31:53Z</time>
      </trkpt>
      <trkpt lat="47.78947" lon="0.36083">
        <ele>162.3</ele>
        <time>2016-06-17T10:32:01Z</time>
      </trkpt>
      <trkpt lat="47.78955" lon="0.36075">
        <ele>162.3</ele>
        <time>2016-06-17T10:32:09Z</time>
      </trkpt>
      <trkpt lat="47.78963" lon="0.36067">
        <ele>162.4</ele>
        <time>2016-06-17T10:32:17Z</time>
      </trkpt>
      <trkpt lat="47.78971" lon="0.36061">
        <ele>162.1</ele>
        <time>2016-06-17T10:32:24Z</time>
      </trkpt>
      <trkpt lat="47.7898" lon="0.36054">
        <ele>162.1</ele>
        <time>2016-06-17T10:32:32Z</time>
      </trkpt>
      <trkpt lat="47.78989" lon="0.36048">
        <ele>162.4</ele>
        <time>2016-06-17T10:32:40Z</time>
      </trkpt>
      <trkpt lat="47.78997" lon="0.36041">
        <ele>162.8</ele>
        <time>2016-06-17T10:32:47Z</time>
      </trkpt>
      <trkpt lat="47.79005" lon="0.36034">
        <ele>162.6</ele>
        <time>2016-06-17T10:32:54Z</time>
      </trkpt>
      <trkpt lat="47.79014" lon="0.36026">
        <ele>162.4</ele>
        <time>2016-06-17T10:33:02Z</time>
      </trkpt>
      <trkpt lat="47.79023" lon="0.36019">
        <ele>162.4</ele>
        <time>2016-06-17T10:33:10Z</time>
      </trkpt>
      <trkpt lat="47.7903" lon="0.36011">
        <ele>162.6</ele>
        <time>2016-06-17T10:33:18Z</time>
      </trkpt>
      <trkpt lat="47.79039" lon="0.36004">
        <ele>163.9</ele>
        <time>2016-06-17T10:33:26Z</time>
      </trkpt>
      <trkpt lat="47.79047" lon="0.35997">
        <ele>163.8</ele>
        <time>2016-06-17T10:33:34Z</time>
      </trkpt>
      <trkpt lat="47.79055" lon="0.35989">
        <ele>163.6</ele>
        <time>2016-06-17T10:33:41Z</time>
      </trkpt>
      <trkpt lat="47.79063" lon="0.35982">
        <ele>163.6</ele>
        <time>2016-06-17T10:33:49Z</time>
      </trkpt>
      <trkpt lat="47.79072" lon="0.35974">
        <ele>163.9</ele>
        <time>2016-06-17T10:33:57Z</time>
      </trkpt>
      <trkpt lat="47.7908" lon="0.35967">
        <ele>163.7</ele>
        <time>2016-06-17T10:34:04Z</time>
      </trkpt>
      <trkpt lat="47.79088" lon="0.35959">
        <ele>163.2</ele>
        <time>2016-06-17T10:34:12Z</time>
      </trkpt>
      <trkpt lat="47.79096" lon="0.35952">
        <ele>164.3</ele>
        <time>2016-06-17T10:34:20Z</time>
      </trkpt>
      <trkpt lat="47.79105" lon="0.35946">
        <ele>164.4</ele>
        <time>2016-06-17T10:34:28Z</time>
      </trkpt>
      <trkpt lat="47.79113" lon="0.35939">
        <ele>164</ele>
        <time>2016-06-17T10:34:35Z</time>
      </trkpt>
      <trkpt lat="47.79121" lon="0.35933">
        <ele>164.3</ele>
        <time>2016-06-17T10:34:42Z</time>
      </trkpt>
      <trkpt lat="47.79129" lon="0.35925">
        <ele>164.1</ele>
        <time>2016-06-17T10:34:49Z</time>
      </trkpt>
      <trkpt lat="47.79137" lon="0.35919">
        <ele>164.6</ele>
        <time>2016-06-17T10:34:55Z</time>
      </trkpt>
      <trkpt lat="47.79146" lon="0.35912">
        <ele>163.6</ele>
        <time>2016-06-17T10:35:03Z</time>
      </trkpt>
      <trkpt lat="47.79153" lon="0.35904">
        <ele>162.7</ele>
        <time>2016-06-17T10:35:10Z</time>
      </trkpt>
      <trkpt lat="47.79161" lon="0.35897">
        <ele>162.6</ele>
        <time>2016-06-17T10:35:17Z</time>
      </trkpt>
      <trkpt lat="47.7917" lon="0.3589">
        <ele>162.7</ele>
        <time>2016-06-17T10:35:25Z</time>
      </trkpt>
      <trkpt lat="47.79178" lon="0.35883">
        <ele>163.1</ele>
        <time>2016-06-17T10:35:33Z</time>
      </trkpt>
      <trkpt lat="47.79187" lon="0.35878">
        <ele>163.5</ele>
        <time>2016-06-17T10:35:41Z</time>
      </trkpt>
      <trkpt lat="47.79195" lon="0.35873">
        <ele>162.9</ele>
        <time>2016-06-17T10:35:49Z</time>
      </trkpt>
      <trkpt lat="47.79203" lon="0.35867">
        <ele>163</ele>
        <time>2016-06-17T10:35:56Z</time>
      </trkpt>
      <trkpt lat="47.7921" lon="0.35859">
        <ele>162.9</ele>
        <time>2016-06-17T10:36:04Z</time>
      </trkpt>
      <trkpt lat="47.7922" lon="0.35851">
        <ele>162.9</ele>
        <time>2016-06-17T10:36:13Z</time>
      </trkpt>
      <trkpt lat="47.79227" lon="0.35844">
        <ele>162.7</ele>
        <time>2016-06-17T10:36:20Z</time>
      </trkpt>
      <trkpt lat="47.79237" lon="0.35839">
        <ele>162.3</ele>
        <time>2016-06-17T10:36:29Z</time>
      </trkpt>
      <trkpt lat="47.79245" lon="0.3583">
        <ele>161.8</ele>
        <time>2016-06-17T10:36:36Z</time>
      </trkpt>
      <trkpt lat="47.79253" lon="0.35823">
        <ele>161.9</ele>
        <time>2016-06-17T10:36:43Z</time>
      </trkpt>
      <trkpt lat="47.79262" lon="0.35817">
        <ele>162.1</ele>
        <time>2016-06-17T10:36:52Z</time>
      </trkpt>
      <trkpt lat="47.7927" lon="0.35812">
        <ele>162.4</ele>
        <time>2016-06-17T10:36:59Z</time>
      </trkpt>
      <trkpt lat="47.79279" lon="0.35804">
        <ele>162.2</ele>
        <time>2016-06-17T10:37:07Z</time>
      </trkpt>
      <trkpt lat="47.79287" lon="0.35795">
        <ele>162.4</ele>
        <time>2016-06-17T10:37:15Z</time>
      </trkpt>
      <trkpt lat="47.79296" lon="0.35789">
        <ele>162.4</ele>
        <time>2016-06-17T10:37:22Z</time>
      </trkpt>
      <trkpt lat="47.79304" lon="0.35781">
        <ele>161.8</ele>
        <time>2016-06-17T10:37:29Z</time>
      </trkpt>
      <trkpt lat="47.79312" lon="0.35774">
        <ele>162.5</ele>
        <time>2016-06-17T10:37:36Z</time>
      </trkpt>
      <trkpt lat="47.7932" lon="0.35765">
        <ele>162.2</ele>
        <time>2016-06-17T10:37:43Z</time>
      </trkpt>
      <trkpt lat="47.79328" lon="0.35759">
        <ele>161.9</ele>
        <time>2016-06-17T10:37:51Z</time>
      </trkpt>
      <trkpt lat="47.79336" lon="0.35752">
        <ele>161.5</ele>
        <time>2016-06-17T10:37:59Z</time>
      </trkpt>
      <trkpt lat="47.79343" lon="0.35742">
        <ele>161.8</ele>
        <time>2016-06-17T10:38:07Z</time>
      </trkpt>
      <trkpt lat="47.79351" lon="0.35737">
        <ele>162.2</ele>
        <time>2016-06-17T10:38:17Z</time>
      </trkpt>
      <trkpt lat="47.7936" lon="0.3573">
        <ele>163</ele>
        <time>2016-06-17T10:38:24Z</time>
      </trkpt>
      <trkpt lat="47.79369" lon="0.35722">
        <ele>162.4</ele>
        <time>2016-06-17T10:38:30Z</time>
      </trkpt>
      <trkpt lat="47.79378" lon="0.35717">
        <ele>161.9</ele>
        <time>2016-06-17T10:38:38Z</time>
      </trkpt>
      <trkpt lat="47.79386" lon="0.35711">
        <ele>162.4</ele>
        <time>2016-06-17T10:38:44Z</time>
      </trkpt>
      <trkpt lat="47.79394" lon="0.35703">
        <ele>161.6</ele>
        <time>2016-06-17T10:38:52Z</time>
      </trkpt>
      <trkpt lat="47.79403" lon="0.35695">
        <ele>161.6</ele>
        <time>2016-06-17T10:38:59Z</time>
      </trkpt>
      <trkpt lat="47.79412" lon="0.35687">
        <ele>161.4</ele>
        <time>2016-06-17T10:39:07Z</time>
      </trkpt>
      <trkpt lat="47.7942" lon="0.35679">
        <ele>161.1</ele>
        <time>2016-06-17T10:39:17Z</time>
      </trkpt>
      <trkpt lat="47.79429" lon="0.35673">
        <ele>161</ele>
        <time>2016-06-17T10:39:25Z</time>
      </trkpt>
      <trkpt lat="47.79437" lon="0.35665">
        <ele>160.8</ele>
        <time>2016-06-17T10:39:32Z</time>
      </trkpt>
      <trkpt lat="47.79445" lon="0.35657">
        <ele>160.6</ele>
        <time>2016-06-17T10:39:39Z</time>
      </trkpt>
      <trkpt lat="47.79453" lon="0.3565">
        <ele>160.9</ele>
        <time>2016-06-17T10:39:46Z</time>
      </trkpt>
      <trkpt lat="47.79462" lon="0.35644">
        <ele>160.7</ele>
        <time>2016-06-17T10:39:53Z</time>
      </trkpt>
      <trkpt lat="47.7947" lon="0.35636">
        <ele>160.2</ele>
        <time>2016-06-17T10:40:02Z</time>
      </trkpt>
      <trkpt lat="47.79479" lon="0.35629">
        <ele>160.2</ele>
        <time>2016-06-17T10:40:09Z</time>
      </trkpt>
      <trkpt lat="47.79488" lon="0.35623">
        <ele>160.5</ele>
        <time>2016-06-17T10:40:17Z</time>
      </trkpt>
      <trkpt lat="47.79495" lon="0.35611">
        <ele>160.6</ele>
        <time>2016-06-17T10:40:25Z</time>
      </trkpt>
      <trkpt lat="47.79504" lon="0.35607">
        <ele>160</ele>
        <time>2016-06-17T10:40:32Z</time>
      </trkpt>
      <trkpt lat="47.79512" lon="0.356">
        <ele>160.2</ele>
        <time>2016-06-17T10:40:39Z</time>
      </trkpt>
      <trkpt lat="47.79519" lon="0.3559">
        <ele>160.6</ele>
        <time>2016-06-17T10:40:48Z</time>
      </trkpt>
      <trkpt lat="47.79528" lon="0.35582">
        <ele>160.1</ele>
        <time>2016-06-17T10:40:55Z</time>
      </trkpt>
      <trkpt lat="47.79536" lon="0.35574">
        <ele>160.2</ele>
        <time>2016-06-17T10:41:03Z</time>
      </trkpt>
      <trkpt lat="47.79544" lon="0.35569">
        <ele>160.1</ele>
        <time>2016-06-17T10:41:10Z</time>
      </trkpt>
      <trkpt lat="47.79553" lon="0.35562">
        <ele>160.9</ele>
        <time>2016-06-17T10:41:19Z</time>
      </trkpt>
      <trkpt lat="47.79562" lon="0.35555">
        <ele>160.1</ele>
        <time>2016-06-17T10:41:26Z</time>
      </trkpt>
      <trkpt lat="47.7957" lon="0.35548">
        <ele>161</ele>
        <time>2016-06-17T10:41:34Z</time>
      </trkpt>
      <trkpt lat="47.7958" lon="0.35541">
        <ele>161</ele>
        <time>2016-06-17T10:41:42Z</time>
      </trkpt>
      <trkpt lat="47.79587" lon="0.35533">
        <ele>159.4</ele>
        <time>2016-06-17T10:41:50Z</time>
      </trkpt>
      <trkpt lat="47.79595" lon="0.35525">
        <ele>159.2</ele>
        <time>2016-06-17T10:41:57Z</time>
      </trkpt>
      <trkpt lat="47.79603" lon="0.35518">
        <ele>158.7</ele>
        <time>2016-06-17T10:42:04Z</time>
      </trkpt>
      <trkpt lat="47.7961" lon="0.35509">
        <ele>159</ele>
        <time>2016-06-17T10:42:12Z</time>
      </trkpt>
      <trkpt lat="47.79618" lon="0.35501">
        <ele>158.4</ele>
        <time>2016-06-17T10:42:19Z</time>
      </trkpt>
      <trkpt lat="47.79626" lon="0.35493">
        <ele>159.1</ele>
        <time>2016-06-17T10:42:26Z</time>
      </trkpt>
      <trkpt lat="47.79634" lon="0.35487">
        <ele>159.1</ele>
        <time>2016-06-17T10:42:33Z</time>
      </trkpt>
      <trkpt lat="47.79642" lon="0.35481">
        <ele>158.7</ele>
        <time>2016-06-17T10:42:40Z</time>
      </trkpt>
      <trkpt lat="47.79651" lon="0.35473">
        <ele>159.5</ele>
        <time>2016-06-17T10:42:48Z</time>
      </trkpt>
      <trkpt lat="47.79659" lon="0.35465">
        <ele>159.7</ele>
        <time>2016-06-17T10:42:56Z</time>
      </trkpt>
      <trkpt lat="47.79668" lon="0.35457">
        <ele>160.2</ele>
        <time>2016-06-17T10:43:04Z</time>
      </trkpt>
      <trkpt lat="47.79676" lon="0.3545">
        <ele>160.6</ele>
        <time>2016-06-17T10:43:12Z</time>
      </trkpt>
      <trkpt lat="47.79685" lon="0.35443">
        <ele>160.2</ele>
        <time>2016-06-17T10:43:20Z</time>
      </trkpt>
      <trkpt lat="47.79691" lon="0.35434">
        <ele>161.6</ele>
        <time>2016-06-17T10:43:27Z</time>
      </trkpt>
      <trkpt lat="47.79699" lon="0.35427">
        <ele>161.1</ele>
        <time>2016-06-17T10:43:35Z</time>
      </trkpt>
      <trkpt lat="47.79707" lon="0.3542">
        <ele>161.2</ele>
        <time>2016-06-17T10:43:43Z</time>
      </trkpt>
      <trkpt lat="47.79716" lon="0.35413">
        <ele>160.8</ele>
        <time>2016-06-17T10:43:50Z</time>
      </trkpt>
      <trkpt lat="47.79724" lon="0.35405">
        <ele>160.9</ele>
        <time>2016-06-17T10:43:57Z</time>
      </trkpt>
      <trkpt lat="47.79733" lon="0.35398">
        <ele>160.4</ele>
        <time>2016-06-17T10:44:05Z</time>
      </trkpt>
      <trkpt lat="47.79741" lon="0.35392">
        <ele>161.1</ele>
        <time>2016-06-17T10:44:13Z</time>
      </trkpt>
      <trkpt lat="47.79749" lon="0.35384">
        <ele>160.9</ele>
        <time>2016-06-17T10:44:21Z</time>
      </trkpt>
      <trkpt lat="47.79758" lon="0.35378">
        <ele>161.4</ele>
        <time>2016-06-17T10:44:29Z</time>
      </trkpt>
      <trkpt lat="47.79767" lon="0.35372">
        <ele>161.6</ele>
        <time>2016-06-17T10:44:37Z</time>
      </trkpt>
      <trkpt lat="47.79775" lon="0.35363">
        <ele>161.4</ele>
        <time>2016-06-17T10:44:44Z</time>
      </trkpt>
      <trkpt lat="47.79782" lon="0.35355">
        <ele>161.2</ele>
        <time>2016-06-17T10:44:52Z</time>
      </trkpt>
      <trkpt lat="47.7979" lon="0.35349">
        <ele>161.2</ele>
        <time>2016-06-17T10:45:00Z</time>
      </trkpt>
      <trkpt lat="47.79799" lon="0.35341">
        <ele>161.3</ele>
        <time>2016-06-17T10:45:08Z</time>
      </trkpt>
      <trkpt lat="47.79808" lon="0.35335">
        <ele>161.3</ele>
        <time>2016-06-17T10:45:15Z</time>
      </trkpt>
      <trkpt lat="47.79815" lon="0.35328">
        <ele>161.4</ele>
        <time>2016-06-17T10:45:23Z</time>
      </trkpt>
      <trkpt lat="47.79823" lon="0.3532">
        <ele>161.2</ele>
        <time>2016-06-17T10:45:30Z</time>
      </trkpt>
      <trkpt lat="47.79831" lon="0.35313">
        <ele>161.2</ele>
        <time>2016-06-17T10:45:37Z</time>
      </trkpt>
      <trkpt lat="47.7984" lon="0.35306">
        <ele>161.1</ele>
        <time>2016-06-17T10:45:46Z</time>
      </trkpt>
      <trkpt lat="47.79849" lon="0.353">
        <ele>161.1</ele>
        <time>2016-06-17T10:45:54Z</time>
      </trkpt>
      <trkpt lat="47.79857" lon="0.35294">
        <ele>161.5</ele>
        <time>2016-06-17T10:46:01Z</time>
      </trkpt>
      <trkpt lat="47.79865" lon="0.35287">
        <ele>161</ele>
        <time>2016-06-17T10:46:07Z</time>
      </trkpt>
      <trkpt lat="47.79872" lon="0.35279">
        <ele>162</ele>
        <time>2016-06-17T10:46:17Z</time>
      </trkpt>
      <trkpt lat="47.79881" lon="0.35273">
        <ele>161.1</ele>
        <time>2016-06-17T10:46:25Z</time>
      </trkpt>
      <trkpt lat="47.7989" lon="0.3527">
        <ele>161</ele>
        <time>2016-06-17T10:46:36Z</time>
      </trkpt>
      <trkpt lat="47.79898" lon="0.35264">
        <ele>161.4</ele>
        <time>2016-06-17T10:46:43Z</time>
      </trkpt>
      <trkpt lat="47.79907" lon="0.35256">
        <ele>161.2</ele>
        <time>2016-06-17T10:46:54Z</time>
      </trkpt>
      <trkpt lat="47.79916" lon="0.3525">
        <ele>161.9</ele>
        <time>2016-06-17T10:47:00Z</time>
      </trkpt>
      <trkpt lat="47.79924" lon="0.35243">
        <ele>161.9</ele>
        <time>2016-06-17T10:47:06Z</time>
      </trkpt>
      <trkpt lat="47.79932" lon="0.35234">
        <ele>162.7</ele>
        <time>2016-06-17T10:47:15Z</time>
      </trkpt>
      <trkpt lat="47.79941" lon="0.35229">
        <ele>162.6</ele>
        <time>2016-06-17T10:47:20Z</time>
      </trkpt>
      <trkpt lat="47.79951" lon="0.35224">
        <ele>162.5</ele>
        <time>2016-06-17T10:47:27Z</time>
      </trkpt>
      <trkpt lat="47.79959" lon="0.35216">
        <ele>161.6</ele>
        <time>2016-06-17T10:47:35Z</time>
      </trkpt>
      <trkpt lat="47.79967" lon="0.35209">
        <ele>160.9</ele>
        <time>2016-06-17T10:47:43Z</time>
      </trkpt>
      <trkpt lat="47.79975" lon="0.352">
        <ele>162</ele>
        <time>2016-06-17T10:47:52Z</time>
      </trkpt>
      <trkpt lat="47.79983" lon="0.3519">
        <ele>162.1</ele>
        <time>2016-06-17T10:48:01Z</time>
      </trkpt>
      <trkpt lat="47.79991" lon="0.35183">
        <ele>162.8</ele>
        <time>2016-06-17T10:48:10Z</time>
      </trkpt>
      <trkpt lat="47.79998" lon="0.35175">
        <ele>163.4</ele>
        <time>2016-06-17T10:48:44Z</time>
      </trkpt>
      <trkpt lat="47.80008" lon="0.35173">
        <ele>163.3</ele>
        <time>2016-06-17T10:51:04Z</time>
      </trkpt>
      <trkpt lat="47.80017" lon="0.35174">
        <ele>163.1</ele>
        <time>2016-06-17T10:51:14Z</time>
      </trkpt>
      <trkpt lat="47.80029" lon="0.35175">
        <ele>163.4</ele>
        <time>2016-06-17T10:51:23Z</time>
      </trkpt>
      <trkpt lat="47.80039" lon="0.35177">
        <ele>163.1</ele>
        <time>2016-06-17T10:51:31Z</time>
      </trkpt>
      <trkpt lat="47.80049" lon="0.35178">
        <ele>163.6</ele>
        <time>2016-06-17T10:51:39Z</time>
      </trkpt>
      <trkpt lat="47.80058" lon="0.35178">
        <ele>163.1</ele>
        <time>2016-06-17T10:51:46Z</time>
      </trkpt>
      <trkpt lat="47.80068" lon="0.35182">
        <ele>163.9</ele>
        <time>2016-06-17T10:51:56Z</time>
      </trkpt>
      <trkpt lat="47.80078" lon="0.35181">
        <ele>163.7</ele>
        <time>2016-06-17T10:52:04Z</time>
      </trkpt>
      <trkpt lat="47.80089" lon="0.3518">
        <ele>164.3</ele>
        <time>2016-06-17T10:52:12Z</time>
      </trkpt>
      <trkpt lat="47.80098" lon="0.3518">
        <ele>163.7</ele>
        <time>2016-06-17T10:52:21Z</time>
      </trkpt>
      <trkpt lat="47.80108" lon="0.35178">
        <ele>164.4</ele>
        <time>2016-06-17T10:52:30Z</time>
      </trkpt>
      <trkpt lat="47.80116" lon="0.35174">
        <ele>164.1</ele>
        <time>2016-06-17T10:52:39Z</time>
      </trkpt>
      <trkpt lat="47.80126" lon="0.35177">
        <ele>164.2</ele>
        <time>2016-06-17T10:52:45Z</time>
      </trkpt>
      <trkpt lat="47.80136" lon="0.35173">
        <ele>165.4</ele>
        <time>2016-06-17T10:53:25Z</time>
      </trkpt>
      <trkpt lat="47.80146" lon="0.35172">
        <ele>165.1</ele>
        <time>2016-06-17T10:53:31Z</time>
      </trkpt>
      <trkpt lat="47.80155" lon="0.35173">
        <ele>164.5</ele>
        <time>2016-06-17T10:53:37Z</time>
      </trkpt>
      <trkpt lat="47.80164" lon="0.35169">
        <ele>164.4</ele>
        <time>2016-06-17T10:53:43Z</time>
      </trkpt>
      <trkpt lat="47.80174" lon="0.35168">
        <ele>164.4</ele>
        <time>2016-06-17T10:53:52Z</time>
      </trkpt>
      <trkpt lat="47.80183" lon="0.35164">
        <ele>164.2</ele>
        <time>2016-06-17T10:53:58Z</time>
      </trkpt>
      <trkpt lat="47.80193" lon="0.35159">
        <ele>164</ele>
        <time>2016-06-17T10:54:04Z</time>
      </trkpt>
      <trkpt lat="47.80202" lon="0.35153">
        <ele>164.7</ele>
        <time>2016-06-17T10:54:11Z</time>
      </trkpt>
      <trkpt lat="47.8021" lon="0.35145">
        <ele>164.3</ele>
        <time>2016-06-17T10:54:18Z</time>
      </trkpt>
      <trkpt lat="47.8022" lon="0.3514">
        <ele>164.1</ele>
        <time>2016-06-17T10:54:25Z</time>
      </trkpt>
      <trkpt lat="47.80229" lon="0.35134">
        <ele>163.8</ele>
        <time>2016-06-17T10:54:32Z</time>
      </trkpt>
      <trkpt lat="47.80238" lon="0.35131">
        <ele>163.8</ele>
        <time>2016-06-17T10:54:40Z</time>
      </trkpt>
      <trkpt lat="47.80238" lon="0.35116">
        <ele>163.6</ele>
        <time>2016-06-17T10:55:44Z</time>
      </trkpt>
      <trkpt lat="47.80228" lon="0.35115">
        <ele>163.4</ele>
        <time>2016-06-17T10:55:56Z</time>
      </trkpt>
      <trkpt lat="47.80218" lon="0.3512">
        <ele>163.4</ele>
        <time>2016-06-17T10:56:03Z</time>
      </trkpt>
      <trkpt lat="47.80208" lon="0.35122">
        <ele>163.4</ele>
        <time>2016-06-17T10:56:10Z</time>
      </trkpt>
      <trkpt lat="47.802" lon="0.35129">
        <ele>163.9</ele>
        <time>2016-06-17T10:56:17Z</time>
      </trkpt>
      <trkpt lat="47.8019" lon="0.35134">
        <ele>164.3</ele>
        <time>2016-06-17T10:56:24Z</time>
      </trkpt>
      <trkpt lat="47.80183" lon="0.35144">
        <ele>163.7</ele>
        <time>2016-06-17T10:56:32Z</time>
      </trkpt>
      <trkpt lat="47.80173" lon="0.35146">
        <ele>163.4</ele>
        <time>2016-06-17T10:56:45Z</time>
      </trkpt>
      <trkpt lat="47.80165" lon="0.35151">
        <ele>164</ele>
        <time>2016-06-17T10:56:57Z</time>
      </trkpt>
      <trkpt lat="47.80155" lon="0.35154">
        <ele>164.4</ele>
        <time>2016-06-17T10:57:56Z</time>
      </trkpt>
      <trkpt lat="47.80145" lon="0.35153">
        <ele>164.3</ele>
        <time>2016-06-17T10:58:04Z</time>
      </trkpt>
      <trkpt lat="47.80135" lon="0.3515">
        <ele>164.5</ele>
        <time>2016-06-17T10:58:16Z</time>
      </trkpt>
      <trkpt lat="47.80126" lon="0.35147">
        <ele>163.9</ele>
        <time>2016-06-17T10:58:22Z</time>
      </trkpt>
      <trkpt lat="47.80116" lon="0.35149">
        <ele>163.7</ele>
        <time>2016-06-17T10:58:27Z</time>
      </trkpt>
      <trkpt lat="47.80107" lon="0.35146">
        <ele>163.4</ele>
        <time>2016-06-17T10:58:33Z</time>
      </trkpt>
      <trkpt lat="47.80098" lon="0.35146">
        <ele>163</ele>
        <time>2016-06-17T10:58:39Z</time>
      </trkpt>
      <trkpt lat="47.80089" lon="0.35144">
        <ele>163.4</ele>
        <time>2016-06-17T10:58:48Z</time>
      </trkpt>
      <trkpt lat="47.80078" lon="0.35151">
        <ele>167.9</ele>
        <time>2016-06-17T10:59:00Z</time>
      </trkpt>
      <trkpt lat="47.80068" lon="0.35153">
        <ele>165.5</ele>
        <time>2016-06-17T10:59:06Z</time>
      </trkpt>
      <trkpt lat="47.80059" lon="0.35156">
        <ele>164.3</ele>
        <time>2016-06-17T10:59:12Z</time>
      </trkpt>
      <trkpt lat="47.80049" lon="0.35158">
        <ele>157.4</ele>
        <time>2016-06-17T10:59:20Z</time>
      </trkpt>
      <trkpt lat="47.80039" lon="0.3516">
        <ele>165</ele>
        <time>2016-06-17T10:59:26Z</time>
      </trkpt>
      <trkpt lat="47.8003" lon="0.35161">
        <ele>163.6</ele>
        <time>2016-06-17T10:59:32Z</time>
      </trkpt>
      <trkpt lat="47.80021" lon="0.35165">
        <ele>162.6</ele>
        <time>2016-06-17T10:59:45Z</time>
      </trkpt>
      <trkpt lat="47.80029" lon="0.35174">
        <ele>165.2</ele>
        <time>2016-06-17T11:00:22Z</time>
      </trkpt>
      <trkpt lat="47.80038" lon="0.35182">
        <ele>164.7</ele>
        <time>2016-06-17T11:00:28Z</time>
      </trkpt>
      <trkpt lat="47.80045" lon="0.35192">
        <ele>163.5</ele>
        <time>2016-06-17T11:00:34Z</time>
      </trkpt>
      <trkpt lat="47.80053" lon="0.35202">
        <ele>162.9</ele>
        <time>2016-06-17T11:00:41Z</time>
      </trkpt>
      <trkpt lat="47.8006" lon="0.3521">
        <ele>163.1</ele>
        <time>2016-06-17T11:00:48Z</time>
      </trkpt>
      <trkpt lat="47.80069" lon="0.35215">
        <ele>162.9</ele>
        <time>2016-06-17T11:00:56Z</time>
      </trkpt>
      <trkpt lat="47.80078" lon="0.35221">
        <ele>164.1</ele>
        <time>2016-06-17T11:01:06Z</time>
      </trkpt>
      <trkpt lat="47.80087" lon="0.35228">
        <ele>165.3</ele>
        <time>2016-06-17T11:01:14Z</time>
      </trkpt>
      <trkpt lat="47.80093" lon="0.3524">
        <ele>165.4</ele>
        <time>2016-06-17T11:01:25Z</time>
      </trkpt>
      <trkpt lat="47.80101" lon="0.35248">
        <ele>165</ele>
        <time>2016-06-17T11:01:33Z</time>
      </trkpt>
      <trkpt lat="47.8011" lon="0.35255">
        <ele>164.6</ele>
        <time>2016-06-17T11:01:41Z</time>
      </trkpt>
      <trkpt lat="47.8012" lon="0.35261">
        <ele>164.3</ele>
        <time>2016-06-17T11:01:49Z</time>
      </trkpt>
      <trkpt lat="47.80129" lon="0.35266">
        <ele>165.4</ele>
        <time>2016-06-17T11:01:55Z</time>
      </trkpt>
      <trkpt lat="47.80138" lon="0.35271">
        <ele>164.3</ele>
        <time>2016-06-17T11:02:02Z</time>
      </trkpt>
      <trkpt lat="47.80145" lon="0.35279">
        <ele>163.1</ele>
        <time>2016-06-17T11:02:09Z</time>
      </trkpt>
      <trkpt lat="47.80154" lon="0.35285">
        <ele>164.1</ele>
        <time>2016-06-17T11:02:15Z</time>
      </trkpt>
      <trkpt lat="47.80163" lon="0.35294">
        <ele>164.1</ele>
        <time>2016-06-17T11:02:24Z</time>
      </trkpt>
      <trkpt lat="47.80172" lon="0.35301">
        <ele>164.3</ele>
        <time>2016-06-17T11:02:30Z</time>
      </trkpt>
      <trkpt lat="47.8018" lon="0.35307">
        <ele>165.2</ele>
        <time>2016-06-17T11:02:39Z</time>
      </trkpt>
      <trkpt lat="47.80188" lon="0.35313">
        <ele>165.1</ele>
        <time>2016-06-17T11:02:45Z</time>
      </trkpt>
      <trkpt lat="47.80196" lon="0.35319">
        <ele>164.8</ele>
        <time>2016-06-17T11:02:51Z</time>
      </trkpt>
      <trkpt lat="47.80204" lon="0.3533">
        <ele>163.4</ele>
        <time>2016-06-17T11:03:03Z</time>
      </trkpt>
      <trkpt lat="47.80212" lon="0.35339">
        <ele>163.1</ele>
        <time>2016-06-17T11:03:10Z</time>
      </trkpt>
      <trkpt lat="47.80222" lon="0.35342">
        <ele>163.3</ele>
        <time>2016-06-17T11:03:15Z</time>
      </trkpt>
      <trkpt lat="47.80231" lon="0.35349">
        <ele>162.8</ele>
        <time>2016-06-17T11:03:22Z</time>
      </trkpt>
      <trkpt lat="47.80241" lon="0.35353">
        <ele>163.5</ele>
        <time>2016-06-17T11:03:28Z</time>
      </trkpt>
      <trkpt lat="47.80249" lon="0.35359">
        <ele>163.7</ele>
        <time>2016-06-17T11:03:35Z</time>
      </trkpt>
      <trkpt lat="47.80257" lon="0.35366">
        <ele>163.3</ele>
        <time>2016-06-17T11:03:42Z</time>
      </trkpt>
      <trkpt lat="47.80266" lon="0.35373">
        <ele>163.2</ele>
        <time>2016-06-17T11:03:49Z</time>
      </trkpt>
      <trkpt lat="47.80275" lon="0.3538">
        <ele>164</ele>
        <time>2016-06-17T11:03:57Z</time>
      </trkpt>
      <trkpt lat="47.80283" lon="0.35386">
        <ele>163.6</ele>
        <time>2016-06-17T11:04:04Z</time>
      </trkpt>
      <trkpt lat="47.80292" lon="0.35393">
        <ele>162.8</ele>
        <time>2016-06-17T11:04:11Z</time>
      </trkpt>
      <trkpt lat="47.803" lon="0.35398">
        <ele>163.1</ele>
        <time>2016-06-17T11:04:18Z</time>
      </trkpt>
      <trkpt lat="47.80309" lon="0.35403">
        <ele>163.7</ele>
        <time>2016-06-17T11:04:26Z</time>
      </trkpt>
      <trkpt lat="47.80317" lon="0.3541">
        <ele>163.3</ele>
        <time>2016-06-17T11:04:33Z</time>
      </trkpt>
      <trkpt lat="47.80325" lon="0.35417">
        <ele>163.1</ele>
        <time>2016-06-17T11:04:40Z</time>
      </trkpt>
      <trkpt lat="47.80333" lon="0.35426">
        <ele>163.5</ele>
        <time>2016-06-17T11:04:47Z</time>
      </trkpt>
      <trkpt lat="47.80342" lon="0.35425">
        <ele>162.6</ele>
        <time>2016-06-17T11:04:55Z</time>
      </trkpt>
      <trkpt lat="47.80349" lon="0.35416">
        <ele>162.5</ele>
        <time>2016-06-17T11:05:02Z</time>
      </trkpt>
      <trkpt lat="47.80353" lon="0.35403">
        <ele>162.3</ele>
        <time>2016-06-17T11:05:09Z</time>
      </trkpt>
      <trkpt lat="47.80359" lon="0.35391">
        <ele>162</ele>
        <time>2016-06-17T11:05:17Z</time>
      </trkpt>
      <trkpt lat="47.80362" lon="0.35378">
        <ele>162.5</ele>
        <time>2016-06-17T11:05:23Z</time>
      </trkpt>
      <trkpt lat="47.80367" lon="0.35366">
        <ele>162.6</ele>
        <time>2016-06-17T11:05:31Z</time>
      </trkpt>
      <trkpt lat="47.80372" lon="0.35355">
        <ele>163.7</ele>
        <time>2016-06-17T11:05:38Z</time>
      </trkpt>
      <trkpt lat="47.80378" lon="0.35344">
        <ele>164.2</ele>
        <time>2016-06-17T11:05:46Z</time>
      </trkpt>
      <trkpt lat="47.80383" lon="0.35333">
        <ele>163.8</ele>
        <time>2016-06-17T11:05:54Z</time>
      </trkpt>
      <trkpt lat="47.80389" lon="0.3532">
        <ele>163.5</ele>
        <time>2016-06-17T11:06:02Z</time>
      </trkpt>
      <trkpt lat="47.80393" lon="0.35307">
        <ele>162.6</ele>
        <time>2016-06-17T11:06:09Z</time>
      </trkpt>
      <trkpt lat="47.804" lon="0.35297">
        <ele>162.4</ele>
        <time>2016-06-17T11:06:17Z</time>
      </trkpt>
      <trkpt lat="47.80406" lon="0.35286">
        <ele>162.5</ele>
        <time>2016-06-17T11:06:25Z</time>
      </trkpt>
      <trkpt lat="47.80411" lon="0.35272">
        <ele>162.2</ele>
        <time>2016-06-17T11:06:32Z</time>
      </trkpt>
      <trkpt lat="47.80418" lon="0.3526">
        <ele>162.9</ele>
        <time>2016-06-17T11:06:40Z</time>
      </trkpt>
      <trkpt lat="47.80425" lon="0.3525">
        <ele>162.7</ele>
        <time>2016-06-17T11:06:48Z</time>
      </trkpt>
      <trkpt lat="47.80433" lon="0.35241">
        <ele>162.7</ele>
        <time>2016-06-17T11:06:55Z</time>
      </trkpt>
      <trkpt lat="47.80441" lon="0.35234">
        <ele>161.3</ele>
        <time>2016-06-17T11:07:02Z</time>
      </trkpt>
      <trkpt lat="47.8045" lon="0.35229">
        <ele>162.5</ele>
        <time>2016-06-17T11:07:09Z</time>
      </trkpt>
      <trkpt lat="47.80459" lon="0.35224">
        <ele>162.9</ele>
        <time>2016-06-17T11:07:16Z</time>
      </trkpt>
      <trkpt lat="47.80467" lon="0.35219">
        <ele>163</ele>
        <time>2016-06-17T11:07:23Z</time>
      </trkpt>
      <trkpt lat="47.80476" lon="0.35213">
        <ele>162.6</ele>
        <time>2016-06-17T11:07:30Z</time>
      </trkpt>
      <trkpt lat="47.80485" lon="0.35208">
        <ele>162</ele>
        <time>2016-06-17T11:07:37Z</time>
      </trkpt>
      <trkpt lat="47.80493" lon="0.35201">
        <ele>162.1</ele>
        <time>2016-06-17T11:07:45Z</time>
      </trkpt>
      <trkpt lat="47.80502" lon="0.35194">
        <ele>162</ele>
        <time>2016-06-17T11:07:53Z</time>
      </trkpt>
      <trkpt lat="47.80511" lon="0.35188">
        <ele>161.3</ele>
        <time>2016-06-17T11:08:02Z</time>
      </trkpt>
      <trkpt lat="47.8052" lon="0.35181">
        <ele>161.7</ele>
        <time>2016-06-17T11:08:14Z</time>
      </trkpt>
      <trkpt lat="47.80528" lon="0.35175">
        <ele>161.3</ele>
        <time>2016-06-17T11:08:21Z</time>
      </trkpt>
      <trkpt lat="47.80536" lon="0.35168">
        <ele>160.5</ele>
        <time>2016-06-17T11:08:28Z</time>
      </trkpt>
      <trkpt lat="47.80543" lon="0.35159">
        <ele>160.9</ele>
        <time>2016-06-17T11:08:34Z</time>
      </trkpt>
      <trkpt lat="47.80552" lon="0.35154">
        <ele>160.8</ele>
        <time>2016-06-17T11:08:41Z</time>
      </trkpt>
      <trkpt lat="47.80561" lon="0.35146">
        <ele>160.6</ele>
        <time>2016-06-17T11:08:48Z</time>
      </trkpt>
      <trkpt lat="47.80569" lon="0.35139">
        <ele>160.3</ele>
        <time>2016-06-17T11:08:55Z</time>
      </trkpt>
      <trkpt lat="47.80577" lon="0.35131">
        <ele>159.9</ele>
        <time>2016-06-17T11:09:03Z</time>
      </trkpt>
      <trkpt lat="47.80586" lon="0.35124">
        <ele>160.4</ele>
        <time>2016-06-17T11:09:11Z</time>
      </trkpt>
      <trkpt lat="47.80594" lon="0.35115">
        <ele>160.3</ele>
        <time>2016-06-17T11:09:18Z</time>
      </trkpt>
      <trkpt lat="47.80601" lon="0.35107">
        <ele>160.5</ele>
        <time>2016-06-17T11:09:25Z</time>
      </trkpt>
      <trkpt lat="47.80609" lon="0.35099">
        <ele>160.6</ele>
        <time>2016-06-17T11:09:32Z</time>
      </trkpt>
      <trkpt lat="47.80616" lon="0.35089">
        <ele>159.6</ele>
        <time>2016-06-17T11:09:40Z</time>
      </trkpt>
      <trkpt lat="47.80623" lon="0.35078">
        <ele>159.3</ele>
        <time>2016-06-17T11:09:48Z</time>
      </trkpt>
      <trkpt lat="47.8063" lon="0.35068">
        <ele>159.3</ele>
        <time>2016-06-17T11:09:56Z</time>
      </trkpt>
      <trkpt lat="47.80638" lon="0.35062">
        <ele>159.7</ele>
        <time>2016-06-17T11:10:03Z</time>
      </trkpt>
      <trkpt lat="47.80646" lon="0.35054">
        <ele>159.8</ele>
        <time>2016-06-17T11:10:10Z</time>
      </trkpt>
      <trkpt lat="47.80655" lon="0.35046">
        <ele>159.7</ele>
        <time>2016-06-17T11:10:17Z</time>
      </trkpt>
      <trkpt lat="47.80663" lon="0.35039">
        <ele>160.6</ele>
        <time>2016-06-17T11:10:24Z</time>
      </trkpt>
      <trkpt lat="47.80671" lon="0.35031">
        <ele>159.6</ele>
        <time>2016-06-17T11:10:32Z</time>
      </trkpt>
      <trkpt lat="47.80678" lon="0.35021">
        <ele>160.2</ele>
        <time>2016-06-17T11:10:39Z</time>
      </trkpt>
      <trkpt lat="47.80686" lon="0.35012">
        <ele>159.7</ele>
        <time>2016-06-17T11:10:46Z</time>
      </trkpt>
      <trkpt lat="47.80693" lon="0.35002">
        <ele>160.3</ele>
        <time>2016-06-17T11:10:53Z</time>
      </trkpt>
      <trkpt lat="47.807" lon="0.34991">
        <ele>159.9</ele>
        <time>2016-06-17T11:11:00Z</time>
      </trkpt>
      <trkpt lat="47.80707" lon="0.34982">
        <ele>159.5</ele>
        <time>2016-06-17T11:11:07Z</time>
      </trkpt>
      <trkpt lat="47.80714" lon="0.34971">
        <ele>159</ele>
        <time>2016-06-17T11:11:15Z</time>
      </trkpt>
      <trkpt lat="47.80722" lon="0.34961">
        <ele>159.5</ele>
        <time>2016-06-17T11:11:22Z</time>
      </trkpt>
      <trkpt lat="47.80729" lon="0.34951">
        <ele>158.4</ele>
        <time>2016-06-17T11:11:29Z</time>
      </trkpt>
      <trkpt lat="47.80737" lon="0.34942">
        <ele>157.5</ele>
        <time>2016-06-17T11:11:37Z</time>
      </trkpt>
      <trkpt lat="47.80744" lon="0.34932">
        <ele>158.4</ele>
        <time>2016-06-17T11:11:45Z</time>
      </trkpt>
      <trkpt lat="47.80751" lon="0.34922">
        <ele>157.8</ele>
        <time>2016-06-17T11:11:52Z</time>
      </trkpt>
      <trkpt lat="47.80758" lon="0.34913">
        <ele>158.7</ele>
        <time>2016-06-17T11:12:00Z</time>
      </trkpt>
      <trkpt lat="47.80766" lon="0.34905">
        <ele>157.8</ele>
        <time>2016-06-17T11:12:07Z</time>
      </trkpt>
      <trkpt lat="47.80773" lon="0.34896">
        <ele>157.1</ele>
        <time>2016-06-17T11:12:14Z</time>
      </trkpt>
      <trkpt lat="47.8078" lon="0.34886">
        <ele>157.3</ele>
        <time>2016-06-17T11:12:21Z</time>
      </trkpt>
      <trkpt lat="47.80786" lon="0.34875">
        <ele>156.7</ele>
        <time>2016-06-17T11:12:28Z</time>
      </trkpt>
      <trkpt lat="47.80794" lon="0.34867">
        <ele>157.1</ele>
        <time>2016-06-17T11:12:51Z</time>
      </trkpt>
      <trkpt lat="47.808" lon="0.34857">
        <ele>157.1</ele>
        <time>2016-06-17T11:13:01Z</time>
      </trkpt>
      <trkpt lat="47.80808" lon="0.34848">
        <ele>157.8</ele>
        <time>2016-06-17T11:13:08Z</time>
      </trkpt>
      <trkpt lat="47.80815" lon="0.34839">
        <ele>158</ele>
        <time>2016-06-17T11:13:15Z</time>
      </trkpt>
      <trkpt lat="47.80824" lon="0.34831">
        <ele>158.6</ele>
        <time>2016-06-17T11:13:23Z</time>
      </trkpt>
      <trkpt lat="47.80831" lon="0.34822">
        <ele>158</ele>
        <time>2016-06-17T11:13:30Z</time>
      </trkpt>
      <trkpt lat="47.80839" lon="0.34814">
        <ele>158</ele>
        <time>2016-06-17T11:13:37Z</time>
      </trkpt>
      <trkpt lat="47.80845" lon="0.34805">
        <ele>158.3</ele>
        <time>2016-06-17T11:13:44Z</time>
      </trkpt>
      <trkpt lat="47.80852" lon="0.34795">
        <ele>158.3</ele>
        <time>2016-06-17T11:13:51Z</time>
      </trkpt>
      <trkpt lat="47.80859" lon="0.34784">
        <ele>158.3</ele>
        <time>2016-06-17T11:13:59Z</time>
      </trkpt>
      <trkpt lat="47.80866" lon="0.34774">
        <ele>158.3</ele>
        <time>2016-06-17T11:14:07Z</time>
      </trkpt>
      <trkpt lat="47.80873" lon="0.34764">
        <ele>158.2</ele>
        <time>2016-06-17T11:14:14Z</time>
      </trkpt>
      <trkpt lat="47.8088" lon="0.34754">
        <ele>158.3</ele>
        <time>2016-06-17T11:14:22Z</time>
      </trkpt>
      <trkpt lat="47.80887" lon="0.34745">
        <ele>157.7</ele>
        <time>2016-06-17T11:14:29Z</time>
      </trkpt>
      <trkpt lat="47.80895" lon="0.34735">
        <ele>157.3</ele>
        <time>2016-06-17T11:14:36Z</time>
      </trkpt>
      <trkpt lat="47.80902" lon="0.34726">
        <ele>156.8</ele>
        <time>2016-06-17T11:14:43Z</time>
      </trkpt>
      <trkpt lat="47.8091" lon="0.34717">
        <ele>156.7</ele>
        <time>2016-06-17T11:14:50Z</time>
      </trkpt>
      <trkpt lat="47.80918" lon="0.34708">
        <ele>156.6</ele>
        <time>2016-06-17T11:14:57Z</time>
      </trkpt>
      <trkpt lat="47.80925" lon="0.34698">
        <ele>156.2</ele>
        <time>2016-06-17T11:15:04Z</time>
      </trkpt>
      <trkpt lat="47.80932" lon="0.34691">
        <ele>154.9</ele>
        <time>2016-06-17T11:15:11Z</time>
      </trkpt>
      <trkpt lat="47.8094" lon="0.34682">
        <ele>155.1</ele>
        <time>2016-06-17T11:15:17Z</time>
      </trkpt>
      <trkpt lat="47.80948" lon="0.34674">
        <ele>155.5</ele>
        <time>2016-06-17T11:15:25Z</time>
      </trkpt>
      <trkpt lat="47.80956" lon="0.34667">
        <ele>153.7</ele>
        <time>2016-06-17T11:15:32Z</time>
      </trkpt>
      <trkpt lat="47.80964" lon="0.3466">
        <ele>152.6</ele>
        <time>2016-06-17T11:15:39Z</time>
      </trkpt>
      <trkpt lat="47.80972" lon="0.34652">
        <ele>153.3</ele>
        <time>2016-06-17T11:15:46Z</time>
      </trkpt>
      <trkpt lat="47.80981" lon="0.34645">
        <ele>153.1</ele>
        <time>2016-06-17T11:15:53Z</time>
      </trkpt>
      <trkpt lat="47.80988" lon="0.34637">
        <ele>152.7</ele>
        <time>2016-06-17T11:16:00Z</time>
      </trkpt>
      <trkpt lat="47.80997" lon="0.3463">
        <ele>151.7</ele>
        <time>2016-06-17T11:16:07Z</time>
      </trkpt>
      <trkpt lat="47.81005" lon="0.34621">
        <ele>149.5</ele>
        <time>2016-06-17T11:16:14Z</time>
      </trkpt>
      <trkpt lat="47.81013" lon="0.34614">
        <ele>151.1</ele>
        <time>2016-06-17T11:16:21Z</time>
      </trkpt>
      <trkpt lat="47.81021" lon="0.34605">
        <ele>150.6</ele>
        <time>2016-06-17T11:16:28Z</time>
      </trkpt>
      <trkpt lat="47.8103" lon="0.34597">
        <ele>150.6</ele>
        <time>2016-06-17T11:16:35Z</time>
      </trkpt>
      <trkpt lat="47.81038" lon="0.34589">
        <ele>149.7</ele>
        <time>2016-06-17T11:16:42Z</time>
      </trkpt>
      <trkpt lat="47.81047" lon="0.3458">
        <ele>150.2</ele>
        <time>2016-06-17T11:16:49Z</time>
      </trkpt>
      <trkpt lat="47.81056" lon="0.34573">
        <ele>150.2</ele>
        <time>2016-06-17T11:16:56Z</time>
      </trkpt>
      <trkpt lat="47.81064" lon="0.34565">
        <ele>149.8</ele>
        <time>2016-06-17T11:17:03Z</time>
      </trkpt>
      <trkpt lat="47.81072" lon="0.34557">
        <ele>150.3</ele>
        <time>2016-06-17T11:17:10Z</time>
      </trkpt>
      <trkpt lat="47.8108" lon="0.34549">
        <ele>149.2</ele>
        <time>2016-06-17T11:17:17Z</time>
      </trkpt>
      <trkpt lat="47.81088" lon="0.3454">
        <ele>148.2</ele>
        <time>2016-06-17T11:17:24Z</time>
      </trkpt>
      <trkpt lat="47.81097" lon="0.34532">
        <ele>148.5</ele>
        <time>2016-06-17T11:17:31Z</time>
      </trkpt>
      <trkpt lat="47.81105" lon="0.34524">
        <ele>148.1</ele>
        <time>2016-06-17T11:17:38Z</time>
      </trkpt>
      <trkpt lat="47.81113" lon="0.34515">
        <ele>146.4</ele>
        <time>2016-06-17T11:17:45Z</time>
      </trkpt>
      <trkpt lat="47.81121" lon="0.34508">
        <ele>147.2</ele>
        <time>2016-06-17T11:17:52Z</time>
      </trkpt>
      <trkpt lat="47.8113" lon="0.345">
        <ele>147.7</ele>
        <time>2016-06-17T11:17:59Z</time>
      </trkpt>
      <trkpt lat="47.81137" lon="0.34493">
        <ele>147.7</ele>
        <time>2016-06-17T11:18:06Z</time>
      </trkpt>
      <trkpt lat="47.81145" lon="0.34484">
        <ele>147.3</ele>
        <time>2016-06-17T11:18:14Z</time>
      </trkpt>
      <trkpt lat="47.81152" lon="0.34475">
        <ele>147.2</ele>
        <time>2016-06-17T11:18:21Z</time>
      </trkpt>
      <trkpt lat="47.8116" lon="0.34468">
        <ele>147.2</ele>
        <time>2016-06-17T11:18:29Z</time>
      </trkpt>
      <trkpt lat="47.81168" lon="0.34459">
        <ele>147</ele>
        <time>2016-06-17T11:18:36Z</time>
      </trkpt>
      <trkpt lat="47.81174" lon="0.34448">
        <ele>146.6</ele>
        <time>2016-06-17T11:18:58Z</time>
      </trkpt>
      <trkpt lat="47.81182" lon="0.34439">
        <ele>146.5</ele>
        <time>2016-06-17T11:19:05Z</time>
      </trkpt>
      <trkpt lat="47.8119" lon="0.34431">
        <ele>146.3</ele>
        <time>2016-06-17T11:19:12Z</time>
      </trkpt>
      <trkpt lat="47.81198" lon="0.34424">
        <ele>146.5</ele>
        <time>2016-06-17T11:19:18Z</time>
      </trkpt>
      <trkpt lat="47.81206" lon="0.34416">
        <ele>145.9</ele>
        <time>2016-06-17T11:19:25Z</time>
      </trkpt>
      <trkpt lat="47.81214" lon="0.34407">
        <ele>146.1</ele>
        <time>2016-06-17T11:19:31Z</time>
      </trkpt>
      <trkpt lat="47.81222" lon="0.34399">
        <ele>145.8</ele>
        <time>2016-06-17T11:19:38Z</time>
      </trkpt>
      <trkpt lat="47.8123" lon="0.3439">
        <ele>144.6</ele>
        <time>2016-06-17T11:19:45Z</time>
      </trkpt>
      <trkpt lat="47.81238" lon="0.34382">
        <ele>144.4</ele>
        <time>2016-06-17T11:19:52Z</time>
      </trkpt>
      <trkpt lat="47.81246" lon="0.34374">
        <ele>145.2</ele>
        <time>2016-06-17T11:19:59Z</time>
      </trkpt>
      <trkpt lat="47.81255" lon="0.34365">
        <ele>145.3</ele>
        <time>2016-06-17T11:20:06Z</time>
      </trkpt>
      <trkpt lat="47.81262" lon="0.34356">
        <ele>145.8</ele>
        <time>2016-06-17T11:20:13Z</time>
      </trkpt>
      <trkpt lat="47.8127" lon="0.34348">
        <ele>144.8</ele>
        <time>2016-06-17T11:20:20Z</time>
      </trkpt>
      <trkpt lat="47.81277" lon="0.3434">
        <ele>145.1</ele>
        <time>2016-06-17T11:20:27Z</time>
      </trkpt>
      <trkpt lat="47.81285" lon="0.34331">
        <ele>143.8</ele>
        <time>2016-06-17T11:20:34Z</time>
      </trkpt>
      <trkpt lat="47.81293" lon="0.34322">
        <ele>145</ele>
        <time>2016-06-17T11:20:41Z</time>
      </trkpt>
      <trkpt lat="47.813" lon="0.34313">
        <ele>144.4</ele>
        <time>2016-06-17T11:20:48Z</time>
      </trkpt>
      <trkpt lat="47.81308" lon="0.34304">
        <ele>145.2</ele>
        <time>2016-06-17T11:20:56Z</time>
      </trkpt>
      <trkpt lat="47.81317" lon="0.34298">
        <ele>144.5</ele>
        <time>2016-06-17T11:21:03Z</time>
      </trkpt>
      <trkpt lat="47.81325" lon="0.34291">
        <ele>143.9</ele>
        <time>2016-06-17T11:21:10Z</time>
      </trkpt>
      <trkpt lat="47.81334" lon="0.34283">
        <ele>143.3</ele>
        <time>2016-06-17T11:21:18Z</time>
      </trkpt>
      <trkpt lat="47.81342" lon="0.34277">
        <ele>143.5</ele>
        <time>2016-06-17T11:21:24Z</time>
      </trkpt>
      <trkpt lat="47.8135" lon="0.34271">
        <ele>142.5</ele>
        <time>2016-06-17T11:21:31Z</time>
      </trkpt>
      <trkpt lat="47.81358" lon="0.34264">
        <ele>140.9</ele>
        <time>2016-06-17T11:21:38Z</time>
      </trkpt>
      <trkpt lat="47.81366" lon="0.34258">
        <ele>140.7</ele>
        <time>2016-06-17T11:21:45Z</time>
      </trkpt>
      <trkpt lat="47.81375" lon="0.3425">
        <ele>142.1</ele>
        <time>2016-06-17T11:21:52Z</time>
      </trkpt>
      <trkpt lat="47.81383" lon="0.34243">
        <ele>141</ele>
        <time>2016-06-17T11:21:59Z</time>
      </trkpt>
      <trkpt lat="47.81392" lon="0.34235">
        <ele>139.1</ele>
        <time>2016-06-17T11:22:06Z</time>
      </trkpt>
      <trkpt lat="47.814" lon="0.34228">
        <ele>140.2</ele>
        <time>2016-06-17T11:22:13Z</time>
      </trkpt>
      <trkpt lat="47.81407" lon="0.3422">
        <ele>139.9</ele>
        <time>2016-06-17T11:22:19Z</time>
      </trkpt>
      <trkpt lat="47.81415" lon="0.34213">
        <ele>138.3</ele>
        <time>2016-06-17T11:22:25Z</time>
      </trkpt>
      <trkpt lat="47.81423" lon="0.34206">
        <ele>137.1</ele>
        <time>2016-06-17T11:22:31Z</time>
      </trkpt>
      <trkpt lat="47.8143" lon="0.34196">
        <ele>136.8</ele>
        <time>2016-06-17T11:22:39Z</time>
      </trkpt>
      <trkpt lat="47.81438" lon="0.34187">
        <ele>136.1</ele>
        <time>2016-06-17T11:22:47Z</time>
      </trkpt>
      <trkpt lat="47.81444" lon="0.34178">
        <ele>135.6</ele>
        <time>2016-06-17T11:22:54Z</time>
      </trkpt>
      <trkpt lat="47.81452" lon="0.34167">
        <ele>134</ele>
        <time>2016-06-17T11:23:03Z</time>
      </trkpt>
      <trkpt lat="47.81458" lon="0.34156">
        <ele>132.4</ele>
        <time>2016-06-17T11:23:11Z</time>
      </trkpt>
      <trkpt lat="47.81463" lon="0.34144">
        <ele>131.2</ele>
        <time>2016-06-17T11:23:18Z</time>
      </trkpt>
      <trkpt lat="47.81467" lon="0.3413">
        <ele>130</ele>
        <time>2016-06-17T11:23:28Z</time>
      </trkpt>
      <trkpt lat="47.81471" lon="0.34118">
        <ele>127.1</ele>
        <time>2016-06-17T11:23:36Z</time>
      </trkpt>
      <trkpt lat="47.81476" lon="0.34105">
        <ele>124.7</ele>
        <time>2016-06-17T11:23:45Z</time>
      </trkpt>
      <trkpt lat="47.81482" lon="0.34094">
        <ele>123.8</ele>
        <time>2016-06-17T11:23:52Z</time>
      </trkpt>
      <trkpt lat="47.81489" lon="0.34084">
        <ele>123.2</ele>
        <time>2016-06-17T11:23:58Z</time>
      </trkpt>
      <trkpt lat="47.81495" lon="0.34073">
        <ele>121.6</ele>
        <time>2016-06-17T11:24:04Z</time>
      </trkpt>
      <trkpt lat="47.815" lon="0.3406">
        <ele>119.5</ele>
        <time>2016-06-17T11:24:12Z</time>
      </trkpt>
      <trkpt lat="47.81507" lon="0.34051">
        <ele>117.8</ele>
        <time>2016-06-17T11:24:18Z</time>
      </trkpt>
      <trkpt lat="47.81514" lon="0.3404">
        <ele>116.7</ele>
        <time>2016-06-17T11:24:26Z</time>
      </trkpt>
      <trkpt lat="47.81521" lon="0.34033">
        <ele>115.8</ele>
        <time>2016-06-17T11:24:33Z</time>
      </trkpt>
      <trkpt lat="47.81529" lon="0.34025">
        <ele>115.2</ele>
        <time>2016-06-17T11:24:40Z</time>
      </trkpt>
      <trkpt lat="47.81537" lon="0.34018">
        <ele>115.1</ele>
        <time>2016-06-17T11:24:47Z</time>
      </trkpt>
      <trkpt lat="47.81546" lon="0.3401">
        <ele>114.1</ele>
        <time>2016-06-17T11:25:00Z</time>
      </trkpt>
      <trkpt lat="47.81554" lon="0.34004">
        <ele>113.2</ele>
        <time>2016-06-17T11:25:08Z</time>
      </trkpt>
      <trkpt lat="47.81563" lon="0.33997">
        <ele>112.3</ele>
        <time>2016-06-17T11:25:17Z</time>
      </trkpt>
      <trkpt lat="47.81571" lon="0.33991">
        <ele>111.6</ele>
        <time>2016-06-17T11:25:24Z</time>
      </trkpt>
      <trkpt lat="47.8158" lon="0.33985">
        <ele>111</ele>
        <time>2016-06-17T11:25:31Z</time>
      </trkpt>
      <trkpt lat="47.81588" lon="0.33977">
        <ele>109.5</ele>
        <time>2016-06-17T11:25:42Z</time>
      </trkpt>
      <trkpt lat="47.81597" lon="0.3397">
        <ele>109</ele>
        <time>2016-06-17T11:25:50Z</time>
      </trkpt>
      <trkpt lat="47.81606" lon="0.33964">
        <ele>107.6</ele>
        <time>2016-06-17T11:25:58Z</time>
      </trkpt>
      <trkpt lat="47.81615" lon="0.33958">
        <ele>106.7</ele>
        <time>2016-06-17T11:26:09Z</time>
      </trkpt>
      <trkpt lat="47.81624" lon="0.33951">
        <ele>106.4</ele>
        <time>2016-06-17T11:26:17Z</time>
      </trkpt>
      <trkpt lat="47.81632" lon="0.33945">
        <ele>106.3</ele>
        <time>2016-06-17T11:26:24Z</time>
      </trkpt>
      <trkpt lat="47.8164" lon="0.33937">
        <ele>106.2</ele>
        <time>2016-06-17T11:26:32Z</time>
      </trkpt>
      <trkpt lat="47.81648" lon="0.33931">
        <ele>106.1</ele>
        <time>2016-06-17T11:26:39Z</time>
      </trkpt>
      <trkpt lat="47.81658" lon="0.33928">
        <ele>105.5</ele>
        <time>2016-06-17T11:26:47Z</time>
      </trkpt>
      <trkpt lat="47.81668" lon="0.33925">
        <ele>105.5</ele>
        <time>2016-06-17T11:26:54Z</time>
      </trkpt>
      <trkpt lat="47.81677" lon="0.33924">
        <ele>105.5</ele>
        <time>2016-06-17T11:27:05Z</time>
      </trkpt>
      <trkpt lat="47.81686" lon="0.33924">
        <ele>106</ele>
        <time>2016-06-17T11:27:14Z</time>
      </trkpt>
      <trkpt lat="47.81694" lon="0.33916">
        <ele>106.7</ele>
        <time>2016-06-17T11:27:20Z</time>
      </trkpt>
      <trkpt lat="47.81704" lon="0.3391">
        <ele>107.3</ele>
        <time>2016-06-17T11:27:25Z</time>
      </trkpt>
      <trkpt lat="47.81708" lon="0.33898">
        <ele>108.3</ele>
        <time>2016-06-17T11:27:49Z</time>
      </trkpt>
      <trkpt lat="47.81707" lon="0.33884">
        <ele>108.7</ele>
        <time>2016-06-17T11:27:58Z</time>
      </trkpt>
      <trkpt lat="47.81704" lon="0.33871">
        <ele>107.4</ele>
        <time>2016-06-17T11:28:06Z</time>
      </trkpt>
      <trkpt lat="47.81701" lon="0.33858">
        <ele>108.5</ele>
        <time>2016-06-17T11:28:15Z</time>
      </trkpt>
      <trkpt lat="47.81694" lon="0.33847">
        <ele>109.8</ele>
        <time>2016-06-17T11:28:34Z</time>
      </trkpt>
      <trkpt lat="47.81692" lon="0.33834">
        <ele>109.4</ele>
        <time>2016-06-17T11:28:41Z</time>
      </trkpt>
      <trkpt lat="47.81689" lon="0.3382">
        <ele>110.1</ele>
        <time>2016-06-17T11:28:49Z</time>
      </trkpt>
      <trkpt lat="47.81685" lon="0.33807">
        <ele>108.6</ele>
        <time>2016-06-17T11:28:59Z</time>
      </trkpt>
      <trkpt lat="47.81681" lon="0.33792">
        <ele>107.6</ele>
        <time>2016-06-17T11:29:06Z</time>
      </trkpt>
      <trkpt lat="47.81677" lon="0.3378">
        <ele>107.4</ele>
        <time>2016-06-17T11:29:14Z</time>
      </trkpt>
      <trkpt lat="47.81674" lon="0.33766">
        <ele>107</ele>
        <time>2016-06-17T11:29:22Z</time>
      </trkpt>
      <trkpt lat="47.8167" lon="0.33754">
        <ele>106.4</ele>
        <time>2016-06-17T11:29:29Z</time>
      </trkpt>
      <trkpt lat="47.81666" lon="0.3374">
        <ele>105.8</ele>
        <time>2016-06-17T11:29:36Z</time>
      </trkpt>
      <trkpt lat="47.8166" lon="0.33729">
        <ele>105.4</ele>
        <time>2016-06-17T11:29:44Z</time>
      </trkpt>
      <trkpt lat="47.81655" lon="0.33717">
        <ele>106.2</ele>
        <time>2016-06-17T11:29:54Z</time>
      </trkpt>
      <trkpt lat="47.81653" lon="0.33704">
        <ele>105.5</ele>
        <time>2016-06-17T11:30:13Z</time>
      </trkpt>
      <trkpt lat="47.81653" lon="0.33689">
        <ele>106.1</ele>
        <time>2016-06-17T11:30:23Z</time>
      </trkpt>
      <trkpt lat="47.81652" lon="0.33674">
        <ele>106</ele>
        <time>2016-06-17T11:30:31Z</time>
      </trkpt>
      <trkpt lat="47.81652" lon="0.33659">
        <ele>105.5</ele>
        <time>2016-06-17T11:30:39Z</time>
      </trkpt>
      <trkpt lat="47.81651" lon="0.33643">
        <ele>104.9</ele>
        <time>2016-06-17T11:30:52Z</time>
      </trkpt>
      <trkpt lat="47.81651" lon="0.3363">
        <ele>105.2</ele>
        <time>2016-06-17T11:31:01Z</time>
      </trkpt>
      <trkpt lat="47.81651" lon="0.33615">
        <ele>105.4</ele>
        <time>2016-06-17T11:31:09Z</time>
      </trkpt>
      <trkpt lat="47.81651" lon="0.336">
        <ele>105.6</ele>
        <time>2016-06-17T11:31:16Z</time>
      </trkpt>
      <trkpt lat="47.81651" lon="0.33585">
        <ele>106</ele>
        <time>2016-06-17T11:31:22Z</time>
      </trkpt>
      <trkpt lat="47.81651" lon="0.33571">
        <ele>105.9</ele>
        <time>2016-06-17T11:31:28Z</time>
      </trkpt>
      <trkpt lat="47.81651" lon="0.33556">
        <ele>107.2</ele>
        <time>2016-06-17T11:31:37Z</time>
      </trkpt>
      <trkpt lat="47.81651" lon="0.33541">
        <ele>106.1</ele>
        <time>2016-06-17T11:31:43Z</time>
      </trkpt>
      <trkpt lat="47.81652" lon="0.33527">
        <ele>105.9</ele>
        <time>2016-06-17T11:31:50Z</time>
      </trkpt>
      <trkpt lat="47.81653" lon="0.33513">
        <ele>105.6</ele>
        <time>2016-06-17T11:31:56Z</time>
      </trkpt>
      <trkpt lat="47.81654" lon="0.33499">
        <ele>106.2</ele>
        <time>2016-06-17T11:32:04Z</time>
      </trkpt>
      <trkpt lat="47.81654" lon="0.33485">
        <ele>106.6</ele>
        <time>2016-06-17T11:32:10Z</time>
      </trkpt>
      <trkpt lat="47.81652" lon="0.3347">
        <ele>106</ele>
        <time>2016-06-17T11:32:18Z</time>
      </trkpt>
      <trkpt lat="47.81648" lon="0.33457">
        <ele>105.1</ele>
        <time>2016-06-17T11:32:26Z</time>
      </trkpt>
      <trkpt lat="47.81646" lon="0.33442">
        <ele>106.9</ele>
        <time>2016-06-17T11:32:34Z</time>
      </trkpt>
      <trkpt lat="47.81643" lon="0.33426">
        <ele>107</ele>
        <time>2016-06-17T11:32:40Z</time>
      </trkpt>
      <trkpt lat="47.8164" lon="0.33412">
        <ele>105.9</ele>
        <time>2016-06-17T11:32:46Z</time>
      </trkpt>
      <trkpt lat="47.81633" lon="0.33401">
        <ele>105.2</ele>
        <time>2016-06-17T11:32:54Z</time>
      </trkpt>
      <trkpt lat="47.81628" lon="0.33389">
        <ele>105.9</ele>
        <time>2016-06-17T11:33:01Z</time>
      </trkpt>
      <trkpt lat="47.81621" lon="0.33378">
        <ele>106.1</ele>
        <time>2016-06-17T11:33:07Z</time>
      </trkpt>
      <trkpt lat="47.81617" lon="0.33367">
        <ele>106.5</ele>
        <time>2016-06-17T11:33:14Z</time>
      </trkpt>
      <trkpt lat="47.81608" lon="0.3336">
        <ele>105.7</ele>
        <time>2016-06-17T11:33:22Z</time>
      </trkpt>
      <trkpt lat="47.81599" lon="0.33358">
        <ele>105.3</ele>
        <time>2016-06-17T11:33:31Z</time>
      </trkpt>
      <trkpt lat="47.8159" lon="0.3336">
        <ele>106.2</ele>
        <time>2016-06-17T11:34:12Z</time>
      </trkpt>
      <trkpt lat="47.81581" lon="0.33358">
        <ele>106.6</ele>
        <time>2016-06-17T11:34:22Z</time>
      </trkpt>
      <trkpt lat="47.81571" lon="0.33357">
        <ele>106.3</ele>
        <time>2016-06-17T11:34:29Z</time>
      </trkpt>
      <trkpt lat="47.81562" lon="0.33359">
        <ele>104.3</ele>
        <time>2016-06-17T11:34:36Z</time>
      </trkpt>
      <trkpt lat="47.81553" lon="0.3336">
        <ele>104.2</ele>
        <time>2016-06-17T11:34:42Z</time>
      </trkpt>
      <trkpt lat="47.81544" lon="0.33359">
        <ele>105</ele>
        <time>2016-06-17T11:34:51Z</time>
      </trkpt>
      <trkpt lat="47.81536" lon="0.33365">
        <ele>104.7</ele>
        <time>2016-06-17T11:35:00Z</time>
      </trkpt>
      <trkpt lat="47.81528" lon="0.33371">
        <ele>103.2</ele>
        <time>2016-06-17T11:35:05Z</time>
      </trkpt>
      <trkpt lat="47.81518" lon="0.33371">
        <ele>104.2</ele>
        <time>2016-06-17T11:35:12Z</time>
      </trkpt>
      <trkpt lat="47.81509" lon="0.3337">
        <ele>103</ele>
        <time>2016-06-17T11:35:21Z</time>
      </trkpt>
      <trkpt lat="47.81507" lon="0.33366">
        <ele>101.9</ele>
        <time>2016-06-17T11:36:31Z</time>
      </trkpt>
    </trkseg>
  </trk>
</gpx>